[[{"header":{"parameterUnit":"m.s-1","parameterCategory":1,"la1":31.0,"la2":29.5877,"lo1":-88.7671,"lo2":-86.6584,"dy":0.0162,"dx":0.0185,"nx":115,"ny":88,"refTime":"2023-06-27T06:00:00:Z","depth":0,"parameterNumber":2,"parameterNumberName":"U-component_of_WINDS"},"data":[0.0,0.0,0.0,0.0,0.0,0.0,0.0,0.0,0.0,0.0,0.0,0.0,0.0,0.0,0.0,0.0,0.0,0.0,0.0,0.0,0.0,0.0,0.0,0.0,0.0,0.0,0.0,0.0,0.0,0.0,0.0,0.0,0.0,0.0,0.0,0.0,0.0,0.0,0.0,0.0,0.0,0.0,0.0,0.0,0.0,0.0,0.0,0.0,0.0,0.0,0.0,0.0,0.0,0.0,0.0,0.0,0.0,0.0,0.0,0.0,0.0,0.0,0.0,0.0,0.0,0.0,0.0,0.0,0.0,0.0,0.0,0.0,0.0,0.0,0.0,0.0,0.0,0.0,0.0,0.0,0.0,0.0,0.0,0.0,0.0,0.0,0.0,0.0,0.0,0.0,0.0,0.0,0.0,0.0,0.0,0.0,0.0,0.0,0.0,0.0,0.0,0.0,0.0,0.0,0.0,0.0,0.0,0.0,0.0,0.0,0.0,0.0,0.0,0.0,0.0,0.0,0.0,0.0,0.0,0.0,0.0,0.0,0.0,0.0,0.0,0.0,0.0,0.0,0.0,0.0,0.0,0.0,0.0,0.0,0.0,0.0,0.0,0.0,0.0,0.0,0.0,0.0,0.0,0.0,0.0,0.0,0.0,0.0,0.0,0.0,0.0,0.0,0.0,0.0,0.0,0.0,0.0,0.0,0.0,0.0,0.0,0.0,0.0,0.0,0.0,0.0,0.0,0.0,0.0,0.0,0.0,0.0,0.0,0.0,0.0,0.0,0.0,0.0,0.0,0.0,0.0,0.0,0.0,0.0,0.0,0.0,0.0,0.0,0.0,0.0,0.0,0.0,0.0,0.0,0.0,0.0,0.0,0.0,0.0,0.0,0.0,0.0,0.0,0.0,0.0,0.0,0.0,0.0,0.0,0.0,0.0,0.0,0.0,0.0,0.0,0.0,0.0,0.0,0.0,0.0,0.0,0.0,0.0,0.0,0.0,0.0,0.0,0.0,0.0,0.0,0.0,0.0,0.0,0.0,0.0,0.0,0.0,0.0,0.0,0.0,0.0,0.0,0.0,0.0,0.0,0.0,0.0,0.0,0.0,0.0,0.0,0.0,0.0,0.0,0.0,0.0,0.0,0.0,0.0,0.0,0.0,0.0,0.0,0.0,0.0,0.0,0.0,0.0,0.0,0.0,0.0,0.0,0.0,0.0,0.0,0.0,0.0,0.0,0.0,0.0,0.0,0.0,0.0,0.0,0.0,0.0,0.0,0.0,0.0,0.0,0.0,0.0,0.0,0.0,0.0,0.0,0.0,0.0,0.0,0.0,0.0,0.0,0.0,0.0,0.0,0.0,0.0,0.0,0.0,0.0,0.0,0.0,0.0,0.0,0.0,0.0,0.0,0.0,0.0,0.0,0.0,0.0,0.0,0.0,0.0,0.0,0.0,0.0,0.0,0.0,0.0,0.0,0.0,0.0,0.0,0.0,0.0,0.0,0.0,0.0,0.0,0.0,0.0,0.0,0.0,0.0,0.0,0.0,0.0,0.0,0.0,0.0,0.0,0.0,0.0,0.0,0.0,0.0,0.0,0.0,0.0,0.0,0.0,0.0,0.0,0.0,0.0,0.0,0.0,0.0,0.0,0.0,0.0,0.0,0.0,0.0,0.0,0.0,0.0,0.0,0.0,0.0,0.0,0.0,0.0,0.0,0.0,0.0,0.0,0.0,0.0,0.0,0.0,0.0,0.0,0.0,0.0,0.0,0.0,0.0,0.0,0.0,0.0,0.0,0.0,0.0,0.0,0.0,0.0,0.0,0.0,0.0,0.0,0.0,0.0,0.0,0.0,0.0,0.0,0.0,0.0,0.0,0.0,0.0,0.0,0.0,0.0,0.0,0.0,0.0,0.0,0.0,0.0,0.0,0.0,0.0,0.0,0.0,0.0,0.0,0.0,0.0,0.0,0.0,0.0,0.0,0.0,0.0,0.0,0.0,0.0,0.0,0.0,0.0,0.0,0.0,0.0,0.0,0.0,0.0,0.0,0.0,0.0,0.0,0.0,0.0,0.0,0.0,0.0,0.0,0.0,0.0,0.0,0.0,0.0,0.0,0.0,0.0,0.0,0.0,0.0,0.0,0.0,0.0,0.0,0.0,0.0,0.0,0.0,0.0,0.0,0.0,0.0,0.0,0.0,0.0,0.0,0.0,0.0,0.0,0.0,0.0,0.0,0.0,0.0,0.0,0.0,0.0,0.0,0.0,0.0,0.0,0.0,0.0,0.0,0.0,0.0,0.0,0.0,0.0,0.0,0.0,0.0,0.0,0.0,0.0,0.0,0.0,0.0,0.0,0.0,0.0,0.0,0.0,0.0,0.0,0.0,0.0,0.0,0.0,0.0,0.0,0.0,0.0,0.0,0.0,0.0,0.0,0.0,0.0,0.0,0.0,0.0,0.0,0.0,0.0,0.0,0.0,0.0,0.0,0.0,0.0,0.0,0.0,0.0,0.0,0.0,0.0,0.0,0.0,0.0,0.0,0.0,0.0,0.0,0.0,0.0,0.0,0.0,0.0,0.0,0.0,0.0,0.0,0.0,0.0,0.0,0.0,0.0,0.0,0.0,0.0,0.0,0.0,0.0,0.0,0.0,0.0,0.0,0.0,0.0,0.0,0.0,0.0,0.0,0.0,0.0,0.0,0.0,0.0,0.0,0.0,0.0,0.0,0.0,0.0,0.0,0.0,0.0,0.0,0.0,0.0,0.0,0.0,0.0,0.0,0.0,0.0,0.0,0.0,0.0,0.0,0.0,0.0,0.0,0.0,0.0,0.0,0.0,0.0,0.0,0.0,0.0,0.0,0.0,0.0,0.0,0.0,0.0,0.0,0.0,0.0,0.0,0.0,0.0,0.0,0.0,0.0,0.0,0.0,0.0,0.0,0.0,0.0,0.0,0.0,0.0,0.0,0.0,0.0,0.0,0.0,0.0,0.0,0.0,0.0,0.0,0.0,0.0,0.0,0.0,0.0,0.0,0.0,0.0,0.0,0.0,0.0,0.0,0.0,0.0,0.0,0.0,0.0,0.0,0.0,0.0,0.0,0.0,0.0,0.0,0.0,0.0,0.0,0.0,0.0,0.0,0.0,0.0,0.0,0.0,0.0,0.0,0.0,0.0,0.0,0.0,0.0,0.0,0.0,0.0,0.0,0.0,0.0,0.0,0.0,0.0,0.0,0.0,0.0,0.0,0.0,0.0,0.0,0.0,0.0,0.0,0.0,0.0,0.0,0.0,0.0,0.0,0.0,0.0,0.0,0.0,0.0,0.0,0.0,0.0,0.0,0.0,0.0,0.0,0.0,0.0,0.0,0.0,0.0,0.0,0.0,0.0,0.0,0.0,0.0,0.0,0.0,0.0,0.0,0.0,0.0,0.0,0.0,0.0,0.0,0.0,0.0,0.0,0.0,0.0,0.0,0.0,0.0,0.0,0.0,0.0,0.0,0.0,0.0,0.0,0.0,0.0,0.0,0.0,0.0,0.0,0.0,0.0,0.0,0.0,0.0,0.0,0.0,0.0,0.0,0.0,0.0,0.0,0.0,0.0,0.0,0.0,0.0,0.0,0.0,0.0,0.0,0.0,0.0,0.0,0.0,0.0,0.0,0.0,0.0,0.0,0.0,0.0,0.0,0.0,0.0,0.0,0.0,0.0,0.0,0.0,0.0,0.0,0.0,0.0,0.0,0.0,0.0,0.0,0.0,0.0,0.0,0.0,0.0,0.0,0.0,0.0,0.0,0.0,0.0,0.0,0.0,0.0,0.0,0.0,0.0,0.0,0.0,0.0,0.0,0.0,0.0,0.0,0.0,0.0,0.0,0.0,0.0,0.0,0.0,0.0,0.0,0.0,0.0,0.0,0.0,0.0,0.0,0.0,0.0,0.0,0.0,0.0,0.0,0.0,0.0,0.0,0.0,0.0,0.0,0.0,0.0,0.0,0.0,0.0,0.0,0.0,0.0,0.0,0.0,0.0,0.0,0.0,0.0,0.0,0.0,0.0,0.0,0.0,0.0,0.0,0.0,0.0,0.0,0.0,0.0,0.0,0.0,0.0,0.0,0.0,0.0,0.0,0.0,0.0,0.0,0.0,0.0,0.0,0.0,0.0,0.0,0.0,0.0,0.0,0.0,0.0,0.0,0.0,0.0,0.0,0.0,0.0,0.0,0.0,0.0,0.0,0.0,0.0,0.0,0.0,0.0,0.0,0.0,0.0,0.0,0.0,0.0,0.0,0.0,0.1835,0.0,0.0,0.0,0.0,0.0,0.0,0.0,0.0,0.0,0.0,0.0,0.0,0.0,0.0,0.0,0.0,0.0,0.0,0.0,0.0,0.0,0.0,0.0,0.0,0.0,0.0,0.0,0.0,0.0,0.0,0.0,0.0,0.0,0.0,0.0,0.0,0.0,0.0,0.0,0.0,0.0,0.0,0.0,0.0,0.0,0.0,0.0,0.0,0.0,0.0,0.0,0.0,0.0,0.0,0.0,0.0,0.0,0.0,0.0,0.0,0.0,0.0,0.0,0.0,0.0,0.0,0.0,0.0,0.0,0.0,0.0,0.0,0.0,0.0,0.0,0.0,0.0,0.0,0.0,0.0,0.0,0.0,0.0,0.0,0.0,0.0,0.0,0.0,0.0,0.0,0.0,0.0,0.0,0.0,0.0,0.0,0.0,0.0,0.0,0.0,0.0,0.0,0.0,0.0,0.0,0.0,0.0,0.0,0.0,0.0,0.3418,0.3334,0.2828,0.2617,0.2736,0.0,0.0,0.0,0.0,0.0,0.0,0.0,0.0,0.0,0.0,0.0,0.0,0.0,0.0,0.0,0.0,0.0,0.0,0.0,0.0,0.0,0.0,0.0,0.0,0.0,0.0,0.0,0.0,0.0,0.0,0.0,0.0,0.0,0.0,0.0,0.0,0.0,0.0,0.0,0.0,0.0,0.0,0.0,0.0,0.0,0.0,0.0,0.0,0.0,0.0,0.0,0.0,0.0,0.0,0.0,0.0,0.0,0.0,0.0,0.0,0.0,0.0,0.0,0.0,0.0,0.0,0.0,0.0,0.0,0.0,0.0,0.0,0.0,0.0,0.0,0.0,0.0,0.0,0.0,0.0,0.0,0.0,0.0,0.0,0.0,0.0,0.0,0.0,0.0,0.0,0.0,0.0,0.0,0.0,0.0,0.0,0.0,0.0,0.0,0.0,0.0,0.0,0.0,0.0,0.0,0.0,0.0,0.0,0.0,0.0,0.0,0.0,0.3411,0.3448,0.3903,0.0,0.0,0.0,0.0,0.0,0.0,0.0,0.0,0.0,0.0,0.0,0.0,0.0,0.0,0.0,0.0,0.0,0.0,0.0,0.0,0.0,0.0,0.0,0.0,0.0,0.0,0.0,0.0,0.0,0.0,0.0,0.0,0.0,0.0,0.0,0.0,0.0,0.0,0.0,0.0,0.0,0.0,0.0,0.0,0.0,0.0,0.0,0.0,0.0,0.0,0.0,0.0,0.0,0.0,0.0,0.0,0.0,0.0,0.0,0.0,0.0,0.0,0.0,0.0,0.0,0.0,0.0,0.0,0.0,0.0,0.0,0.0,0.0,0.0,0.0,0.0,0.0,0.0,0.0,0.0,0.0,0.0,0.0,0.0,0.0,0.0,0.0,0.0,0.0,0.0,0.0,0.0,0.0,0.0,0.0,0.0,0.0,0.0,0.0,0.0,0.0,0.0,0.0,0.0,0.0,0.0,0.0,0.0,0.0,0.0,0.413,0.3912,0.4525,0.0,0.5202,0.0,0.0,0.0,0.0,0.0,0.0,0.0,0.0,0.0,0.0,0.0,0.0,0.0,0.0,0.0,0.0,0.0,0.0,0.0,0.0,0.0,0.0,0.0,0.0,0.0,0.0,0.0,0.0,0.0,0.0,0.0,0.0,0.0,0.0,0.0,0.0,0.0,0.0,0.0,0.0,0.0,0.0,0.0,0.0,0.0,0.0,0.0,0.0,0.0,0.0,0.0,0.0,0.0,0.0,0.0,0.0,0.0,0.0,0.0,0.0,0.0,0.0,0.0,0.0,0.0,0.0,0.0,0.0,0.0,0.0,0.0,0.0,0.0,0.0,0.0,0.0,0.0,0.0,0.0,0.0,0.0,0.0,0.0,0.0,0.0,0.0,0.0,0.0,0.0,0.0,0.0,0.0,0.0,0.0,0.0,0.0,0.0,0.0,0.0,0.0,0.0,0.0,0.0,0.0,0.0,0.0,0.0,0.0,0.0,0.0,0.5095,0.5037,0.5322,0.5278,0.0,0.0,0.0,0.0,0.0,0.0,0.0,0.0,0.0,0.0,0.0,0.0,0.0,0.0,0.0,0.0,0.0,0.0,0.0,0.0,0.0,0.0,0.0,0.0,0.0,0.0,0.0,0.0,0.0,0.0,0.0,0.0,0.0,0.0,0.0,0.0,0.0,0.0,0.0,0.0,0.0,0.0,0.0,0.0,0.0,0.0,0.0,0.0,0.0,0.0,0.0,0.0,0.0,0.0,0.0,0.0,0.0,0.0,0.0,0.0,0.0,0.0,0.0,0.0,0.0,0.0,0.0,0.0,0.0,0.0,0.0,0.0,0.0,0.0,0.0,0.0,0.0,0.0,0.0,0.0,0.0,0.0,0.0,0.0,0.0,0.0,0.0,0.0,0.0,0.0,0.0,0.0,0.0,0.0,0.0,0.0,0.0,0.0,0.0,0.0,0.0,0.0,0.0,0.0,0.0,0.0,0.0,0.0,0.0,0.0,0.4716,0.5985,0.6368,0.6002,0.5676,0.5437,0.0,0.0,0.0,0.0,0.0,0.0,0.0,0.0,0.0,0.0,0.0,0.0,0.0,0.0,0.0,0.0,0.0,0.0,0.0,0.0,0.0,0.0,0.0,0.0,0.0,0.0,0.0,0.0,0.0,0.0,0.0,0.0,0.0,0.0,0.0,0.0,0.0,0.0,0.0,0.0,0.0,0.0,0.0,0.0,0.0,0.0,0.0,0.0,0.0,0.0,0.0,0.0,0.0,0.0,0.0,0.0,0.0,0.0,0.0,0.0,0.0,0.0,0.0,0.0,0.0,0.0,0.0,0.0,0.0,0.0,0.0,0.0,0.0,0.0,0.0,0.0,0.0,0.0,0.0,0.0,0.0,0.0,0.0,0.0,0.0,0.0,0.0,0.0,0.0,0.0,0.0,0.0,0.0,0.0,0.0,0.0,0.0,0.0,0.0,0.0,0.0,0.0,0.0,0.0,0.0,0.0,0.0,0.0,0.2331,0.4782,0.668,0.7772,0.6658,0.6521,0.0,0.0,0.0,0.0,0.0,0.0,0.0,0.0,0.0,0.0,0.0,0.0,0.0,0.0,0.0,0.0,0.0,0.0,0.0,0.0,0.0,0.0,0.0,0.0,0.0,0.0,0.0,0.0,0.0,0.0,0.0,0.0,0.0,0.0,0.0,0.0,0.0,0.0,0.0,0.0,0.0,0.0,0.0,0.0,0.0,0.0,0.0,0.0,0.0,0.0,0.0,0.0,0.0,0.0,0.0,0.0,0.0,0.0,0.0,0.0,0.0,0.0,0.0,0.0,0.0,0.0,0.0,0.0,0.0,0.0,0.0,0.0,0.0,0.0,0.0,0.0,0.0,0.0,0.0,0.0,0.0,0.0,0.0,0.0,0.0,0.0,0.0,0.0,0.0,0.0,0.0,0.0,0.0,0.0,0.0,0.0,0.0,0.0,0.0,0.0,0.0,0.0,0.0,0.0,0.0,0.0,0.0,0.0,0.0,0.3477,0.6367,0.7616,0.695,0.7168,0.7164,0.0,0.0,0.0,0.0,0.0,0.0,0.0,0.0,0.0,0.0,0.0,0.0,0.0,0.0,0.0,0.0,0.0,0.0,0.0,0.0,0.0,0.0,0.0,0.0,0.0,0.0,0.0,0.0,0.0,0.0,0.0,0.0,0.0,0.0,0.0,0.0,0.0,0.0,0.0,0.0,0.0,0.0,0.0,0.0,0.0,0.0,0.0,0.0,0.0,0.0,0.0,0.0,0.0,0.0,0.0,0.0,0.0,0.0,0.0,0.0,0.0,0.0,0.0,0.0,0.0,0.0,0.0,0.0,0.0,0.0,0.0,0.0,0.0,0.0,0.0,0.0,0.0,0.0,0.0,0.0,0.0,0.0,0.0,0.0,0.0,0.0,0.0,0.0,0.0,0.0,0.0,0.0,0.0,0.0,0.0,0.0,0.0,0.0,0.0,0.0,0.0,0.0,0.0,0.0,0.0,0.0,0.0,0.0,0.0,0.5095,0.0,0.8035,0.7351,0.771,0.7606,0.0,0.0,0.0,0.0,0.0,0.0,0.0,0.0,0.0,0.0,0.0,0.0,0.0,0.0,0.0,0.0,0.0,0.0,0.0,0.0,0.0,0.0,0.0,0.0,0.0,0.0,0.0,0.0,0.0,0.0,0.0,0.0,0.0,0.0,0.0,0.0,0.0,0.0,0.0,0.0,0.0,0.0,0.0,0.0,0.0,0.0,0.0,0.0,0.0,0.0,0.0,0.0,0.0,0.0,0.0,0.0,0.0,0.0,0.0,0.0,0.0,0.0,0.0,0.0,0.0,0.0,0.0,0.0,0.0,0.0,0.0,0.0,0.0,0.0,0.0,0.0,0.0,0.0,0.0,0.0,0.0,0.0,0.0,0.0,0.0,0.0,0.0,0.0,0.0,0.0,0.0,0.0,0.0,0.0,0.0,0.0,0.0,0.0,0.0,0.0,0.0,0.0,0.0,0.0,0.0,0.0,0.0,0.0,0.5423,0.7057,0.7165,0.7818,0.9188,0.8208,0.7874,0.0,0.0,0.0,0.0,0.0,0.0,0.0,0.0,0.0,0.0,0.0,0.0,0.0,0.0,0.0,0.0,0.0,0.0,0.0,0.0,0.0,0.0,0.0,0.0,0.0,0.0,0.0,0.0,0.0,0.0,0.0,0.0,0.0,0.0,0.0,0.0,0.0,0.0,0.0,0.0,0.0,0.0,0.0,0.0,0.0,0.0,0.0,0.0,0.0,0.0,0.0,0.0,0.0,0.0,0.0,0.0,0.0,0.0,0.0,0.0,0.0,0.0,0.0,0.0,0.0,0.0,0.0,0.0,0.0,0.0,0.0,0.0,0.0,0.0,0.0,0.0,0.0,0.0,0.0,0.0,0.0,0.0,0.0,0.0,0.0,0.0,0.0,0.0,0.0,0.0,0.0,0.0,0.0,0.0,0.0,0.0,0.0,0.0,0.0,0.0,0.0,0.0,0.0,0.0,0.0,0.0,0.0,0.0,0.0,0.6522,0.6522,0.7365,0.9041,0.8504,0.8385,0.0,0.0,0.0,0.0,0.0,0.0,0.0,0.0,0.0,0.0,0.0,0.0,0.0,0.0,0.0,0.0,0.0,0.0,0.0,0.0,0.0,0.0,0.0,0.0,0.0,0.0,0.0,0.0,0.0,0.0,0.0,0.0,0.0,0.0,0.0,0.0,0.0,0.0,0.0,0.0,0.0,0.0,0.0,0.0,0.0,0.0,0.0,0.0,0.0,0.0,0.0,0.0,0.0,0.0,0.0,0.0,0.0,0.0,0.0,0.0,0.0,0.0,0.0,0.0,0.0,0.0,0.0,0.0,0.0,0.0,0.0,0.0,0.0,0.0,0.0,0.0,0.0,0.0,0.0,0.0,0.0,0.0,0.0,0.0,0.0,0.0,0.0,0.0,0.0,0.0,0.0,0.0,0.0,0.0,0.0,0.0,0.0,0.0,0.0,0.0,0.0,0.0,0.0,0.0,0.0,0.0,0.0,0.0,0.0,0.6323,0.7225,0.8183,0.9171,0.9048,0.8825,0.8488,0.0,0.0,0.0,0.0,0.0,0.0,0.0,0.0,0.0,0.0,0.0,0.0,0.0,0.0,0.0,0.0,0.0,0.0,0.0,0.0,0.0,0.0,0.0,0.0,0.0,0.0,0.0,0.0,0.0,0.0,0.0,0.0,0.0,0.0,0.0,0.0,0.0,0.0,0.0,0.0,0.0,0.0,0.0,0.0,0.0,0.0,0.0,0.0,0.0,0.0,0.0,0.0,0.0,0.0,0.0,0.0,0.0,0.0,0.0,0.0,0.0,0.0,0.0,0.0,0.0,0.0,0.0,0.0,0.0,0.0,0.0,0.0,0.0,0.0,0.0,0.0,0.0,0.0,0.0,0.0,0.0,0.0,0.0,0.0,0.0,0.0,0.0,0.0,0.0,0.0,0.0,0.0,0.0,0.0,0.0,0.0,0.0,0.0,0.0,0.0,0.0,0.0,0.0,0.0,0.0,0.0,0.0,0.0,0.636,0.8954,0.9987,0.9387,0.9732,0.9214,0.0,0.0,0.0,0.0,0.0,0.0,0.0,0.0,0.0,0.0,0.0,0.0,0.0,0.0,0.0,0.0,0.0,0.0,0.0,0.0,0.0,0.0,0.0,0.0,0.0,0.0,0.0,0.0,0.0,0.0,0.0,0.0,0.0,0.0,0.0,0.0,0.0,0.0,0.0,0.0,0.0,0.0,0.0,0.0,0.0,0.0,0.0,0.0,0.0,0.0,0.0,0.0,0.0,0.0,0.0,0.0,0.0,0.0,0.0,0.0,0.0,0.0,0.0,0.0,0.0,0.0,0.0,0.0,0.0,0.0,0.0,0.0,0.0,0.0,0.0,0.0,0.0,0.0,0.0,0.0,0.0,0.0,0.0,0.0,0.0,0.0,0.0,0.0,0.0,0.0,0.0,0.0,0.0,0.0,0.0,0.0,0.0,0.0,0.0,0.0,0.0,0.0,0.0,0.0,0.0,0.0,0.0,0.0,0.0,0.7288,0.9488,1.0551,1.0261,0.9611,0.9488,0.0,0.0,0.0,0.0,0.0,0.0,0.0,0.0,0.0,0.0,0.0,0.0,0.0,0.0,0.0,0.0,0.0,0.0,0.0,0.0,0.0,0.0,0.0,0.0,0.0,0.0,0.0,0.0,0.0,0.0,0.0,0.0,0.0,0.0,0.0,0.0,0.0,0.0,0.0,0.0,0.0,0.0,0.0,0.0,0.0,0.0,0.0,0.0,0.0,0.0,0.0,0.0,0.0,0.0,0.0,0.0,0.0,0.0,0.0,0.0,0.0,0.0,0.0,0.0,0.0,0.0,0.0,0.0,0.0,0.0,0.0,0.0,0.0,0.0,0.0,0.0,0.0,0.0,0.0,0.0,0.0,0.0,0.0,0.0,0.0,0.0,0.0,0.0,0.0,0.0,0.0,0.0,0.0,0.0,0.0,0.0,0.0,0.0,0.0,0.0,0.0,0.0,0.0,0.0,0.0,0.0,0.0,0.0,0.5919,0.719,0.9544,1.0734,1.0668,1.0372,1.0111,0.0,0.0,0.0,0.0,0.0,0.0,0.0,0.0,0.0,0.0,0.0,0.0,0.0,0.0,0.0,0.0,0.0,0.0,0.0,0.0,0.0,0.0,0.0,0.0,0.0,0.0,0.0,0.0,0.0,0.0,0.0,0.0,0.0,0.0,0.0,0.0,0.0,0.0,0.0,0.0,0.0,0.0,0.0,0.0,0.0,0.0,0.0,0.0,0.0,0.0,0.0,0.0,0.0,0.0,0.0,0.0,0.0,0.0,0.0,0.0,0.0,0.0,0.0,0.0,0.0,0.0,0.0,0.0,0.0,0.0,0.0,0.0,0.0,0.0,0.0,0.0,0.0,0.0,0.0,0.0,0.0,0.0,0.0,0.0,0.0,0.0,0.0,0.0,0.0,0.0,0.0,0.0,0.0,0.0,0.0,0.0,0.0,0.0,0.0,0.0,0.0,0.0,0.0,0.0,0.0,0.0,0.0,0.0,0.5789,0.6713,0.9361,1.0813,1.0797,1.139,1.0867,0.0,0.0,0.0,0.0,0.0,0.0,0.0,0.0,0.0,0.0,0.0,0.0,0.0,0.0,0.0,0.0,0.0,0.0,0.0,0.0,0.0,0.0,0.0,0.0,0.0,0.0,0.0,0.0,0.0,0.0,0.0,0.0,0.0,0.0,0.0,0.0,0.0,0.0,0.0,0.0,0.0,0.0,0.0,0.0,0.0,0.0,0.0,0.0,0.0,0.0,0.0,0.0,0.0,0.0,0.0,0.0,0.0,0.0,0.0,0.0,0.0,0.0,0.0,0.0,0.0,0.0,0.0,0.0,0.0,0.0,0.0,0.0,0.0,0.0,0.0,0.0,0.0,0.0,0.0,0.0,0.0,0.0,0.0,0.0,0.0,0.0,0.0,0.0,0.0,0.0,0.0,0.0,0.0,0.0,0.0,0.0,0.0,0.0,0.0,0.0,0.0,0.0,0.0,0.0,0.0,0.0,0.0,0.0,0.6415,0.7338,0.9603,1.0813,1.0813,1.0949,1.0894,0.0,0.0,0.0,0.0,0.0,0.0,0.0,0.0,0.0,0.0,0.0,0.0,0.0,0.0,0.0,0.0,0.0,0.0,0.0,0.0,0.0,0.0,0.0,0.0,0.0,0.0,0.0,0.0,0.0,0.0,0.0,0.0,0.0,0.0,0.0,0.0,0.0,0.0,0.0,0.0,0.0,0.0,0.0,0.0,0.0,0.0,0.0,0.0,0.7468,0.0,0.0,0.0,0.0,0.0,0.0,0.0,0.0,0.0,0.0,0.0,0.0,0.0,0.0,0.0,0.0,0.0,0.0,0.0,0.0,0.0,0.0,0.0,0.0,0.0,0.0,0.0,0.0,0.0,0.0,0.0,0.0,0.0,0.0,0.0,0.0,0.0,0.0,0.0,0.0,0.0,0.0,0.0,0.0,0.0,0.0,0.0,0.0,0.0,0.0,0.0,0.0,0.0,0.0,0.0,0.0,0.0,0.0,0.0,0.7241,0.7682,0.9089,1.0163,1.0788,1.0685,1.0767,0.0,0.0,0.0,0.0,0.0,0.0,0.0,0.0,0.0,0.0,0.0,0.0,0.0,0.0,0.0,0.0,0.0,0.0,0.0,0.0,0.0,0.0,0.0,0.0,0.0,0.0,0.0,0.0,0.0,0.0,0.0,0.0,0.0,0.0,0.0,0.0,0.0,0.0,0.0,0.0,0.0,0.0,0.0,0.0,0.0,0.0,0.0,0.0,0.0,0.0,0.0,0.0,0.0,0.0,0.0,0.0,0.0,0.0,0.0,0.0,0.0,0.0,0.0,0.0,0.0,0.0,0.0,0.0,0.0,0.0,0.0,0.0,0.0,0.0,0.0,0.0,0.0,0.0,0.0,0.0,0.0,0.0,0.0,0.0,0.0,0.0,0.0,0.0,0.0,0.0,0.0,0.0,0.0,0.0,0.0,0.0,0.0,0.0,0.0,0.0,0.0,0.0,0.0,0.0,0.0,0.0,0.0,0.7433,0.7748,0.7983,0.8518,0.9424,1.0672,1.0518,1.0544,1.095,0.0,0.0,0.0,0.0,0.0,0.0,0.0,0.0,0.0,0.0,0.0,0.0,0.0,0.0,0.0,0.0,0.0,0.0,0.0,0.0,0.0,0.0,0.0,0.0,0.0,0.0,0.0,0.0,0.0,0.0,0.0,0.0,0.0,0.0,0.0,0.0,0.0,0.0,0.5638,0.6459,0.0,0.0,0.0,0.0,0.0,0.0,0.0,0.0,0.6943,0.0,0.0,0.0,0.0,0.0,0.0,0.0,0.0,0.0,0.0,0.0,0.0,0.0,0.0,0.0,0.0,0.0,0.0,0.0,0.0,0.0,0.0,0.0,0.0,0.0,0.0,0.0,0.0,0.0,0.0,0.0,0.0,0.0,0.0,0.0,0.0,0.0,0.0,0.0,0.0,0.0,0.0,0.0,0.0,0.0,0.0,0.0,0.0,0.0,0.0,0.0,0.0,0.0,0.0,0.0,0.0,0.7426,0.6809,0.7084,0.8277,0.8633,0.9271,1.0222,1.0334,1.0365,1.0413,0.0,0.0,0.0,0.0,0.0,0.0,0.0,0.0,0.0,0.0,0.0,0.0,0.0,0.0,0.0,0.0,0.0,0.0,0.0,0.0,0.0,0.0,0.0,0.0,0.0,0.0,0.0,0.0,0.0,0.0,0.0,0.0,0.0,0.0,0.0,0.0,0.0,0.0,0.0,0.5852,0.6415,0.0,0.0,0.0,0.0,0.0,0.0,0.0,0.0,0.6891,0.0,0.0,0.0,0.0,0.0,0.0,0.0,0.0,0.0,0.0,0.0,0.0,0.0,0.0,0.0,0.0,0.0,0.0,0.0,0.0,0.0,0.0,0.0,0.0,0.0,0.0,0.0,0.0,0.0,0.0,0.0,0.0,0.0,0.0,0.0,0.0,0.0,0.0,0.0,0.0,0.0,0.0,0.0,0.0,0.0,0.0,0.0,0.0,0.0,0.0,0.0,0.0,0.0,0.0,0.0,0.6905,0.6168,0.6597,0.8337,0.8342,0.8776,0.9753,0.9432,0.9444,0.0,0.0,0.0,0.0,0.0,0.0,0.0,0.0,0.0,0.0,0.0,0.0,0.0,0.0,0.0,0.0,0.0,0.0,0.0,0.0,0.0,0.0,0.0,0.0,0.0,0.0,0.0,0.0,0.0,0.0,0.0,0.0,0.0,0.0,0.0,0.0,0.0,0.0,0.0,0.0,0.5884,0.6481,0.5917,0.0,0.0,0.0,0.0,0.0,0.0,0.7333,0.7408,0.0,0.0,0.0,0.0,0.0,0.0,0.0,0.0,0.0,0.0,0.0,0.0,0.0,0.0,0.0,0.0,0.0,0.0,0.0,0.0,0.0,0.0,0.0,0.0,0.0,0.0,0.0,0.0,0.0,0.0,0.0,0.0,0.0,0.0,0.0,0.0,0.0,0.0,0.0,0.0,0.0,0.0,0.0,0.0,0.0,0.0,0.0,0.0,0.0,0.0,0.0,0.0,0.0,0.0,0.0,0.6455,0.5947,0.6475,0.8107,0.8028,0.8313,0.9126,0.8481,0.8479,0.0,0.0,0.0,0.0,0.0,0.0,0.0,0.0,0.0,0.0,0.0,0.0,0.0,0.0,0.0,0.0,0.0,0.0,0.0,0.0,0.0,0.0,0.0,0.0,0.0,0.0,0.0,0.0,0.0,0.0,0.0,0.0,0.0,0.0,0.0,0.0,0.0,0.0,0.0,0.0,0.0,0.6571,0.6003,0.7098,0.0,0.0,0.0,0.0,0.7455,0.7694,0.0,0.0,0.0,0.0,0.0,0.0,0.0,0.0,0.0,0.0,0.0,0.0,0.0,0.0,0.0,0.0,0.0,0.0,0.0,0.0,0.0,0.0,0.0,0.0,0.0,0.0,0.0,0.0,0.0,0.0,0.0,0.0,0.0,0.0,0.0,0.0,0.0,0.0,0.0,0.0,0.0,0.0,0.0,0.0,0.0,0.0,0.0,0.0,0.0,0.0,0.0,0.0,0.0,0.0,0.0,0.0,0.6237,0.6637,0.7058,0.755,0.7814,0.8076,0.8394,0.7788,0.7882,0.0,0.0,0.0,0.0,0.0,0.0,0.0,0.0,0.0,0.0,0.0,0.0,0.0,0.0,0.0,0.0,0.0,0.0,0.0,0.0,0.0,0.0,0.0,0.0,0.0,0.0,0.0,0.0,0.0,0.0,0.0,0.0,0.0,0.0,0.0,0.0,0.0,0.0,0.0,0.0,0.0,0.6391,0.6277,0.6897,0.7511,0.0,0.0,0.7189,0.7131,0.733,0.0,0.0,0.0,0.0,0.0,0.0,0.0,0.0,0.0,0.0,0.0,0.0,0.0,0.0,0.0,0.0,0.0,0.0,0.0,0.0,0.0,0.0,0.0,0.0,0.0,0.0,0.0,0.0,0.0,0.0,0.0,0.0,0.0,0.0,0.0,0.0,0.0,0.0,0.0,0.0,0.0,0.0,0.0,0.0,0.0,0.0,0.0,0.0,0.0,0.0,0.0,0.0,0.0,0.0,0.0,0.5572,0.5884,0.5999,0.6533,0.743,0.7412,0.7557,0.7818,0.7255,0.7402,0.0,0.0,0.0,0.0,0.0,0.0,0.0,0.0,0.0,0.0,0.0,0.0,0.0,0.0,0.0,0.0,0.0,0.0,0.0,0.0,0.0,0.0,0.0,0.0,0.0,0.0,0.0,0.0,0.0,0.0,0.0,0.0,0.0,0.0,0.0,0.0,0.0,0.0,0.0,0.0,0.0,0.0,0.6318,0.7334,0.0,0.0,0.0,0.756,0.747,0.0,0.0,0.0,0.0,0.0,0.0,0.0,0.0,0.0,0.0,0.0,0.0,0.0,0.0,0.0,0.0,0.0,0.0,0.0,0.0,0.0,0.0,0.0,0.0,0.0,0.0,0.0,0.0,0.0,0.0,0.0,0.0,0.0,0.0,0.0,0.0,0.0,0.0,0.0,0.0,0.0,0.0,0.0,0.0,0.0,0.0,0.0,0.0,0.0,0.0,0.0,0.0,0.0,0.0,0.0,0.0,0.0,0.5443,0.5346,0.5877,0.709,0.7077,0.7122,0.7341,0.6957,0.0,0.0,0.0,0.0,0.0,0.0,0.0,0.0,0.0,0.0,0.0,0.0,0.0,0.0,0.0,0.0,0.0,0.0,0.0,0.0,0.0,0.0,0.0,0.0,0.0,0.0,0.0,0.4976,0.0,0.0,0.0,0.0,0.0,0.0,0.0,0.0,0.0,0.0,0.0,0.0,0.0,0.0,0.7205,0.6566,0.7721,0.861,0.0,0.0,0.7983,0.7702,0.8625,0.9111,0.0,0.0,0.0,0.0,0.0,0.0,0.0,0.0,0.0,0.0,0.0,0.0,0.0,0.0,0.0,0.0,0.0,0.0,0.0,0.0,0.0,0.0,0.0,0.0,0.0,0.0,0.0,0.0,0.0,0.0,0.0,0.0,0.0,0.0,0.0,0.0,0.0,0.0,0.0,0.0,0.0,0.0,0.0,0.0,0.0,0.0,0.0,0.0,0.0,0.0,0.0,0.0,0.0,0.0,0.4539,0.4849,0.515,0.5605,0.6269,0.6761,0.7032,0.7012,0.6982,0.7161,0.0,0.0,0.0,0.0,0.0,0.0,0.0,0.0,0.0,0.0,0.0,0.0,0.0,0.0,0.0,0.0,0.0,0.0,0.0,0.0,0.0,0.0,0.0,0.0,0.0,0.0,0.0,0.0,0.0,0.0,0.0,0.0,0.0,0.0,0.0,0.0,0.0,0.0,0.0,0.0,0.0,0.7426,0.7259,0.7845,0.8128,0.0,0.791,0.8107,0.7671,0.8638,0.9064,0.8181,0.0,0.0,0.0,0.0,0.0,0.0,0.0,0.0,0.0,0.0,0.0,0.0,0.0,0.0,0.0,0.0,0.0,0.0,0.0,0.0,0.0,0.0,0.0,0.0,0.0,0.0,0.0,0.0,0.0,0.0,0.0,0.0,0.0,0.0,0.0,0.0,0.0,0.0,0.0,0.0,0.0,0.0,0.0,0.0,0.0,0.0,0.0,0.0,0.0,0.0,0.0,0.0,0.0,0.484,0.4971,0.52,0.5449,0.58,0.6954,0.7325,0.6866,0.7144,0.7482,0.0,0.0,0.0,0.0,0.0,0.0,0.0,0.0,0.0,0.0,0.0,0.0,0.0,0.0,0.0,0.0,0.0,0.0,0.0,0.0,0.0,0.0,0.0,0.0,0.0,0.0,0.0,0.0,0.538,0.5517,0.5798,0.0,0.0,0.0,0.0,0.0,0.0,0.0,0.0,0.0,0.0,0.7445,0.8059,0.8119,0.0,0.0,0.7988,0.8017,0.7666,0.8885,0.9747,0.9366,0.9809,0.0,0.0,0.0,0.0,0.0,0.0,0.0,0.0,0.0,0.0,0.0,0.0,0.0,0.0,0.0,0.0,0.0,0.0,0.0,0.0,0.0,0.0,0.0,0.0,0.0,0.0,0.0,0.0,0.0,0.0,0.0,0.0,0.0,0.0,0.0,0.0,0.0,0.0,0.0,0.0,0.0,0.0,0.0,0.0,0.0,0.0,0.0,0.0,0.0,0.0,0.0,0.0,0.4987,0.4932,0.4822,0.496,0.5372,0.6771,0.7404,0.7248,0.7477,0.7738,0.0,0.0,0.0,0.0,0.0,0.0,0.0,0.0,0.0,0.0,0.0,0.0,0.0,0.0,0.0,0.0,0.0,0.0,0.0,0.0,0.0,0.0,0.0,0.0,0.0,0.0,0.0,0.0,0.5004,0.5326,0.6184,0.0,0.0,0.0,0.0,0.0,0.0,0.0,0.0,0.0,0.0,0.7138,0.8194,0.7956,0.7786,0.8126,0.8038,0.7922,0.7922,0.9205,1.0199,1.0241,0.0,0.0,0.0,0.0,0.0,0.0,0.0,0.0,0.0,0.0,0.0,0.0,0.0,0.0,0.0,0.0,0.0,0.0,0.0,0.0,0.0,0.0,0.0,0.0,0.0,0.0,0.0,0.5367,0.0,0.0,0.5646,0.0,0.0,0.0,0.0,0.0,0.0,0.0,0.0,0.0,0.0,0.0,0.0,0.0,0.0,0.0,0.0,0.0,0.0,0.0,0.0,0.0,0.0,0.4702,0.4497,0.3972,0.4101,0.5001,0.6074,0.7122,0.8078,0.801,0.7875,0.7923,0.0,0.0,0.0,0.0,0.0,0.0,0.0,0.0,0.0,0.0,0.0,0.0,0.0,0.0,0.0,0.0,0.0,0.0,0.0,0.0,0.0,0.0,0.0,0.0,0.0,0.0,0.4085,0.4313,0.4841,0.0,0.0,0.0,0.0,0.0,0.0,0.0,0.0,0.0,0.5621,0.5951,0.6541,0.7458,0.7154,0.7168,0.7972,0.7937,0.8014,0.8545,0.9447,1.0223,0.0,0.0,0.0,0.0,0.0,0.0,0.0,0.0,0.0,0.0,0.0,0.0,0.0,0.0,0.0,0.0,0.0,0.0,0.0,0.0,0.0,0.0,0.0,0.0,0.0,0.0,0.0,0.574,0.5918,0.0,0.0,0.0,0.0,0.0,0.0,0.0,0.0,0.0,0.0,0.0,0.4754,0.5143,0.0,0.0,0.0,0.0,0.0,0.0,0.0,0.0,0.0,0.0,0.0,0.0,0.4558,0.4467,0.3866,0.3885,0.4481,0.5859,0.6941,0.7639,0.8223,0.8424,0.823,0.0,0.0,0.0,0.0,0.0,0.0,0.0,0.0,0.0,0.0,0.0,0.0,0.0,0.0,0.0,0.0,0.0,0.0,0.0,0.0,0.0,0.0,0.0,0.0,0.0,0.3937,0.0,0.0,0.0,0.0,0.0,0.0,0.0,0.0,0.0,0.0,0.0,0.6067,0.6023,0.6145,0.6393,0.67,0.6907,0.7375,0.0,0.0,0.0,0.0,0.0,0.0,0.0,0.0,0.0,0.0,0.0,0.0,0.0,0.0,1.025,0.9504,0.9553,0.9692,0.9686,0.0,0.0,0.0,0.0,0.0,0.0,0.0,0.0,0.0,0.0,0.0,0.0,0.0,0.0,0.5927,0.0,0.5931,0.0,0.0,0.0,0.0,0.0,0.0,0.0,0.0,0.458,0.4626,0.505,0.5096,0.5325,0.0,0.6293,0.6634,0.0,0.0,0.0,0.0,0.0,0.0,0.0,0.0,0.4665,0.4514,0.41,0.4037,0.4324,0.5309,0.6534,0.7817,0.8466,0.8613,0.8165,0.8088,0.8136,0.0,0.0,0.0,0.0,0.0,0.0,0.0,0.0,0.0,0.0,0.0,0.0,0.0,0.0,0.0,0.0,0.0,0.0,0.0,0.0,0.0,0.0,0.0,0.4048,0.0,0.0,0.0,0.0,0.0,0.0,0.0,0.0,0.0,0.6724,0.628,0.595,0.596,0.6011,0.607,0.6224,0.0,0.0,0.0,0.0,0.0,0.0,0.0,0.8473,0.8601,0.9251,0.9584,0.8989,0.861,0.8526,0.8851,0.0,0.0,0.9154,0.9517,0.9739,0.9274,0.9113,0.9105,0.9267,0.9205,0.9051,0.0,0.0,0.0,0.0,0.0,0.0,0.0,0.0,0.5601,0.5441,0.0,0.5453,0.0,0.0,0.0,0.0,0.0,0.7821,0.0,0.0,0.4971,0.4858,0.5441,0.5522,0.5293,0.4985,0.6245,0.6348,0.5547,0.6759,0.0,0.0,0.0,0.0,0.0,0.0,0.4998,0.4542,0.4488,0.4481,0.4512,0.4515,0.5842,0.854,0.8711,0.8368,0.7717,0.8107,0.8473,0.8738,0.822,0.0,0.0,0.0,0.0,0.0,0.0,0.0,0.0,0.0,0.0,0.0,0.0,0.0,0.0,0.0,0.0,0.0,0.0,0.0,0.0,0.3905,0.0,0.0,0.0,0.0,0.0,0.0,0.0,0.0,0.0,0.0,0.4716,0.5462,0.5853,0.538,0.0,0.0,0.0,0.0,0.6836,0.7032,0.7279,0.7469,0.7539,0.8134,0.8805,0.9416,0.0,0.0,0.8514,0.8143,0.7963,0.7915,0.8272,0.8538,0.8932,0.9502,0.9636,0.882,0.8697,0.8602,0.8433,0.8466,0.8341,0.4903,0.0,0.0,0.0,0.0,0.47,0.5081,0.5628,0.5481,0.5385,0.5407,0.5409,0.0,0.0,0.0,0.0,0.0,0.0,0.5443,0.4991,0.4645,0.5467,0.7259,0.7264,0.6578,0.531,0.6415,0.6565,0.5739,0.5911,0.6306,0.683,0.0,0.0,0.0,0.0,0.4726,0.4558,0.452,0.4508,0.4463,0.4477,0.535,0.7177,0.7252,0.7128,0.6912,0.7541,0.8062,0.8373,0.8488,0.0,0.0,0.0,0.0,0.0,0.0,0.0,0.0,0.0,0.0,0.0,0.0,0.0,0.0,0.0,0.0,0.0,0.0,0.0,0.4111,0.4443,0.4843,0.0,0.0,0.0,0.0,0.0,0.0,0.0,0.0,0.0,0.5182,0.5215,0.5447,0.0,0.0,0.5515,0.653,0.6474,0.6632,0.7518,0.7715,0.0,0.8106,0.8111,0.8164,0.8357,0.8497,0.857,0.8427,0.8477,0.8557,0.855,0.8617,0.8592,0.8191,0.8673,0.9008,0.8769,0.8752,0.8772,0.8673,0.8704,0.8626,0.5718,0.5206,0.5233,0.5128,0.4861,0.4866,0.5218,0.5766,0.5768,0.5668,0.5586,0.5571,0.5603,0.5704,0.6895,0.0,0.0,0.0,0.4832,0.4852,0.4871,0.5669,0.7085,0.7692,0.744,0.6451,0.6451,0.6152,0.5634,0.5466,0.5668,0.6126,0.0,0.0,0.5517,0.5081,0.4864,0.4707,0.4565,0.4467,0.4464,0.4492,0.4957,0.5827,0.6365,0.6514,0.6327,0.7324,0.7929,0.7921,0.8389,0.8354,0.0,0.0,0.0,0.0,0.0,0.0,0.0,0.0,0.0,0.0,0.0,0.4179,0.3685,0.0,0.0,0.0,0.3791,0.3997,0.4603,0.4948,0.0,0.0,0.0,0.0,0.0,0.0,0.0,0.5899,0.5925,0.5752,0.5116,0.493,0.4944,0.5318,0.5229,0.5513,0.6653,0.0,0.6913,0.7878,0.7935,0.7963,0.8056,0.8096,0.8143,0.8263,0.8417,0.8537,0.8557,0.8697,0.8692,0.8421,0.8368,0.8156,0.7396,0.7836,0.8268,0.8374,0.8593,0.8804,0.8804,0.8804,0.8804,0.6838,0.6375,0.6007,0.5672,0.5411,0.5075,0.5444,0.6282,0.6368,0.6158,0.5854,0.5827,0.5713,0.5425,0.5481,0.0,0.5451,0.5448,0.5443,0.546,0.5406,0.56,0.6022,0.7249,0.791,0.7969,0.6299,0.5508,0.5432,0.5415,0.5397,0.5375,0.5355,0.5485,0.5715,0.5514,0.5229,0.4854,0.4624,0.4521,0.454,0.4569,0.4616,0.4766,0.5853,0.6235,0.5789,0.7167,0.7835,0.7469,0.8029,0.7903,0.7082,0.0,0.0,0.0,0.0,0.0,0.0,0.0,0.0,0.0,0.0,0.0,0.0,0.0,0.0,0.0,0.4548,0.0,0.5037,0.5342,0.0,0.0,0.0,0.5986,0.6201,0.6102,0.5862,0.5629,0.0,0.0,0.4632,0.4599,0.4608,0.4484,0.4897,0.558,0.6516,0.6883,0.7428,0.7879,0.7937,0.7762,0.7724,0.8069,0.8499,0.8725,0.8838,0.8778,0.8831,0.8811,0.854,0.7883,0.7723,0.745,0.6642,0.6966,0.7348,0.7503,0.8209,0.8804,0.8804,0.8804,0.8804,0.7042,0.6867,0.6394,0.613,0.6022,0.5536,0.5662,0.6363,0.6734,0.6794,0.6461,0.6307,0.6016,0.5688,0.5937,0.6108,0.6115,0.6111,0.6075,0.608,0.5641,0.6082,0.7189,0.6863,0.7176,0.7907,0.7108,0.6248,0.5432,0.5425,0.5417,0.5413,0.5107,0.5008,0.5035,0.5117,0.5009,0.4689,0.4727,0.4922,0.5161,0.5186,0.5044,0.4863,0.5124,0.524,0.516,0.6045,0.6574,0.6679,0.7326,0.7648,0.7555,0.7947,0.0,0.0,0.0,0.0,0.0,0.0,0.0,0.0,0.0,0.4971,0.4813,0.0,0.4688,0.0,0.519,0.5244,0.5218,0.5534,0.0,0.0,0.6294,0.6335,0.6565,0.6156,0.5723,0.5416,0.5243,0.4974,0.4458,0.4663,0.4963,0.5128,0.4962,0.5128,0.5967,0.6154,0.642,0.6905,0.7215,0.7381,0.7646,0.8251,0.877,0.9077,0.8954,0.8886,0.907,0.8951,0.854,0.7889,0.767,0.7176,0.6036,0.6308,0.6529,0.6303,0.7498,0.8804,0.8804,0.8804,0.8804,0.7138,0.7104,0.6816,0.6629,0.6603,0.6034,0.6106,0.6671,0.6941,0.7033,0.6829,0.6434,0.62,0.604,0.6208,0.6256,0.6252,0.6268,0.6275,0.6288,0.5959,0.625,0.7013,0.6552,0.6653,0.7225,0.6698,0.6084,0.5471,0.5385,0.5437,0.5413,0.5009,0.4898,0.5044,0.5,0.4983,0.4952,0.5099,0.5232,0.5535,0.5477,0.5244,0.4979,0.4841,0.4834,0.4896,0.5559,0.5917,0.5884,0.656,0.6894,0.6724,0.6922,0.699,0.0,0.0,0.0,0.0,0.0,0.0,0.0,0.0,0.0,0.0,0.0,0.5258,0.5174,0.5489,0.5605,0.533,0.5685,0.6054,0.6229,0.6197,0.6248,0.6262,0.6009,0.5739,0.5519,0.5378,0.5264,0.5031,0.5061,0.5202,0.5356,0.5147,0.5225,0.578,0.5955,0.6132,0.6716,0.6983,0.7156,0.7417,0.8184,0.8652,0.8338,0.8357,0.8341,0.8211,0.8003,0.7563,0.6902,0.674,0.6357,0.5328,0.5386,0.5605,0.5814,0.6303,0.7283,0.8533,0.8804,0.8699,0.7155,0.7114,0.7126,0.7102,0.7063,0.6645,0.6658,0.7125,0.7077,0.7084,0.7097,0.6615,0.6379,0.6354,0.6394,0.6337,0.6324,0.6291,0.6325,0.637,0.6301,0.6284,0.6359,0.6335,0.6307,0.6289,0.5925,0.5704,0.5481,0.5451,0.5429,0.5424,0.5136,0.5135,0.5315,0.5029,0.5002,0.54,0.542,0.5525,0.5721,0.5487,0.5331,0.5125,0.484,0.4752,0.4916,0.547,0.5584,0.5158,0.5814,0.5982,0.5478,0.564,0.5631,0.0,0.6666,0.0,0.0,0.0,0.0,0.0,0.0,0.0,0.0,0.6055,0.586,0.5047,0.5606,0.583,0.5452,0.5888,0.6113,0.6069,0.6003,0.5976,0.5813,0.5813,0.5766,0.5744,0.562,0.5669,0.5655,0.5535,0.5425,0.5418,0.5428,0.5524,0.5864,0.5908,0.6136,0.6787,0.6903,0.6759,0.7014,0.7728,0.8007,0.7355,0.7331,0.7427,0.7135,0.686,0.648,0.5835,0.5669,0.5368,0.4657,0.4536,0.4842,0.5492,0.5167,0.5664,0.8008,0.8427,0.8037,0.714,0.7085,0.7086,0.7125,0.7088,0.7031,0.6984,0.7099,0.7071,0.7097,0.7104,0.6987,0.682,0.6615,0.684,0.674,0.6318,0.6292,0.6433,0.658,0.6378,0.6374,0.6576,0.6603,0.6555,0.6304,0.6266,0.6108,0.5908,0.5565,0.552,0.5755,0.5888,0.5943,0.5702,0.0,0.0,0.0,0.5592,0.5761,0.592,0.5574,0.5459,0.5524,0.5347,0.0,0.5065,0.5207,0.5221,0.5104,0.5284,0.0,0.0,0.0,0.0,0.0,0.0,0.0,0.0,0.0,0.0,0.0,0.6515,0.6289,0.6355,0.6431,0.6079,0.5298,0.5666,0.594,0.5909,0.5954,0.611,0.6259,0.6094,0.5959,0.5979,0.5881,0.5766,0.5674,0.562,0.5549,0.5528,0.5449,0.5432,0.5452,0.5467,0.559,0.5666,0.5606,0.5603,0.5726,0.583,0.5921,0.6287,0.6273,0.6557,0.6996,0.6445,0.6336,0.7077,0.7026,0.6639,0.6002,0.5822,0.549,0.4805,0.4604,0.457,0.4736,0.4625,0.5352,0.8105,0.7543,0.6455,0.7563,0.7594,0.7516,0.7349,0.0,0.7101,0.7118,0.7139,0.7139,0.7231,0.7323,0.7159,0.7034,0.6934,0.7055,0.6986,0.6723,0.6736,0.6785,0.6874,0.6776,0.6689,0.6702,0.678,0.6658,0.6287,0.6363,0.6287,0.6005,0.5912,0.5838,0.5765,0.6131,0.6202,0.605,0.5755,0.5531,0.5434,0.5672,0.5867,0.6008,0.5863,0.5773,0.569,0.5535,0.0,0.0,0.0,0.0,0.0,0.0,0.0,0.0,0.565,0.0,0.5812,0.5982,0.6194,0.6466,0.6432,0.66,0.6992,0.6707,0.6488,0.6542,0.6455,0.6252,0.5885,0.6019,0.6127,0.6125,0.6142,0.6176,0.6325,0.619,0.6142,0.6135,0.6074,0.6013,0.6033,0.5867,0.5776,0.5631,0.5547,0.5583,0.5583,0.5713,0.5765,0.5681,0.5569,0.5454,0.5379,0.5428,0.5529,0.5719,0.5625,0.5536,0.6149,0.5788,0.5605,0.6186,0.6044,0.5727,0.5435,0.5338,0.51,0.4759,0.4567,0.4463,0.4463,0.4463,0.4853,0.6425,0.6268,0.5905,0.798,0.797,0.8037,0.7754,0.7257,0.7109,0.7111,0.7091,0.0,0.0,0.0,0.7358,0.7202,0.7106,0.7129,0.7097,0.7087,0.7109,0.7126,0.7129,0.7083,0.6987,0.6787,0.6997,0.6908,0.6475,0.6549,0.6413,0.6159,0.6278,0.6177,0.5964,0.6184,0.6315,0.6254,0.6261,0.6074,0.5718,0.5864,0.5974,0.6098,0.6208,0.6126,0.5862,0.5642,0.5567,0.5506,0.5465,0.5468,0.5535,0.5567,0.5668,0.5909,0.5852,0.5812,0.5873,0.6213,0.6463,0.6695,0.6567,0.6649,0.6865,0.6773,0.6694,0.6594,0.6483,0.6315,0.6268,0.6285,0.6288,0.6261,0.6261,0.6261,0.6261,0.6261,0.6257,0.6257,0.6261,0.6311,0.6217,0.6088,0.5939,0.5815,0.5785,0.58,0.5875,0.5964,0.5992,0.582,0.5691,0.5538,0.544,0.5393,0.5425,0.5425,0.5422,0.5428,0.5477,0.5315,0.5176,0.5138,0.4982,0.484,0.4984,0.4826,0.4828,0.4687,0.4663,0.4611,0.4567,0.458,0.4587,0.4619,0.5124,0.5534,0.7994,0.797,0.8035,0.7966,0.7828,0.7287,0.7077,0.7148,0.7151,0.7259,0.7566,0.7777,0.7643,0.7079,0.7103,0.7121,0.7115,0.7146,0.7082,0.7078,0.7102,0.7099,0.7082,0.7102,0.7027,0.6963,0.6865,0.6689,0.6624,0.6371,0.6228,0.6261,0.6245,0.6277,0.6268,0.6261,0.623,0.6239,0.62,0.6222,0.6243,0.6283,0.6194,0.6065,0.5851,0.5683,0.5602,0.5642,0.5766,0.5723,0.5853,0.6053,0.6328,0.6033,0.5915,0.6234,0.6445,0.6654,0.6713,0.6719,0.6664,0.6722,0.6712,0.6617,0.6517,0.663,0.6536,0.6298,0.6448,0.639,0.6359,0.6261,0.6261,0.6261,0.6261,0.6261,0.6261,0.6257,0.6217,0.6101,0.6047,0.5986,0.5818,0.5837,0.5906,0.6129,0.6082,0.5996,0.5945,0.5762,0.5603,0.5545,0.5443,0.5439,0.5428,0.5428,0.5428,0.5428,0.5342,0.5308,0.5308,0.5179,0.5101,0.5226,0.5121,0.5047,0.4999,0.5003,0.4927,0.4711,0.4735,0.4792,0.468,0.478,0.4746,0.8038,0.8031,0.7963,0.7986,0.7994,0.7389,0.7306,0.7598,0.758,0.7705,0.7806,0.7991,0.7841,0.76,0.7563,0.7399,0.7108,0.7148,0.7218,0.7373,0.7217,0.7094,0.7068,0.7091,0.7155,0.7114,0.6929,0.6763,0.6712,0.6443,0.6407,0.6508,0.6351,0.6275,0.6294,0.6298,0.6261,0.6261,0.6266,0.6304,0.6301,0.6321,0.625,0.6173,0.6173,0.6187,0.6117,0.6184,0.6263,0.6263,0.6328,0.6431,0.6561,0.6408,0.6387,0.6602,0.6785,0.6909,0.6908,0.6895,0.6939,0.6939,0.6939,0.6878,0.6732,0.6705,0.6644,0.6512,0.6488,0.6444,0.6297,0.6305,0.6261,0.6261,0.6261,0.6261,0.6261,0.6261,0.623,0.6166,0.6156,0.6129,0.6057,0.6051,0.6129,0.6289,0.6197,0.6125,0.604,0.5847,0.5674,0.5596,0.5464,0.5439,0.5428,0.5428,0.5428,0.5428,0.5428,0.5428,0.5425,0.5287,0.526,0.523,0.5155,0.5081,0.504,0.5043,0.4955,0.4813,0.4877,0.4911,0.4834,0.4667,0.4652,0.8038,0.8038,0.8038,0.7953,0.8004,0.7535,0.7583,0.7956,0.7997,0.7966,0.7949,0.8041,0.7959,0.8042,0.8006,0.7746,0.7335,0.73,0.7389,0.7563,0.7356,0.7198,0.708,0.7185,0.7258,0.7222,0.7027,0.688,0.6861,0.6645,0.6609,0.6739,0.6597,0.6441,0.6354,0.6413,0.6359,0.6359,0.6325,0.6295,0.6261,0.6261,0.6352,0.6315,0.6376,0.6454,0.6522,0.6637,0.6715,0.6749,0.6787,0.6807,0.6807,0.6807,0.6807,0.6891,0.6979,0.7112,0.7146,0.7078,0.7139,0.7139,0.7146,0.7014,0.6903,0.6881,0.6773,0.6705,0.6627,0.6569,0.6438,0.6354,0.6359,0.6359,0.6339,0.6431,0.6356,0.6305,0.6376,0.6332,0.6305,0.6268,0.6291,0.6278,0.6247,0.6318,0.6261,0.621,0.6091,0.5949,0.581,0.5688,0.5508,0.5439,0.5432,0.5413,0.5426,0.542,0.545,0.5464,0.5447,0.542,0.5352,0.5243,0.5172,0.5135,0.5053,0.5084,0.5057,0.4925,0.502,0.515,0.5027,0.4843,0.48,0.8038,0.8038,0.8038,0.7953,0.8035,0.794,0.7913,0.8018,0.7953,0.8018,0.8007,0.8001,0.7997,0.7997,0.7962,0.799,0.788,0.7935,0.7785,0.7701,0.7858,0.7588,0.7214,0.7399,0.7574,0.7524,0.7228,0.7115,0.7265,0.7146,0.7031,0.7079,0.7014,0.685,0.6592,0.6658,0.6658,0.6654,0.6438,0.6307,0.6268,0.6261,0.6322,0.6527,0.6342,0.6407,0.6668,0.6695,0.677,0.6902,0.6957,0.7037,0.7034,0.7037,0.7041,0.7034,0.7105,0.7109,0.7119,0.7132,0.7143,0.7143,0.7071,0.6986,0.6966,0.6962,0.6927,0.6807,0.682,0.681,0.6698,0.6654,0.6627,0.6593,0.6556,0.6563,0.6586,0.6424,0.6359,0.6637,0.6424,0.6305,0.6321,0.6335,0.6261,0.6261,0.6261,0.6244,0.6186,0.6078,0.5973,0.5898,0.5644,0.5473,0.5396,0.5381,0.5421,0.5566,0.5594,0.5584,0.5579,0.5545,0.5518,0.5379,0.5318,0.536,0.5298,0.5391,0.5329,0.5138,0.5192,0.5377,0.527,0.5101,0.4887,0.8038,0.8038,0.8038,0.8004,0.7963,0.8018,0.8004,0.7957,0.8011,0.8038,0.8038,0.8038,0.8038,0.8035,0.7974,0.795,0.8034,0.7994,0.7973,0.7834,0.7977,0.79,0.7634,0.76,0.766,0.7798,0.7509,0.7366,0.736,0.7231,0.7136,0.7078,0.7118,0.7034,0.6925,0.677,0.6646,0.6636,0.641,0.627,0.6299,0.6291,0.6388,0.6593,0.6641,0.6625,0.6827,0.6915,0.6997,0.6981,0.7051,0.6447,0.5095,0.6364,0.7098,0.7094,0.7088,0.7081,0.7081,0.7081,0.7081,0.7084,0.7091,0.6545,0.5184,0.5008,0.5502,0.6757,0.6976,0.7015,0.6851,0.6776,0.6685,0.66,0.6607,0.663,0.6563,0.6542,0.658,0.6671,0.6515,0.6403,0.6437,0.6349,0.6268,0.6261,0.6261,0.6244,0.6146,0.6067,0.5996,0.5898,0.5725,0.5599,0.5532,0.5579,0.5596,0.5528,0.5576,0.5633,0.563,0.562,0.5665,0.5504,0.5416,0.5432,0.5415,0.5428,0.5401,0.5277,0.5284,0.5428,0.5428,0.5267,0.5125,0.8032,0.7999,0.7959,0.8038,0.8038,0.8038,0.8038,0.8038,0.8038,0.8038,0.8038,0.8038,0.8038,0.8038,0.8038,0.8038,0.8024,0.8028,0.8034,0.8011,0.8014,0.7952,0.8,0.7856,0.7798,0.7956,0.7763,0.759,0.7356,0.7171,0.6457,0.5412,0.5161,0.5192,0.5234,0.604,0.6433,0.5899,0.6226,0.6226,0.5718,0.6207,0.6261,0.5829,0.6411,0.6833,0.691,0.6967,0.7027,0.7088,0.7094,0.637,0.4743,0.5015,0.5468,0.6097,0.6189,0.6189,0.6189,0.61,0.61,0.6189,0.6649,0.6379,0.4835,0.3937,0.4663,0.6649,0.6577,0.5889,0.5231,0.6215,0.6803,0.6688,0.6729,0.6705,0.6692,0.6729,0.6756,0.6793,0.6664,0.6536,0.6603,0.6458,0.6393,0.6339,0.6322,0.6264,0.6132,0.6098,0.6057,0.5949,0.5928,0.5847,0.5698,0.5661,0.5664,0.5633,0.5688,0.5749,0.5691,0.5711,0.5647,0.5549,0.544,0.5372,0.5428,0.5428,0.5428,0.5428,0.5428,0.5428,0.5428,0.5328,0.5274,0.7959,0.8028,0.7999,0.8038,0.8038,0.8038,0.8038,0.8038,0.8038,0.8038,0.8038,0.8038,0.8038,0.8038,0.8038,0.8038,0.8038,0.8024,0.8021,0.8035,0.8011,0.8041,0.8025,0.795,0.794,0.8014,0.7928,0.7472,0.6865,0.7036,0.4788,0.0734,-0.0,-0.0,-0.0,0.4714,0.5894,0.4522,0.5695,0.5874,0.4253,0.5877,0.5553,0.3888,0.5447,0.6642,0.7027,0.6857,0.6853,0.7094,0.7128,0.6956,0.6406,0.2778,0.161,0.3398,0.3753,0.3755,0.376,0.376,0.3757,0.4024,0.5394,0.6767,0.5852,0.4318,0.4234,0.6703,0.4768,0.295,0.1599,0.416,0.6571,0.6997,0.6767,0.6764,0.7001,0.684,0.6939,0.7017,0.6858,0.6695,0.6599,0.6605,0.6583,0.6408,0.6454,0.6396,0.6264,0.6234,0.622,0.6213,0.6186,0.6132,0.5881,0.5791,0.5802,0.5825,0.5844,0.5973,0.5922,0.5847,0.5725,0.5596,0.5491,0.542,0.5446,0.5428,0.5428,0.5428,0.5428,0.5428,0.5428,0.5233,0.5206,0.8156,0.8016,0.7962,0.8038,0.8038,0.8038,0.8038,0.8038,0.8038,0.8038,0.8038,0.8038,0.8038,0.8038,0.8038,0.8038,0.8038,0.8038,0.8038,0.8038,0.8038,0.8011,0.7974,0.8031,0.8038,0.7991,0.7994,0.6028,0.3191,0.5504,0.4663,-0.0,-0.0,-0.0,-0.0,0.1612,0.3499,0.5387,0.3918,0.2852,0.3406,0.2942,0.2753,0.3374,0.2724,0.3963,0.7009,0.5598,0.5424,0.7032,0.7131,0.5694,0.2838,0.0914,0.0365,0.1187,0.1278,0.1285,0.1298,0.1287,0.1278,0.1368,0.1988,-0.0,0.2425,0.1798,0.1709,-0.0,-0.0,0.0718,-0.0,0.1609,0.3824,0.6268,0.5722,0.5357,0.6521,0.6964,0.7011,0.7037,0.6983,0.6919,0.6756,0.6881,0.6808,0.6508,0.6474,0.6417,0.6305,0.6261,0.6278,0.6261,0.6257,0.6227,0.6139,0.5959,0.5935,0.5875,0.5925,0.5989,0.5979,0.604,0.5966,0.5755,0.5616,0.5538,0.5497,0.5428,0.5428,0.5428,0.5428,0.5428,0.5428,0.5281,0.5287,0.8173,0.7968,0.7975,0.8038,0.8038,0.8038,0.8038,0.8038,0.8038,0.8038,0.8038,0.8038,0.8038,0.8038,0.8038,0.8038,0.8038,0.8038,0.8038,0.8038,0.7949,0.7952,0.7955,0.7972,0.7979,0.7979,0.7995,0.5207,0.0888,0.3184,0.3041,-0.0,-0.0,-0.0,-0.0,-0.0,0.181,0.3694,0.1527,0.0899,0.207,0.0814,0.0726,0.1909,0.082,0.1451,0.4759,0.475,0.4574,0.4777,0.4836,0.3304,-0.0,-0.0,-0.0,-0.0,-0.0,-0.0,-0.0,-0.0,-0.0,-0.0,-0.0,-0.0,-0.0,-0.0,-0.0,-0.0,-0.0,-0.0,-0.0,-0.0,-0.0,0.4232,0.408,0.409,0.5468,0.5871,0.5905,0.5991,0.6646,0.6897,0.6905,0.7048,0.6881,0.6641,0.6617,0.6552,0.6403,0.6386,0.6352,0.6291,0.639,0.6379,0.624,0.6159,0.6059,0.6081,0.5979,0.6027,0.6084,0.6162,0.6122,0.5922,0.5742,0.5648,0.5531,0.5456,0.5435,0.5439,0.5428,0.5428,0.5428,0.5428,0.5425,0.804,0.7978,0.7955,0.8038,0.8038,0.8038,0.8038,0.8038,0.8038,0.8038,0.8038,0.8038,0.8038,0.8038,0.8041,0.8041,0.8041,0.8045,0.8045,0.8045,0.7965,0.7972,0.7972,0.7369,0.7068,0.7172,0.7598,0.4949,0.0302,-0.0,-0.0,-0.0,-0.0,-0.0,-0.0,-0.0,-0.0,-0.0,-0.0,-0.0,-0.0,-0.0,-0.0,-0.0,-0.0,-0.0,-0.0,0.4332,0.443,-0.0,-0.0,-0.0,-0.0,-0.0,-0.0,-0.0,-0.0,-0.0,-0.0,-0.0,-0.0,-0.0,-0.0,-0.0,-0.0,-0.0,-0.0,-0.0,-0.0,-0.0,-0.0,-0.0,-0.0,0.0359,0.2057,0.3215,0.3489,0.3575,0.3571,0.384,0.5087,0.6729,0.69,0.6946,0.695,0.6912,0.6868,0.679,0.659,0.6586,0.6542,0.6424,0.6413,0.6447,0.6356,0.6345,0.6345,0.6244,0.6129,0.6088,0.6139,0.6276,0.6129,0.5956,0.5803,0.5647,0.5559,0.5491,0.5531,0.5525,0.5487,0.5476,0.5416,0.5426,0.5452,0.8425,0.7997,0.8022,0.8038,0.8038,0.8038,0.8038,0.8038,0.8038,0.8038,0.8038,0.8038,0.8038,0.8041,0.7952,0.7962,0.7965,0.7969,0.7969,0.7862,0.7975,0.7989,0.7372,0.4225,0.2516,0.2514,0.2489,-0.0,-0.0,-0.0,-0.0,-0.0,-0.0,-0.0,-0.0,-0.0,-0.0,-0.0,-0.0,-0.0,-0.0,-0.0,-0.0,-0.0,-0.0,-0.0,-0.0,0.1498,0.1498,-0.0,-0.0,-0.0,-0.0,-0.0,-0.0,-0.0,-0.0,-0.0,-0.0,-0.0,-0.0,-0.0,-0.0,-0.0,-0.0,-0.0,-0.0,-0.0,-0.0,-0.0,-0.0,-0.0,-0.0,-0.0,0.0718,-0.0,-0.0,-0.0,0.1165,0.1165,0.179,0.2147,0.2955,0.4387,0.6665,0.6987,0.6946,0.6861,0.6725,0.6709,0.6797,0.6831,0.6759,0.6607,0.6522,0.6437,0.6396,0.6342,0.6234,0.6149,0.6193,0.6283,0.6129,0.6017,0.5861,0.5749,0.5661,0.5596,0.5562,0.5596,0.5613,0.5586,0.5538,0.5501,0.5538,0.8516,0.7988,0.7955,0.7998,0.7994,0.7994,0.7991,0.7985,0.8042,0.8022,0.8019,0.7965,0.8045,0.7949,0.7959,0.7962,0.7965,0.7982,0.6956,0.5732,0.7481,0.7902,0.7284,0.2517,-0.0,-0.0,-0.0,-0.0,-0.0,-0.0,-0.0,-0.0,-0.0,-0.0,-0.0,-0.0,-0.0,-0.0,-0.0,-0.0,-0.0,-0.0,-0.0,-0.0,-0.0,-0.0,-0.0,-0.0,-0.0,-0.0,-0.0,-0.0,-0.0,-0.0,-0.0,-0.0,-0.0,-0.0,-0.0,-0.0,-0.0,-0.0,-0.0,-0.0,-0.0,-0.0,-0.0,-0.0,-0.0,-0.0,-0.0,-0.0,-0.0,-0.0,-0.0,-0.0,-0.0,-0.0,-0.0,-0.0,-0.0,-0.0,-0.0,0.2057,0.5343,0.6427,0.7027,0.7,0.6892,0.6875,0.6976,0.701,0.6875,0.6759,0.6695,0.6617,0.6536,0.6437,0.6329,0.6257,0.624,0.624,0.6193,0.6071,0.5928,0.585,0.5766,0.5677,0.5703,0.5708,0.5786,0.5718,0.565,0.5606,0.5624,0.8612,0.8037,0.8107,0.8135,0.8135,0.8131,0.8122,0.8122,0.8123,0.8077,0.8051,0.7107,0.7466,0.7882,0.7992,0.7989,0.7969,0.7915,0.5262,0.3024,0.4643,0.6687,0.5866,0.2018,-0.0,-0.0,-0.0,-0.0,-0.0,-0.0,-0.0,-0.0,-0.0,-0.0,-0.0,-0.0,-0.0,-0.0,-0.0,-0.0,-0.0,-0.0,-0.0,-0.0,-0.0,-0.0,-0.0,-0.0,-0.0,-0.0,-0.0,-0.0,-0.0,-0.0,-0.0,-0.0,-0.0,-0.0,-0.0,-0.0,-0.0,-0.0,-0.0,-0.0,-0.0,-0.0,-0.0,-0.0,-0.0,-0.0,-0.0,-0.0,-0.0,-0.0,-0.0,-0.0,-0.0,-0.0,-0.0,-0.0,-0.0,-0.0,-0.0,-0.0,0.2412,0.4912,0.6248,0.6489,0.7014,0.7044,0.7024,0.6993,0.6953,0.6922,0.6865,0.6773,0.6695,0.663,0.6495,0.6376,0.6288,0.6264,0.6254,0.6132,0.604,0.5959,0.5911,0.5854,0.583,0.5891,0.5895,0.5823,0.5776,0.5806,0.5672,0.8766,0.8626,0.8701,0.8696,0.8696,0.8696,0.8699,0.8696,0.8664,0.8442,0.7348,0.3799,0.4596,0.7728,0.7932,0.8044,0.7638,0.7766,0.5165,0.0821,0.1217,0.2121,0.2019,-0.0,-0.0,-0.0,-0.0,-0.0,-0.0,-0.0,-0.0,-0.0,-0.0,-0.0,-0.0,-0.0,-0.0,-0.0,-0.0,-0.0,-0.0,-0.0,-0.0,-0.0,-0.0,-0.0,-0.0,-0.0,-0.0,-0.0,-0.0,-0.0,-0.0,-0.0,-0.0,-0.0,-0.0,-0.0,-0.0,-0.0,-0.0,-0.0,-0.0,-0.0,-0.0,-0.0,-0.0,-0.0,-0.0,-0.0,-0.0,-0.0,-0.0,-0.0,-0.0,-0.0,-0.0,-0.0,-0.0,-0.0,-0.0,-0.0,-0.0,-0.0,-0.0,-0.0,0.3573,0.4999,0.5711,0.7153,0.7014,0.7105,0.7082,0.7068,0.7024,0.6932,0.6865,0.6827,0.6688,0.6498,0.6383,0.6278,0.6261,0.621,0.6169,0.6098,0.6135,0.6135,0.6129,0.6067,0.6084,0.6047,0.5949,0.595,0.5744,0.9174,0.8923,0.8903,0.8911,0.8911,0.8908,0.8911,0.8901,0.8852,0.8731,0.718,0.241,0.3019,0.7571,0.5654,0.4601,0.4607,0.4584,0.2905,-0.0,-0.0,-0.0,-0.0,-0.0,-0.0,-0.0,-0.0,-0.0,-0.0,-0.0,-0.0,-0.0,-0.0,-0.0,-0.0,-0.0,-0.0,-0.0,-0.0,-0.0,-0.0,-0.0,-0.0,-0.0,-0.0,-0.0,-0.0,-0.0,-0.0,-0.0,-0.0,-0.0,-0.0,-0.0,-0.0,-0.0,-0.0,-0.0,-0.0,-0.0,-0.0,-0.0,-0.0,-0.0,-0.0,-0.0,-0.0,-0.0,-0.0,-0.0,-0.0,-0.0,-0.0,-0.0,-0.0,-0.0,-0.0,-0.0,-0.0,-0.0,-0.0,-0.0,-0.0,-0.0,-0.0,-0.0,-0.0,0.2499,0.3568,0.5542,0.7081,0.7068,0.7143,0.7115,0.7102,0.7034,0.6956,0.6926,0.6837,0.6647,0.6505,0.6359,0.6308,0.6295,0.6274,0.6261,0.6261,0.6261,0.6234,0.621,0.6261,0.6294,0.6163,0.6074,0.5861,0.8444,0.7964,0.7939,0.8335,0.8788,0.8893,0.8295,0.7829,0.7393,0.7468,0.6342,0.2143,0.2446,0.6864,-0.0,-0.0,-0.0,-0.0,-0.0,-0.0,-0.0,-0.0,-0.0,-0.0,-0.0,-0.0,-0.0,-0.0,-0.0,-0.0,-0.0,-0.0,-0.0,-0.0,-0.0,-0.0,-0.0,-0.0,-0.0,-0.0,-0.0,-0.0,-0.0,-0.0,-0.0,-0.0,-0.0,-0.0,-0.0,-0.0,-0.0,-0.0,-0.0,-0.0,-0.0,-0.0,-0.0,-0.0,-0.0,-0.0,-0.0,-0.0,-0.0,-0.0,-0.0,-0.0,-0.0,-0.0,-0.0,-0.0,-0.0,-0.0,-0.0,-0.0,-0.0,-0.0,-0.0,-0.0,-0.0,-0.0,-0.0,-0.0,-0.0,-0.0,-0.0,-0.0,-0.0,-0.0,-0.0,0.4123,0.583,0.7084,0.7068,0.7139,0.7136,0.7126,0.7054,0.6993,0.6919,0.6783,0.6647,0.6515,0.6413,0.6373,0.643,0.6373,0.6342,0.6268,0.6308,0.6295,0.6386,0.6318,0.6301,0.6242,0.6092,0.2013,0.1895,0.1865,0.4639,0.8499,0.8869,0.6268,-0.0,-0.0,-0.0,-0.0,-0.0,-0.0,-0.0,-0.0,-0.0,-0.0,-0.0,-0.0,-0.0,-0.0,-0.0,-0.0,-0.0,-0.0,-0.0,-0.0,-0.0,-0.0,-0.0,-0.0,-0.0,-0.0,-0.0,-0.0,-0.0,-0.0,-0.0,-0.0,-0.0,-0.0,-0.0,-0.0,-0.0,-0.0,-0.0,-0.0,-0.0,-0.0,-0.0,-0.0,-0.0,-0.0,-0.0,-0.0,-0.0,-0.0,-0.0,-0.0,-0.0,-0.0,-0.0,-0.0,-0.0,-0.0,-0.0,-0.0,-0.0,-0.0,-0.0,-0.0,-0.0,-0.0,-0.0,-0.0,-0.0,-0.0,-0.0,-0.0,-0.0,-0.0,-0.0,-0.0,-0.0,-0.0,-0.0,-0.0,-0.0,-0.0,-0.0,0.489,0.6818,0.721,0.72,0.7187,0.717,0.7109,0.7061,0.7,0.6946,0.681,0.6695,0.66,0.659,0.663,0.6529,0.638,0.6437,0.6515,0.6517,0.627,0.5814,0.56,0.5864,0.5366,-0.0,-0.0,-0.0,0.1875,0.492,0.7536,0.5508,-0.0,-0.0,-0.0,-0.0,-0.0,-0.0,-0.0,-0.0,-0.0,-0.0,-0.0,-0.0,-0.0,-0.0,-0.0,-0.0,-0.0,-0.0,-0.0,-0.0,-0.0,-0.0,-0.0,-0.0,-0.0,-0.0,-0.0,-0.0,-0.0,-0.0,-0.0,-0.0,-0.0,-0.0,-0.0,-0.0,-0.0,-0.0,-0.0,-0.0,-0.0,-0.0,-0.0,-0.0,-0.0,-0.0,-0.0,-0.0,-0.0,-0.0,-0.0,-0.0,-0.0,-0.0,-0.0,-0.0,-0.0,-0.0,-0.0,-0.0,-0.0,-0.0,-0.0,-0.0,-0.0,-0.0,-0.0,-0.0,-0.0,-0.0,-0.0,-0.0,-0.0,-0.0,-0.0,-0.0,-0.0,-0.0,-0.0,-0.0,-0.0,-0.0,0.2511,0.4921,0.6581,0.7044,0.7265,0.7244,0.7207,0.7146,0.7115,0.7095,0.7065,0.7004,0.6895,0.6793,0.677,0.6729,0.6671,0.6569,0.6644,0.6634,0.6585,0.6165,0.532,0.4247,0.327,0.2795,-0.0,-0.0,-0.0,-0.0,-0.0,0.5224,0.449,-0.0,-0.0,-0.0,-0.0,-0.0,-0.0,-0.0,-0.0,-0.0,-0.0,-0.0,-0.0,-0.0,-0.0,-0.0,-0.0,-0.0,-0.0,-0.0,-0.0,-0.0,-0.0,-0.0,-0.0,-0.0,-0.0,-0.0,-0.0,-0.0,-0.0,-0.0,-0.0,-0.0,-0.0,-0.0,-0.0,-0.0,-0.0,-0.0,-0.0,-0.0,-0.0,-0.0,-0.0,-0.0,-0.0,-0.0,-0.0,-0.0,-0.0,-0.0,-0.0,-0.0,-0.0,-0.0,-0.0,-0.0,-0.0,-0.0,-0.0,-0.0,-0.0,-0.0,-0.0,-0.0,-0.0,-0.0,-0.0,-0.0,-0.0,-0.0,-0.0,-0.0,-0.0,-0.0,-0.0,-0.0,-0.0,-0.0,-0.0,-0.0,-0.0,0.2284,0.4735,0.6608,0.7273,0.7414,0.7394,0.7326,0.7251,0.7138,0.7121,0.719,0.719,0.7177,0.7071,0.6848,0.6773,0.6749,0.6746,0.6773,0.6712,0.6644,0.6401,0.5805,0.3667,0.0789,-0.0,-0.0,-0.0,-0.0,-0.0,-0.0,-0.0,-0.0,-0.0,-0.0,-0.0,-0.0,-0.0,-0.0,-0.0,-0.0,-0.0,-0.0,-0.0,-0.0,-0.0,-0.0,-0.0,-0.0,-0.0,-0.0,-0.0,-0.0,-0.0,-0.0,-0.0,-0.0,-0.0,-0.0,-0.0,-0.0,-0.0,-0.0,-0.0,-0.0,-0.0,-0.0,-0.0,-0.0,-0.0,-0.0,-0.0,-0.0,-0.0,-0.0,-0.0,-0.0,-0.0,-0.0,-0.0,-0.0,-0.0,-0.0,-0.0,-0.0,-0.0,-0.0,-0.0,-0.0,-0.0,-0.0,-0.0,-0.0,-0.0,-0.0,-0.0,-0.0,-0.0,-0.0,-0.0,-0.0,-0.0,-0.0,-0.0,-0.0,-0.0,-0.0,-0.0,-0.0,-0.0,-0.0,-0.0,-0.0,-0.0,-0.0,0.2707,0.4875,0.6386,0.76,0.767,0.756,0.7475,0.7309,0.7295,0.7275,0.7336,0.7363,0.7451,0.736,0.7126,0.698,0.6949,0.6943,0.6922,0.6841,0.6725,0.6562,0.6322,0.4385,-0.0,-0.0,-0.0,-0.0,-0.0,-0.0,-0.0,-0.0,-0.0,-0.0,-0.0,-0.0,-0.0,-0.0,-0.0,-0.0,-0.0,-0.0,-0.0,-0.0,-0.0,-0.0,-0.0,-0.0,-0.0,-0.0,-0.0,-0.0,-0.0,-0.0,-0.0,-0.0,-0.0,-0.0,-0.0,-0.0,-0.0,-0.0,-0.0,-0.0,-0.0,-0.0,-0.0,-0.0,-0.0,-0.0,-0.0,-0.0,-0.0,-0.0,-0.0,-0.0,-0.0,-0.0,-0.0,-0.0,-0.0,-0.0,-0.0,-0.0,-0.0,-0.0,-0.0,-0.0,-0.0,-0.0,-0.0,-0.0,-0.0,-0.0,-0.0,-0.0,-0.0,-0.0,-0.0,-0.0,-0.0,-0.0,-0.0,-0.0,-0.0,-0.0,-0.0,-0.0,-0.0,-0.0,-0.0,-0.0,-0.0,-0.0,-0.0,0.3448,0.5448,0.6608,0.7859,0.7689,0.7682,0.7645,0.7553,0.7439,0.7443,0.7506,0.7588,0.7664,0.7533,0.7383,0.7278,0.7193,0.7085,0.7041,0.688,0.6303,0.4644,0.3666,0.4428,-0.0,-0.0,-0.0,-0.0,-0.0,-0.0,-0.0,-0.0,-0.0,-0.0,-0.0,-0.0,-0.0,-0.0,-0.0,-0.0,-0.0,-0.0,-0.0,-0.0,-0.0,-0.0,-0.0,-0.0,-0.0,-0.0,-0.0,-0.0,-0.0,-0.0,-0.0,-0.0,-0.0,-0.0,-0.0,-0.0,-0.0,-0.0,-0.0,-0.0,-0.0,-0.0,-0.0,-0.0,-0.0,-0.0,-0.0,-0.0,-0.0,-0.0,-0.0,-0.0,-0.0,-0.0,-0.0,-0.0,-0.0,-0.0,-0.0,-0.0,-0.0,-0.0,-0.0,-0.0,-0.0,-0.0,-0.0,-0.0,-0.0,-0.0,-0.0,-0.0,-0.0,-0.0,-0.0,-0.0,-0.0,-0.0,-0.0,-0.0,-0.0,-0.0,-0.0,-0.0,-0.0,-0.0,-0.0,-0.0,-0.0,-0.0,0.1404,0.4216,0.6182,0.7171,0.7926,0.7814,0.7794,0.7821,0.7733,0.776,0.7692,0.7702,0.7767,0.7858,0.7705,0.757,0.7543,0.7444,0.7305,0.6884,0.6446,0.5102,0.2223,-0.0,-0.0,-0.0,-0.0,-0.0,-0.0,-0.0,-0.0,-0.0,-0.0,-0.0,-0.0,-0.0,-0.0,-0.0,-0.0,-0.0,-0.0,-0.0,-0.0,-0.0,-0.0,-0.0,-0.0,-0.0,-0.0,-0.0,-0.0,-0.0,-0.0,-0.0,-0.0,-0.0,-0.0,-0.0,-0.0,-0.0,-0.0,-0.0,-0.0,-0.0,-0.0,-0.0,-0.0,-0.0,-0.0,-0.0,-0.0,-0.0,-0.0,-0.0,-0.0,-0.0,-0.0,-0.0,-0.0,-0.0,-0.0,-0.0,-0.0,-0.0,-0.0,-0.0,-0.0,-0.0,-0.0,-0.0,-0.0,-0.0,-0.0,-0.0,-0.0,-0.0,-0.0,-0.0,-0.0,-0.0,-0.0,-0.0,-0.0,-0.0,-0.0,-0.0,-0.0,-0.0,-0.0,-0.0,-0.0,-0.0,-0.0,-0.0,-0.0,0.1514,0.4236,0.6559,0.7537,0.7925,0.7926,0.7885,0.7916,0.7882,0.7894,0.7925,0.7962,0.7925,0.7883,0.787,0.774,0.7716,0.7641,0.7468,0.6947,0.6017,0.4366,0.2235,-0.0,-0.0,-0.0,-0.0,-0.0,-0.0,-0.0,-0.0,-0.0,-0.0,-0.0,-0.0,-0.0,-0.0,-0.0,-0.0,-0.0,-0.0,-0.0,-0.0,-0.0,-0.0,-0.0,-0.0,-0.0,-0.0,-0.0,-0.0,-0.0,-0.0,-0.0,-0.0,-0.0,-0.0,-0.0,-0.0,-0.0,-0.0,-0.0,-0.0,-0.0,-0.0,-0.0,-0.0,-0.0,-0.0,-0.0,-0.0,-0.0,-0.0,-0.0,-0.0,-0.0,-0.0,-0.0,-0.0,-0.0,-0.0,-0.0,-0.0,-0.0,-0.0,-0.0,-0.0,-0.0,-0.0,-0.0,-0.0,-0.0,-0.0,-0.0,-0.0,-0.0,-0.0,-0.0,-0.0,-0.0,-0.0,-0.0,-0.0,-0.0,-0.0,-0.0,-0.0,-0.0,-0.0,-0.0,-0.0,-0.0,-0.0,-0.0,-0.0,0.1917,0.3828,0.5939,0.7746,0.7939,0.8014,0.7997,0.8001,0.7987,0.7933,0.7933,0.796,0.7943,0.7916,0.7892,0.7862,0.7824,0.7726,0.7597,0.7106,0.645,0.4643,0.2596,-0.0,-0.0,-0.0,-0.0,-0.0,-0.0,-0.0,-0.0,-0.0,-0.0,-0.0,-0.0,-0.0,-0.0,-0.0,-0.0,-0.0,-0.0,-0.0,-0.0,-0.0,-0.0,-0.0,-0.0,-0.0,-0.0,-0.0,-0.0,-0.0,-0.0,-0.0,-0.0,-0.0,-0.0,-0.0,-0.0,-0.0,-0.0,-0.0,-0.0,-0.0,-0.0,-0.0,-0.0,-0.0,-0.0,-0.0,-0.0,-0.0,-0.0,-0.0,-0.0,-0.0,-0.0,-0.0,-0.0,-0.0,-0.0,-0.0,-0.0,-0.0,-0.0,-0.0,-0.0,-0.0,-0.0,-0.0,-0.0,-0.0,-0.0,-0.0,-0.0,-0.0,-0.0,-0.0,-0.0,-0.0,-0.0,-0.0,-0.0,-0.0,-0.0,-0.0,-0.0,-0.0,-0.0,-0.0,-0.0,-0.0,-0.0,-0.0,-0.0,0.2219,0.3524,0.5842,0.7856,0.7945,0.8041,0.8038,0.8038,0.8038,0.8038,0.8038,0.8031,0.7997,0.7997,0.7991,0.796,0.7919,0.7845,0.764,0.7339,0.6802,0.4506,-0.0,-0.0,-0.0,-0.0,-0.0,-0.0,-0.0,-0.0,-0.0,-0.0,-0.0,-0.0,-0.0,-0.0,-0.0,-0.0,-0.0,-0.0,-0.0,-0.0,-0.0,-0.0,-0.0,-0.0,-0.0,-0.0,-0.0,-0.0,-0.0,-0.0,-0.0,-0.0,-0.0,-0.0,-0.0,-0.0,-0.0,-0.0,-0.0,-0.0,-0.0,-0.0,-0.0,-0.0,-0.0,-0.0,-0.0,-0.0,-0.0,-0.0,-0.0,-0.0,-0.0,-0.0,-0.0,-0.0,-0.0,-0.0,-0.0,-0.0,-0.0,-0.0,-0.0,-0.0,-0.0,-0.0,-0.0,-0.0,-0.0,-0.0,-0.0,-0.0,-0.0,-0.0,-0.0,-0.0,-0.0,-0.0,-0.0,-0.0,-0.0,-0.0,-0.0,-0.0,-0.0,-0.0,-0.0,-0.0,-0.0,-0.0,-0.0,-0.0,-0.0,-0.0,0.302,0.5847,0.7669,0.7952,0.8045,0.8038,0.8038,0.8038,0.8038,0.8038,0.8038,0.8028,0.8038,0.8038,0.8028,0.7984,0.7831,0.7764,0.753,0.6513,0.4145,-0.0,-0.0,-0.0,-0.0,-0.0,-0.0,-0.0,-0.0,-0.0,-0.0,-0.0,-0.0,-0.0,-0.0,-0.0,-0.0,-0.0,-0.0,-0.0,-0.0,-0.0,-0.0,-0.0,-0.0,-0.0,-0.0,-0.0,-0.0,-0.0,-0.0,-0.0,-0.0,-0.0,-0.0,-0.0,-0.0,-0.0,-0.0,-0.0,-0.0,-0.0,-0.0,-0.0,-0.0,-0.0,-0.0,-0.0,-0.0,-0.0,-0.0,-0.0,-0.0,-0.0,-0.0,-0.0,-0.0,-0.0,-0.0,-0.0,-0.0,-0.0,-0.0,-0.0,-0.0,-0.0,-0.0,-0.0,-0.0,-0.0,-0.0,-0.0,-0.0,-0.0,-0.0,-0.0,-0.0,-0.0,-0.0,-0.0,-0.0,-0.0,-0.0,-0.0,-0.0,-0.0,-0.0,-0.0,-0.0,-0.0,-0.0,-0.0,-0.0,-0.0,-0.0,-0.0,0.4529,0.7163,0.7653,0.7945,0.8041,0.8038,0.8038,0.8038,0.8038,0.8038,0.8038,0.8038,0.8038,0.8041,0.7952,0.7912,0.7841,0.7738,0.6822,0.5356,-0.0,-0.0,-0.0,-0.0,-0.0,-0.0,-0.0,-0.0,-0.0,-0.0,-0.0,-0.0,-0.0,-0.0,-0.0,-0.0,-0.0,-0.0,-0.0,-0.0,-0.0,-0.0,-0.0,-0.0,-0.0,-0.0,-0.0,-0.0,-0.0,-0.0,-0.0,-0.0,-0.0,-0.0,-0.0,-0.0,-0.0,-0.0,-0.0,-0.0,-0.0,-0.0,-0.0,-0.0,-0.0,-0.0,-0.0,-0.0,-0.0,-0.0,-0.0,-0.0,-0.0,-0.0,-0.0,-0.0,-0.0,-0.0,-0.0,-0.0,-0.0,-0.0,-0.0,-0.0,-0.0,-0.0,-0.0,-0.0,-0.0,-0.0,-0.0,-0.0,-0.0,-0.0,-0.0,-0.0,-0.0,-0.0,-0.0,-0.0,-0.0,-0.0,-0.0,-0.0,-0.0,-0.0,-0.0,-0.0,-0.0,-0.0,-0.0,-0.0,-0.0,-0.0,-0.0,0.2512,0.5127,0.7247,0.7643,0.8045,0.8041,0.8038,0.8038,0.8038,0.8038,0.8038,0.8038,0.7945,0.7955,0.7965,0.7975,0.7932,0.7756,0.7691,0.7318,-0.0,-0.0,-0.0,-0.0,-0.0,-0.0,-0.0,-0.0,-0.0,-0.0,-0.0,-0.0,-0.0,-0.0,-0.0,-0.0,-0.0,-0.0,-0.0,-0.0,-0.0,-0.0,-0.0,-0.0,-0.0,-0.0,-0.0,-0.0,-0.0,-0.0,-0.0,-0.0,-0.0,-0.0,-0.0,-0.0,-0.0,-0.0,-0.0,-0.0,-0.0,-0.0,-0.0,-0.0,-0.0,-0.0,-0.0,-0.0,-0.0,-0.0,-0.0,-0.0,-0.0,-0.0,-0.0,-0.0,-0.0,-0.0,-0.0,-0.0,-0.0,-0.0,-0.0,-0.0,-0.0,-0.0,-0.0,-0.0,-0.0,-0.0,-0.0,-0.0,-0.0,-0.0,-0.0,-0.0,-0.0,-0.0,-0.0,-0.0,-0.0,-0.0,-0.0,-0.0,-0.0,-0.0,-0.0,-0.0,-0.0,-0.0,-0.0,-0.0,-0.0,-0.0,-0.0,-0.0,0.4117,0.6739,0.7646,0.7949,0.8041,0.8038,0.8038,0.8038,0.8038,0.8041,0.8045,0.7955,0.7969,0.7982,0.7995,0.7895,0.7785,0.6437,0.4764,0.2704,-0.0,-0.0,-0.0,-0.0,-0.0,-0.0,-0.0,-0.0,-0.0,-0.0,-0.0,-0.0,-0.0,-0.0,-0.0,-0.0,-0.0,-0.0,-0.0,-0.0,-0.0,-0.0,-0.0,-0.0,-0.0,-0.0,-0.0,-0.0,-0.0,-0.0,-0.0,-0.0,-0.0,-0.0,-0.0,-0.0,-0.0,-0.0,-0.0,-0.0,-0.0,-0.0,-0.0,-0.0,-0.0,-0.0,-0.0,-0.0,-0.0,-0.0,-0.0,-0.0,-0.0,-0.0,-0.0,-0.0,-0.0,-0.0,-0.0,-0.0,-0.0,-0.0,-0.0,-0.0,-0.0,-0.0,-0.0,-0.0,-0.0,-0.0,-0.0,-0.0,-0.0,-0.0,-0.0,-0.0,-0.0,-0.0,-0.0,-0.0,-0.0,-0.0,-0.0,-0.0,-0.0,-0.0,-0.0,-0.0,-0.0,-0.0,-0.0,-0.0,-0.0,-0.0,0.1108,0.372,0.6137,0.7347,0.7952,0.7949,0.8045,0.8045,0.8041,0.8038,0.8041,0.7952,0.7965,0.7979,0.7995,0.7908,0.6779,0.5454,0.333,0.1501,-0.0,-0.0,-0.0,-0.0,-0.0,-0.0,-0.0,-0.0,-0.0,-0.0,-0.0,-0.0,-0.0,-0.0,-0.0,-0.0,-0.0,-0.0,-0.0,-0.0,-0.0,-0.0,-0.0,-0.0,-0.0,-0.0,-0.0,-0.0,-0.0,-0.0,-0.0,-0.0,-0.0,-0.0,-0.0,-0.0,-0.0,-0.0,-0.0,-0.0,-0.0,-0.0,-0.0,-0.0,-0.0,-0.0,-0.0,-0.0,-0.0,-0.0,-0.0,-0.0,-0.0,-0.0,-0.0,-0.0,-0.0,-0.0,-0.0,-0.0,-0.0,-0.0,-0.0,-0.0,-0.0,-0.0,-0.0,-0.0,-0.0,-0.0,-0.0,-0.0,-0.0,-0.0,-0.0,-0.0,-0.0,-0.0,-0.0,-0.0,-0.0,-0.0,-0.0,-0.0,-0.0,-0.0,-0.0,-0.0,-0.0,-0.0,-0.0,-0.0,-0.0,-0.0,-0.0,-0.0,0.2615,0.5336,0.6956,0.7762,0.7955,0.7952,0.7949,0.764,0.7232,0.7959,0.7972,0.7982,0.7989,0.7798,0.6992,0.4647,-0.0,-0.0,-0.0,-0.0,-0.0,-0.0,-0.0,-0.0,-0.0,-0.0,-0.0,-0.0,-0.0,-0.0,-0.0,-0.0,-0.0,-0.0,-0.0,-0.0,-0.0,-0.0,-0.0,-0.0,-0.0,-0.0,-0.0,-0.0,-0.0,-0.0,-0.0,-0.0,-0.0,-0.0,-0.0,-0.0,-0.0,-0.0,-0.0,-0.0,-0.0,-0.0,-0.0,-0.0,-0.0,-0.0,-0.0,-0.0,-0.0,-0.0,-0.0,-0.0,-0.0,-0.0,-0.0,-0.0,-0.0,-0.0,-0.0,-0.0,-0.0,-0.0,-0.0,-0.0,-0.0,-0.0,-0.0,-0.0,-0.0,-0.0,-0.0,-0.0,-0.0,-0.0,-0.0,-0.0,-0.0,-0.0,-0.0,-0.0,-0.0,-0.0,-0.0,-0.0,-0.0,-0.0,-0.0,-0.0,-0.0,-0.0,-0.0,-0.0,-0.0,-0.0,-0.0,-0.0,-0.0,-0.0,-0.0,0.0705,0.3522,0.6564,0.7269,0.7256,0.7972,0.7972,0.6331,0.5824,0.6751,0.7785,0.7999,0.7905,0.7503,0.6075,0.313,-0.0,-0.0,-0.0,-0.0,-0.0,-0.0,-0.0,-0.0,-0.0,-0.0,-0.0,-0.0,-0.0,-0.0,-0.0,-0.0,-0.0,-0.0,-0.0,-0.0,-0.0,-0.0,-0.0,-0.0,-0.0,-0.0,-0.0,-0.0,-0.0,-0.0,-0.0,-0.0,-0.0,-0.0,-0.0,-0.0,-0.0,-0.0,-0.0,-0.0,-0.0,-0.0,-0.477,-0.6196,-0.3556,-0.0,-0.0,-0.0,-0.0,-0.0,-0.0,-0.0,-0.0,-0.0,-0.0,-0.0,-0.0,-0.0,-0.0,-0.0,-0.0,-0.0,-0.0,-0.0,-0.0,-0.0,-0.0,-0.0,-0.0,-0.0,-0.0,-0.0,-0.0,-0.0,-0.0,-0.0,-0.0,-0.0,-0.0,-0.0,-0.0,-0.0,-0.0,-0.0,-0.0,-0.0,-0.0,-0.0,-0.0,-0.0,-0.0,-0.0,-0.0,-0.0,-0.0,-0.0,-0.0,-0.0,-0.0,-0.0,0.1208,0.4033,0.5653,0.6047,0.7172,0.7685,0.5636,0.4218,0.4828,0.5851,0.7293,0.6995,0.5361,0.3332,0.0909,-0.0,-0.0,-0.0,-0.0,-0.0,-0.0,-0.0,-0.0,-0.0,-0.0,-0.0,-0.0,-0.0,-0.0,-0.0,-0.0,-0.0,-0.0,-0.0,-0.0,-0.0,-0.0,-0.0,-0.0,-0.0,-0.0,-0.0,-0.0,-0.0,-0.0,-0.0,-0.0,-0.0,-0.0,-0.0,-0.0,-0.0,-0.0,-0.0,-0.0,-0.1625,-0.5291,-0.7644,-0.8027,-0.6821,-0.4,-0.0,-0.0,-0.0,-0.0,-0.0,-0.0,-0.0,-0.0,-0.0,-0.0,-0.0,-0.0,-0.0,-0.0,-0.0,-0.0,-0.0,-0.0,-0.0,-0.0,-0.0,-0.0,-0.0,-0.0,-0.0,-0.0,-0.0,-0.0,-0.0,-0.0,-0.0,-0.0,-0.0,-0.0,-0.0,-0.0,-0.0,-0.0,-0.0,-0.0,-0.0,-0.0,-0.0,-0.0,-0.0,-0.0,-0.0,-0.0,-0.0,-0.0,-0.0,-0.0,-0.0,-0.0,-0.0,0.1211,-0.0,-0.0,0.5466,0.5464,0.3621,0.2613,-0.0,-0.0,-0.0,-0.0,0.2222,-0.0,-0.0,-0.0,-0.0,-0.0,-0.0,-0.0,-0.0,-0.0,-0.0,-0.0,-0.0,-0.0,-0.0,-0.0,-0.0,-0.0,-0.0,-0.0,-0.0,-0.0,-0.0,-0.0,-0.0,-0.0,-0.0,-0.0,-0.0,-0.0,-0.0,-0.0,-0.0,-0.0,-0.0,-0.0,-0.0,-0.0,-0.0,-0.0,-0.0,-0.0,-0.0,-0.5416,-0.8408,-0.8691,-0.8927,-0.8066,-0.7051,-0.3905,-0.0,-0.0,-0.0,-0.0224,-0.0,-0.0,-0.0,-0.0,-0.0,-0.0,-0.0,-0.0,-0.0,-0.0,-0.0,-0.0,-0.0,-0.0,-0.0,-0.0,-0.0,-0.0,-0.0,-0.0,-0.0,-0.0,-0.0,-0.0,-0.0,-0.0,-0.0,-0.0,-0.0,-0.0,-0.0,-0.0,-0.0,-0.0,-0.0,-0.0,-0.0,-0.0,-0.0,-0.0,-0.0,-0.0,-0.0,-0.0,-0.0,-0.0,-0.0,-0.0,-0.0,-0.0,-0.0,-0.0,-0.0,-0.0,0.2943,-0.0,-0.0,-0.0,-0.0,-0.0,-0.0,-0.0,-0.0,-0.0,-0.0,-0.0,-0.0,-0.0,-0.0,-0.0,-0.0,-0.0,-0.0,-0.0,-0.0,-0.0,-0.0,-0.0,-0.0,-0.0,-0.0,-0.0,-0.0,-0.0,-0.0,-0.0,-0.0,-0.0,-0.0,-0.0,-0.0,-0.0,-0.0,-0.0,-0.0,-0.0,-0.0,-0.0,-0.0,-0.0,-0.0,-0.0,-0.0,-0.0,-0.583,-0.8865,-0.8858,-0.8866,-0.8863,-0.8644,-0.7198,-0.3475,-0.0,-0.0,-0.1345,-0.3139,-0.0,-0.0,-0.0,-0.0,-0.0,-0.0,-0.0,-0.0,-0.0,-0.0,-0.0,-0.0,-0.0,-0.0,-0.0,-0.0,-0.0,-0.0,-0.0,-0.0,-0.0,-0.0,-0.0,-0.0,-0.0,-0.0,-0.0,-0.0,-0.0,-0.0,-0.0,-0.0,-0.0,-0.0,-0.0,-0.0,-0.0,-0.0,-0.0,-0.0,-0.0,-0.0,-0.0,-0.0,-0.0,-0.0,-0.0,-0.0,-0.0,-0.0,-0.0,-0.0,-0.0,-0.0,-0.0,-0.0,-0.0,-0.0,-0.0,-0.0,-0.0,-0.0,-0.0,-0.0,-0.0,-0.0,-0.0,-0.0,-0.0,-0.0,-0.0,-0.0,-0.0,-0.0,-0.0,-0.0,-0.0,-0.0,-0.0,-0.0,-0.0,-0.0,-0.0,-0.0,-0.0,-0.0,-0.0,-0.0,-0.0,-0.0,-0.0,-0.0,-0.0,-0.0,-0.0,-0.0,-0.0,-0.0,-0.0,-0.0,-0.0,-0.0,-0.0,-0.5559,-0.8895,-0.8883,-0.8967,-0.8967,-0.8853,-0.8933,-0.6339,-0.1916,-0.1575,-0.3254,-0.5502,-0.596,-0.2811,-0.0,-0.0,-0.0,-0.0,-0.0,-0.0,-0.0,-0.0,-0.0,-0.0,-0.0,-0.0,-0.0,-0.0,-0.0,-0.0,-0.0,-0.0,-0.0,-0.0,-0.0,-0.0,-0.0,-0.0,-0.0,-0.0,-0.0,-0.0,-0.0,-0.0,-0.0,-0.0,-0.0,-0.0,-0.0,-0.0,-0.0,-0.0,-0.0,-0.0,-0.0,-0.0,-0.0,-0.0,-0.0,-0.0,-0.0,-0.0,-0.0,-0.0,-0.0,-0.0,-0.0,-0.0,-0.0,-0.0,-0.0,-0.0,-0.0,-0.0,-0.0,-0.0,-0.0,-0.0,-0.0,-0.0,-0.0,-0.0,-0.0,-0.0,-0.0,-0.0,-0.0,-0.0,-0.0,-0.0,-0.0,-0.0,-0.0,-0.0,-0.0,-0.0,-0.0,-0.0,-0.0,-0.0,-0.0,-0.0,-0.0,-0.0,-0.0,-0.0,-0.0,-0.0,-0.0,-0.0,-0.0,-0.0,-0.0,-0.0,-0.0,-0.479,-0.8901,-0.89,-0.887,-0.8886,-0.8943,-0.8562,-0.7595,-0.4798,-0.1813,-0.3507,-0.5998,-0.8173,-0.6034,-0.0,-0.0,-0.0,-0.0,-0.0,-0.0,-0.0,-0.0,-0.0,-0.0,-0.0,-0.0,-0.0,-0.0,-0.0,-0.0,-0.0,-0.0,-0.0,-0.0,-0.0,-0.0,-0.0,-0.0,-0.0,-0.0,-0.0,-0.0,-0.0,-0.0,-0.0,-0.0,-0.0,-0.0,-0.0,-0.0,-0.0,-0.0,-0.0,-0.0,-0.0,-0.0,-0.0,-0.0,-0.0,-0.0,-0.0,-0.0,-0.0,-0.0,-0.0,-0.0,-0.0,-0.0,-0.0,-0.0,-0.0,-0.0,-0.0,-0.0,-0.0,-0.0,-0.0,-0.0,-0.0,-0.0,-0.0,-0.0,-0.0,-0.0,-0.0,-0.0,-0.0,-0.0,-0.0,-0.0,-0.0,-0.0,-0.0,-0.0,-0.0,-0.0,-0.0,-0.0,-0.0,-0.0,-0.0,-0.0,-0.0,-0.0,-0.0,-0.0,-0.0,-0.0,-0.0,-0.0,-0.0,-0.0,-0.0,-0.0,-0.0,-0.6055,-0.8781,-0.8893,-0.8917,-0.8801,-0.8616,-0.8829,-0.8344,-0.7006,-0.4056,-0.0924,-0.3345,-0.6814,-0.7671,-0.0,-0.0,-0.0,-0.0,-0.0,-0.0,-0.0,-0.0,-0.0,-0.0,-0.0,-0.0,-0.0,-0.0,-0.0,-0.0,-0.0,-0.0,-0.0,-0.0,-0.0,-0.0,-0.0,-0.0,-0.0,-0.0,-0.0,-0.0,-0.0,-0.0,-0.0,-0.0,-0.0,-0.0,-0.0,-0.0,-0.0,-0.0,-0.0,-0.0,-0.0,-0.0,-0.0,-0.0,-0.0,-0.0,-0.0,-0.0,-0.0,-0.0,-0.0,-0.0,-0.0,-0.0,-0.0,-0.0,-0.0,-0.0,-0.0,-0.0,-0.0,-0.0,-0.0,-0.0,-0.0,-0.0,-0.0,-0.0,-0.0]},{"header":{"parameterUnit":"m.s-1","parameterCategory":1,"la1":31.0,"la2":29.5877,"lo1":-88.7671,"lo2":-86.6584,"dy":0.0162,"dx":0.0185,"nx":115,"ny":88,"refTime":"2023-06-27T06:00:00:Z","depth":0,"parameterNumber":3,"parameterNumberName":"V-component_of_WINDS"},"data":[0.0,0.0,0.0,0.0,0.0,0.0,0.0,0.0,0.0,0.0,0.0,0.0,0.0,0.0,0.0,0.0,0.0,0.0,0.0,0.0,0.0,0.0,0.0,0.0,0.0,0.0,0.0,0.0,0.0,0.0,0.0,0.0,0.0,0.0,0.0,0.0,0.0,0.0,0.0,0.0,0.0,0.0,0.0,0.0,0.0,0.0,0.0,0.0,0.0,0.0,0.0,0.0,0.0,0.0,0.0,0.0,0.0,0.0,0.0,0.0,0.0,0.0,0.0,0.0,0.0,0.0,0.0,0.0,0.0,0.0,0.0,0.0,0.0,0.0,0.0,0.0,0.0,0.0,0.0,0.0,0.0,0.0,0.0,0.0,0.0,0.0,0.0,0.0,0.0,0.0,0.0,0.0,0.0,0.0,0.0,0.0,0.0,0.0,0.0,0.0,0.0,0.0,0.0,0.0,0.0,0.0,0.0,0.0,0.0,0.0,0.0,0.0,0.0,0.0,0.0,0.0,0.0,0.0,0.0,0.0,0.0,0.0,0.0,0.0,0.0,0.0,0.0,0.0,0.0,0.0,0.0,0.0,0.0,0.0,0.0,0.0,0.0,0.0,0.0,0.0,0.0,0.0,0.0,0.0,0.0,0.0,0.0,0.0,0.0,0.0,0.0,0.0,0.0,0.0,0.0,0.0,0.0,0.0,0.0,0.0,0.0,0.0,0.0,0.0,0.0,0.0,0.0,0.0,0.0,0.0,0.0,0.0,0.0,0.0,0.0,0.0,0.0,0.0,0.0,0.0,0.0,0.0,0.0,0.0,0.0,0.0,0.0,0.0,0.0,0.0,0.0,0.0,0.0,0.0,0.0,0.0,0.0,0.0,0.0,0.0,0.0,0.0,0.0,0.0,0.0,0.0,0.0,0.0,0.0,0.0,0.0,0.0,0.0,0.0,0.0,0.0,0.0,0.0,0.0,0.0,0.0,0.0,0.0,0.0,0.0,0.0,0.0,0.0,0.0,0.0,0.0,0.0,0.0,0.0,0.0,0.0,0.0,0.0,0.0,0.0,0.0,0.0,0.0,0.0,0.0,0.0,0.0,0.0,0.0,0.0,0.0,0.0,0.0,0.0,0.0,0.0,0.0,0.0,0.0,0.0,0.0,0.0,0.0,0.0,0.0,0.0,0.0,0.0,0.0,0.0,0.0,0.0,0.0,0.0,0.0,0.0,0.0,0.0,0.0,0.0,0.0,0.0,0.0,0.0,0.0,0.0,0.0,0.0,0.0,0.0,0.0,0.0,0.0,0.0,0.0,0.0,0.0,0.0,0.0,0.0,0.0,0.0,0.0,0.0,0.0,0.0,0.0,0.0,0.0,0.0,0.0,0.0,0.0,0.0,0.0,0.0,0.0,0.0,0.0,0.0,0.0,0.0,0.0,0.0,0.0,0.0,0.0,0.0,0.0,0.0,0.0,0.0,0.0,0.0,0.0,0.0,0.0,0.0,0.0,0.0,0.0,0.0,0.0,0.0,0.0,0.0,0.0,0.0,0.0,0.0,0.0,0.0,0.0,0.0,0.0,0.0,0.0,0.0,0.0,0.0,0.0,0.0,0.0,0.0,0.0,0.0,0.0,0.0,0.0,0.0,0.0,0.0,0.0,0.0,0.0,0.0,0.0,0.0,0.0,0.0,0.0,0.0,0.0,0.0,0.0,0.0,0.0,0.0,0.0,0.0,0.0,0.0,0.0,0.0,0.0,0.0,0.0,0.0,0.0,0.0,0.0,0.0,0.0,0.0,0.0,0.0,0.0,0.0,0.0,0.0,0.0,0.0,0.0,0.0,0.0,0.0,0.0,0.0,0.0,0.0,0.0,0.0,0.0,0.0,0.0,0.0,0.0,0.0,0.0,0.0,0.0,0.0,0.0,0.0,0.0,0.0,0.0,0.0,0.0,0.0,0.0,0.0,0.0,0.0,0.0,0.0,0.0,0.0,0.0,0.0,0.0,0.0,0.0,0.0,0.0,0.0,0.0,0.0,0.0,0.0,0.0,0.0,0.0,0.0,0.0,0.0,0.0,0.0,0.0,0.0,0.0,0.0,0.0,0.0,0.0,0.0,0.0,0.0,0.0,0.0,0.0,0.0,0.0,0.0,0.0,0.0,0.0,0.0,0.0,0.0,0.0,0.0,0.0,0.0,0.0,0.0,0.0,0.0,0.0,0.0,0.0,0.0,0.0,0.0,0.0,0.0,0.0,0.0,0.0,0.0,0.0,0.0,0.0,0.0,0.0,0.0,0.0,0.0,0.0,0.0,0.0,0.0,0.0,0.0,0.0,0.0,0.0,0.0,0.0,0.0,0.0,0.0,0.0,0.0,0.0,0.0,0.0,0.0,0.0,0.0,0.0,0.0,0.0,0.0,0.0,0.0,0.0,0.0,0.0,0.0,0.0,0.0,0.0,0.0,0.0,0.0,0.0,0.0,0.0,0.0,0.0,0.0,0.0,0.0,0.0,0.0,0.0,0.0,0.0,0.0,0.0,0.0,0.0,0.0,0.0,0.0,0.0,0.0,0.0,0.0,0.0,0.0,0.0,0.0,0.0,0.0,0.0,0.0,0.0,0.0,0.0,0.0,0.0,0.0,0.0,0.0,0.0,0.0,0.0,0.0,0.0,0.0,0.0,0.0,0.0,0.0,0.0,0.0,0.0,0.0,0.0,0.0,0.0,0.0,0.0,0.0,0.0,0.0,0.0,0.0,0.0,0.0,0.0,0.0,0.0,0.0,0.0,0.0,0.0,0.0,0.0,0.0,0.0,0.0,0.0,0.0,0.0,0.0,0.0,0.0,0.0,0.0,0.0,0.0,0.0,0.0,0.0,0.0,0.0,0.0,0.0,0.0,0.0,0.0,0.0,0.0,0.0,0.0,0.0,0.0,0.0,0.0,0.0,0.0,0.0,0.0,0.0,0.0,0.0,0.0,0.0,0.0,0.0,0.0,0.0,0.0,0.0,0.0,0.0,0.0,0.0,0.0,0.0,0.0,0.0,0.0,0.0,0.0,0.0,0.0,0.0,0.0,0.0,0.0,0.0,0.0,0.0,0.0,0.0,0.0,0.0,0.0,0.0,0.0,0.0,0.0,0.0,0.0,0.0,0.0,0.0,0.0,0.0,0.0,0.0,0.0,0.0,0.0,0.0,0.0,0.0,0.0,0.0,0.0,0.0,0.0,0.0,0.0,0.0,0.0,0.0,0.0,0.0,0.0,0.0,0.0,0.0,0.0,0.0,0.0,0.0,0.0,0.0,0.0,0.0,0.0,0.0,0.0,0.0,0.0,0.0,0.0,0.0,0.0,0.0,0.0,0.0,0.0,0.0,0.0,0.0,0.0,0.0,0.0,0.0,0.0,0.0,0.0,0.0,0.0,0.0,0.0,0.0,0.0,0.0,0.0,0.0,0.0,0.0,0.0,0.0,0.0,0.0,0.0,0.0,0.0,0.0,0.0,0.0,0.0,0.0,0.0,0.0,0.0,0.0,0.0,0.0,0.0,0.0,0.0,0.0,0.0,0.0,0.0,0.0,0.0,0.0,0.0,0.0,0.0,0.0,0.0,0.0,0.0,0.0,0.0,0.0,0.0,0.0,0.0,0.0,0.0,0.0,0.0,0.0,0.0,0.0,0.0,0.0,0.0,0.0,0.0,0.0,0.0,0.0,0.0,0.0,0.0,0.0,0.0,0.0,0.0,0.0,0.0,0.0,0.0,0.0,0.0,0.0,0.0,0.0,0.0,0.0,0.0,0.0,0.0,0.0,0.0,0.0,0.0,0.0,0.0,0.0,0.0,0.0,0.0,0.0,0.0,0.0,0.0,0.0,0.0,0.0,0.0,0.0,0.0,0.0,0.0,0.0,0.0,0.0,0.0,0.0,0.0,0.0,0.0,0.0,0.0,0.0,0.0,0.0,0.0,0.0,0.0,0.0,0.0,0.0,0.0,0.0,0.0,0.0,0.0,0.0,0.0,0.0,0.0,0.0,0.0,0.0,0.0,0.0,0.0,0.0,0.0,0.0,0.0,0.0,0.0,0.0,0.0,0.0,0.0,0.0,0.0,0.0,0.0,0.0,0.0,0.0,0.0,0.0,0.0,0.0,0.0,0.0,0.0,0.0,0.0,0.0,0.0,0.0,0.0,0.0,0.0,0.0,0.0,0.0,0.0,0.0,0.0,0.0,0.0,0.0,0.0,0.0,0.0,0.0,0.0,0.0,0.0,0.0,0.0,0.0,0.0,0.0,0.0,-1.3706,0.0,0.0,0.0,0.0,0.0,0.0,0.0,0.0,0.0,0.0,0.0,0.0,0.0,0.0,0.0,0.0,0.0,0.0,0.0,0.0,0.0,0.0,0.0,0.0,0.0,0.0,0.0,0.0,0.0,0.0,0.0,0.0,0.0,0.0,0.0,0.0,0.0,0.0,0.0,0.0,0.0,0.0,0.0,0.0,0.0,0.0,0.0,0.0,0.0,0.0,0.0,0.0,0.0,0.0,0.0,0.0,0.0,0.0,0.0,0.0,0.0,0.0,0.0,0.0,0.0,0.0,0.0,0.0,0.0,0.0,0.0,0.0,0.0,0.0,0.0,0.0,0.0,0.0,0.0,0.0,0.0,0.0,0.0,0.0,0.0,0.0,0.0,0.0,0.0,0.0,0.0,0.0,0.0,0.0,0.0,0.0,0.0,0.0,0.0,0.0,0.0,0.0,0.0,0.0,0.0,0.0,0.0,0.0,0.0,0.0,-1.2429,-1.4885,-1.2497,-1.2183,-1.4411,0.0,0.0,0.0,0.0,0.0,0.0,0.0,0.0,0.0,0.0,0.0,0.0,0.0,0.0,0.0,0.0,0.0,0.0,0.0,0.0,0.0,0.0,0.0,0.0,0.0,0.0,0.0,0.0,0.0,0.0,0.0,0.0,0.0,0.0,0.0,0.0,0.0,0.0,0.0,0.0,0.0,0.0,0.0,0.0,0.0,0.0,0.0,0.0,0.0,0.0,0.0,0.0,0.0,0.0,0.0,0.0,0.0,0.0,0.0,0.0,0.0,0.0,0.0,0.0,0.0,0.0,0.0,0.0,0.0,0.0,0.0,0.0,0.0,0.0,0.0,0.0,0.0,0.0,0.0,0.0,0.0,0.0,0.0,0.0,0.0,0.0,0.0,0.0,0.0,0.0,0.0,0.0,0.0,0.0,0.0,0.0,0.0,0.0,0.0,0.0,0.0,0.0,0.0,0.0,0.0,0.0,0.0,0.0,0.0,0.0,0.0,0.0,-1.2957,-1.2866,-1.5654,0.0,0.0,0.0,0.0,0.0,0.0,0.0,0.0,0.0,0.0,0.0,0.0,0.0,0.0,0.0,0.0,0.0,0.0,0.0,0.0,0.0,0.0,0.0,0.0,0.0,0.0,0.0,0.0,0.0,0.0,0.0,0.0,0.0,0.0,0.0,0.0,0.0,0.0,0.0,0.0,0.0,0.0,0.0,0.0,0.0,0.0,0.0,0.0,0.0,0.0,0.0,0.0,0.0,0.0,0.0,0.0,0.0,0.0,0.0,0.0,0.0,0.0,0.0,0.0,0.0,0.0,0.0,0.0,0.0,0.0,0.0,0.0,0.0,0.0,0.0,0.0,0.0,0.0,0.0,0.0,0.0,0.0,0.0,0.0,0.0,0.0,0.0,0.0,0.0,0.0,0.0,0.0,0.0,0.0,0.0,0.0,0.0,0.0,0.0,0.0,0.0,0.0,0.0,0.0,0.0,0.0,0.0,0.0,0.0,0.0,-1.5413,-1.7117,-1.6743,0.0,-1.7994,0.0,0.0,0.0,0.0,0.0,0.0,0.0,0.0,0.0,0.0,0.0,0.0,0.0,0.0,0.0,0.0,0.0,0.0,0.0,0.0,0.0,0.0,0.0,0.0,0.0,0.0,0.0,0.0,0.0,0.0,0.0,0.0,0.0,0.0,0.0,0.0,0.0,0.0,0.0,0.0,0.0,0.0,0.0,0.0,0.0,0.0,0.0,0.0,0.0,0.0,0.0,0.0,0.0,0.0,0.0,0.0,0.0,0.0,0.0,0.0,0.0,0.0,0.0,0.0,0.0,0.0,0.0,0.0,0.0,0.0,0.0,0.0,0.0,0.0,0.0,0.0,0.0,0.0,0.0,0.0,0.0,0.0,0.0,0.0,0.0,0.0,0.0,0.0,0.0,0.0,0.0,0.0,0.0,0.0,0.0,0.0,0.0,0.0,0.0,0.0,0.0,0.0,0.0,0.0,0.0,0.0,0.0,0.0,0.0,0.0,-1.5451,-1.6474,-1.7408,-1.7401,0.0,0.0,0.0,0.0,0.0,0.0,0.0,0.0,0.0,0.0,0.0,0.0,0.0,0.0,0.0,0.0,0.0,0.0,0.0,0.0,0.0,0.0,0.0,0.0,0.0,0.0,0.0,0.0,0.0,0.0,0.0,0.0,0.0,0.0,0.0,0.0,0.0,0.0,0.0,0.0,0.0,0.0,0.0,0.0,0.0,0.0,0.0,0.0,0.0,0.0,0.0,0.0,0.0,0.0,0.0,0.0,0.0,0.0,0.0,0.0,0.0,0.0,0.0,0.0,0.0,0.0,0.0,0.0,0.0,0.0,0.0,0.0,0.0,0.0,0.0,0.0,0.0,0.0,0.0,0.0,0.0,0.0,0.0,0.0,0.0,0.0,0.0,0.0,0.0,0.0,0.0,0.0,0.0,0.0,0.0,0.0,0.0,0.0,0.0,0.0,0.0,0.0,0.0,0.0,0.0,0.0,0.0,0.0,0.0,0.0,-1.4732,-1.5694,-1.6698,-1.7309,-1.7213,-1.6367,0.0,0.0,0.0,0.0,0.0,0.0,0.0,0.0,0.0,0.0,0.0,0.0,0.0,0.0,0.0,0.0,0.0,0.0,0.0,0.0,0.0,0.0,0.0,0.0,0.0,0.0,0.0,0.0,0.0,0.0,0.0,0.0,0.0,0.0,0.0,0.0,0.0,0.0,0.0,0.0,0.0,0.0,0.0,0.0,0.0,0.0,0.0,0.0,0.0,0.0,0.0,0.0,0.0,0.0,0.0,0.0,0.0,0.0,0.0,0.0,0.0,0.0,0.0,0.0,0.0,0.0,0.0,0.0,0.0,0.0,0.0,0.0,0.0,0.0,0.0,0.0,0.0,0.0,0.0,0.0,0.0,0.0,0.0,0.0,0.0,0.0,0.0,0.0,0.0,0.0,0.0,0.0,0.0,0.0,0.0,0.0,0.0,0.0,0.0,0.0,0.0,0.0,0.0,0.0,0.0,0.0,0.0,0.0,-1.6851,-1.6143,-1.6639,-1.8534,-1.6795,-1.7099,0.0,0.0,0.0,0.0,0.0,0.0,0.0,0.0,0.0,0.0,0.0,0.0,0.0,0.0,0.0,0.0,0.0,0.0,0.0,0.0,0.0,0.0,0.0,0.0,0.0,0.0,0.0,0.0,0.0,0.0,0.0,0.0,0.0,0.0,0.0,0.0,0.0,0.0,0.0,0.0,0.0,0.0,0.0,0.0,0.0,0.0,0.0,0.0,0.0,0.0,0.0,0.0,0.0,0.0,0.0,0.0,0.0,0.0,0.0,0.0,0.0,0.0,0.0,0.0,0.0,0.0,0.0,0.0,0.0,0.0,0.0,0.0,0.0,0.0,0.0,0.0,0.0,0.0,0.0,0.0,0.0,0.0,0.0,0.0,0.0,0.0,0.0,0.0,0.0,0.0,0.0,0.0,0.0,0.0,0.0,0.0,0.0,0.0,0.0,0.0,0.0,0.0,0.0,0.0,0.0,0.0,0.0,0.0,0.0,-1.4912,-1.5859,-1.6426,-1.6676,-1.7853,-1.8422,0.0,0.0,0.0,0.0,0.0,0.0,0.0,0.0,0.0,0.0,0.0,0.0,0.0,0.0,0.0,0.0,0.0,0.0,0.0,0.0,0.0,0.0,0.0,0.0,0.0,0.0,0.0,0.0,0.0,0.0,0.0,0.0,0.0,0.0,0.0,0.0,0.0,0.0,0.0,0.0,0.0,0.0,0.0,0.0,0.0,0.0,0.0,0.0,0.0,0.0,0.0,0.0,0.0,0.0,0.0,0.0,0.0,0.0,0.0,0.0,0.0,0.0,0.0,0.0,0.0,0.0,0.0,0.0,0.0,0.0,0.0,0.0,0.0,0.0,0.0,0.0,0.0,0.0,0.0,0.0,0.0,0.0,0.0,0.0,0.0,0.0,0.0,0.0,0.0,0.0,0.0,0.0,0.0,0.0,0.0,0.0,0.0,0.0,0.0,0.0,0.0,0.0,0.0,0.0,0.0,0.0,0.0,0.0,0.0,-1.4191,0.0,-1.6116,-1.5946,-1.7839,-1.8476,0.0,0.0,0.0,0.0,0.0,0.0,0.0,0.0,0.0,0.0,0.0,0.0,0.0,0.0,0.0,0.0,0.0,0.0,0.0,0.0,0.0,0.0,0.0,0.0,0.0,0.0,0.0,0.0,0.0,0.0,0.0,0.0,0.0,0.0,0.0,0.0,0.0,0.0,0.0,0.0,0.0,0.0,0.0,0.0,0.0,0.0,0.0,0.0,0.0,0.0,0.0,0.0,0.0,0.0,0.0,0.0,0.0,0.0,0.0,0.0,0.0,0.0,0.0,0.0,0.0,0.0,0.0,0.0,0.0,0.0,0.0,0.0,0.0,0.0,0.0,0.0,0.0,0.0,0.0,0.0,0.0,0.0,0.0,0.0,0.0,0.0,0.0,0.0,0.0,0.0,0.0,0.0,0.0,0.0,0.0,0.0,0.0,0.0,0.0,0.0,0.0,0.0,0.0,0.0,0.0,0.0,0.0,0.0,-1.4799,-1.5221,-1.5278,-1.5766,-1.6747,-1.6553,-1.7081,0.0,0.0,0.0,0.0,0.0,0.0,0.0,0.0,0.0,0.0,0.0,0.0,0.0,0.0,0.0,0.0,0.0,0.0,0.0,0.0,0.0,0.0,0.0,0.0,0.0,0.0,0.0,0.0,0.0,0.0,0.0,0.0,0.0,0.0,0.0,0.0,0.0,0.0,0.0,0.0,0.0,0.0,0.0,0.0,0.0,0.0,0.0,0.0,0.0,0.0,0.0,0.0,0.0,0.0,0.0,0.0,0.0,0.0,0.0,0.0,0.0,0.0,0.0,0.0,0.0,0.0,0.0,0.0,0.0,0.0,0.0,0.0,0.0,0.0,0.0,0.0,0.0,0.0,0.0,0.0,0.0,0.0,0.0,0.0,0.0,0.0,0.0,0.0,0.0,0.0,0.0,0.0,0.0,0.0,0.0,0.0,0.0,0.0,0.0,0.0,0.0,0.0,0.0,0.0,0.0,0.0,0.0,0.0,0.0,-1.4478,-1.4478,-1.527,-1.6826,-1.6337,-1.7097,0.0,0.0,0.0,0.0,0.0,0.0,0.0,0.0,0.0,0.0,0.0,0.0,0.0,0.0,0.0,0.0,0.0,0.0,0.0,0.0,0.0,0.0,0.0,0.0,0.0,0.0,0.0,0.0,0.0,0.0,0.0,0.0,0.0,0.0,0.0,0.0,0.0,0.0,0.0,0.0,0.0,0.0,0.0,0.0,0.0,0.0,0.0,0.0,0.0,0.0,0.0,0.0,0.0,0.0,0.0,0.0,0.0,0.0,0.0,0.0,0.0,0.0,0.0,0.0,0.0,0.0,0.0,0.0,0.0,0.0,0.0,0.0,0.0,0.0,0.0,0.0,0.0,0.0,0.0,0.0,0.0,0.0,0.0,0.0,0.0,0.0,0.0,0.0,0.0,0.0,0.0,0.0,0.0,0.0,0.0,0.0,0.0,0.0,0.0,0.0,0.0,0.0,0.0,0.0,0.0,0.0,0.0,0.0,0.0,-1.4629,-1.449,-1.507,-1.6376,-1.6578,-1.7227,-1.8411,0.0,0.0,0.0,0.0,0.0,0.0,0.0,0.0,0.0,0.0,0.0,0.0,0.0,0.0,0.0,0.0,0.0,0.0,0.0,0.0,0.0,0.0,0.0,0.0,0.0,0.0,0.0,0.0,0.0,0.0,0.0,0.0,0.0,0.0,0.0,0.0,0.0,0.0,0.0,0.0,0.0,0.0,0.0,0.0,0.0,0.0,0.0,0.0,0.0,0.0,0.0,0.0,0.0,0.0,0.0,0.0,0.0,0.0,0.0,0.0,0.0,0.0,0.0,0.0,0.0,0.0,0.0,0.0,0.0,0.0,0.0,0.0,0.0,0.0,0.0,0.0,0.0,0.0,0.0,0.0,0.0,0.0,0.0,0.0,0.0,0.0,0.0,0.0,0.0,0.0,0.0,0.0,0.0,0.0,0.0,0.0,0.0,0.0,0.0,0.0,0.0,0.0,0.0,0.0,0.0,0.0,0.0,0.0,-1.5546,-1.5353,-1.5452,-1.5778,-1.7114,-1.742,0.0,0.0,0.0,0.0,0.0,0.0,0.0,0.0,0.0,0.0,0.0,0.0,0.0,0.0,0.0,0.0,0.0,0.0,0.0,0.0,0.0,0.0,0.0,0.0,0.0,0.0,0.0,0.0,0.0,0.0,0.0,0.0,0.0,0.0,0.0,0.0,0.0,0.0,0.0,0.0,0.0,0.0,0.0,0.0,0.0,0.0,0.0,0.0,0.0,0.0,0.0,0.0,0.0,0.0,0.0,0.0,0.0,0.0,0.0,0.0,0.0,0.0,0.0,0.0,0.0,0.0,0.0,0.0,0.0,0.0,0.0,0.0,0.0,0.0,0.0,0.0,0.0,0.0,0.0,0.0,0.0,0.0,0.0,0.0,0.0,0.0,0.0,0.0,0.0,0.0,0.0,0.0,0.0,0.0,0.0,0.0,0.0,0.0,0.0,0.0,0.0,0.0,0.0,0.0,0.0,0.0,0.0,0.0,0.0,-1.717,-1.7938,-1.8648,-1.9097,-1.7249,-1.7206,0.0,0.0,0.0,0.0,0.0,0.0,0.0,0.0,0.0,0.0,0.0,0.0,0.0,0.0,0.0,0.0,0.0,0.0,0.0,0.0,0.0,0.0,0.0,0.0,0.0,0.0,0.0,0.0,0.0,0.0,0.0,0.0,0.0,0.0,0.0,0.0,0.0,0.0,0.0,0.0,0.0,0.0,0.0,0.0,0.0,0.0,0.0,0.0,0.0,0.0,0.0,0.0,0.0,0.0,0.0,0.0,0.0,0.0,0.0,0.0,0.0,0.0,0.0,0.0,0.0,0.0,0.0,0.0,0.0,0.0,0.0,0.0,0.0,0.0,0.0,0.0,0.0,0.0,0.0,0.0,0.0,0.0,0.0,0.0,0.0,0.0,0.0,0.0,0.0,0.0,0.0,0.0,0.0,0.0,0.0,0.0,0.0,0.0,0.0,0.0,0.0,0.0,0.0,0.0,0.0,0.0,0.0,0.0,-1.9063,-1.7907,-2.0008,-2.1295,-2.1634,-1.9304,-1.8334,0.0,0.0,0.0,0.0,0.0,0.0,0.0,0.0,0.0,0.0,0.0,0.0,0.0,0.0,0.0,0.0,0.0,0.0,0.0,0.0,0.0,0.0,0.0,0.0,0.0,0.0,0.0,0.0,0.0,0.0,0.0,0.0,0.0,0.0,0.0,0.0,0.0,0.0,0.0,0.0,0.0,0.0,0.0,0.0,0.0,0.0,0.0,0.0,0.0,0.0,0.0,0.0,0.0,0.0,0.0,0.0,0.0,0.0,0.0,0.0,0.0,0.0,0.0,0.0,0.0,0.0,0.0,0.0,0.0,0.0,0.0,0.0,0.0,0.0,0.0,0.0,0.0,0.0,0.0,0.0,0.0,0.0,0.0,0.0,0.0,0.0,0.0,0.0,0.0,0.0,0.0,0.0,0.0,0.0,0.0,0.0,0.0,0.0,0.0,0.0,0.0,0.0,0.0,0.0,0.0,0.0,0.0,0.0,-2.0527,-1.8445,-2.1529,-2.3189,-2.3153,-2.1881,-2.0014,0.0,0.0,0.0,0.0,0.0,0.0,0.0,0.0,0.0,0.0,0.0,0.0,0.0,0.0,0.0,0.0,0.0,0.0,0.0,0.0,0.0,0.0,0.0,0.0,0.0,0.0,0.0,0.0,0.0,0.0,0.0,0.0,0.0,0.0,0.0,0.0,0.0,0.0,0.0,0.0,0.0,0.0,0.0,0.0,0.0,0.0,0.0,0.0,0.0,0.0,0.0,0.0,0.0,0.0,0.0,0.0,0.0,0.0,0.0,0.0,0.0,0.0,0.0,0.0,0.0,0.0,0.0,0.0,0.0,0.0,0.0,0.0,0.0,0.0,0.0,0.0,0.0,0.0,0.0,0.0,0.0,0.0,0.0,0.0,0.0,0.0,0.0,0.0,0.0,0.0,0.0,0.0,0.0,0.0,0.0,0.0,0.0,0.0,0.0,0.0,0.0,0.0,0.0,0.0,0.0,0.0,0.0,0.0,-1.989,-2.0026,-2.2085,-2.3189,-2.3189,-2.0811,-1.9553,0.0,0.0,0.0,0.0,0.0,0.0,0.0,0.0,0.0,0.0,0.0,0.0,0.0,0.0,0.0,0.0,0.0,0.0,0.0,0.0,0.0,0.0,0.0,0.0,0.0,0.0,0.0,0.0,0.0,0.0,0.0,0.0,0.0,0.0,0.0,0.0,0.0,0.0,0.0,0.0,0.0,0.0,0.0,0.0,0.0,0.0,0.0,0.0,-1.6107,0.0,0.0,0.0,0.0,0.0,0.0,0.0,0.0,0.0,0.0,0.0,0.0,0.0,0.0,0.0,0.0,0.0,0.0,0.0,0.0,0.0,0.0,0.0,0.0,0.0,0.0,0.0,0.0,0.0,0.0,0.0,0.0,0.0,0.0,0.0,0.0,0.0,0.0,0.0,0.0,0.0,0.0,0.0,0.0,0.0,0.0,0.0,0.0,0.0,0.0,0.0,0.0,0.0,0.0,0.0,0.0,0.0,0.0,0.0,-1.9895,-2.1106,-2.2638,-2.3374,-2.3136,-2.097,-1.9934,0.0,0.0,0.0,0.0,0.0,0.0,0.0,0.0,0.0,0.0,0.0,0.0,0.0,0.0,0.0,0.0,0.0,0.0,0.0,0.0,0.0,0.0,0.0,0.0,0.0,0.0,0.0,0.0,0.0,0.0,0.0,0.0,0.0,0.0,0.0,0.0,0.0,0.0,0.0,0.0,0.0,0.0,0.0,0.0,0.0,0.0,0.0,0.0,0.0,0.0,0.0,0.0,0.0,0.0,0.0,0.0,0.0,0.0,0.0,0.0,0.0,0.0,0.0,0.0,0.0,0.0,0.0,0.0,0.0,0.0,0.0,0.0,0.0,0.0,0.0,0.0,0.0,0.0,0.0,0.0,0.0,0.0,0.0,0.0,0.0,0.0,0.0,0.0,0.0,0.0,0.0,0.0,0.0,0.0,0.0,0.0,0.0,0.0,0.0,0.0,0.0,0.0,0.0,0.0,0.0,0.0,0.0,-1.9364,-2.0185,-2.1932,-2.3088,-2.3472,-2.3017,-2.1446,-2.0472,-2.0168,0.0,0.0,0.0,0.0,0.0,0.0,0.0,0.0,0.0,0.0,0.0,0.0,0.0,0.0,0.0,0.0,0.0,0.0,0.0,0.0,0.0,0.0,0.0,0.0,0.0,0.0,0.0,0.0,0.0,0.0,0.0,0.0,0.0,0.0,0.0,0.0,0.0,0.0,-1.5386,-1.5886,0.0,0.0,0.0,0.0,0.0,0.0,0.0,0.0,-1.6064,0.0,0.0,0.0,0.0,0.0,0.0,0.0,0.0,0.0,0.0,0.0,0.0,0.0,0.0,0.0,0.0,0.0,0.0,0.0,0.0,0.0,0.0,0.0,0.0,0.0,0.0,0.0,0.0,0.0,0.0,0.0,0.0,0.0,0.0,0.0,0.0,0.0,0.0,0.0,0.0,0.0,0.0,0.0,0.0,0.0,0.0,0.0,0.0,0.0,0.0,0.0,0.0,0.0,0.0,0.0,0.0,-2.0264,-1.9634,-2.0428,-2.274,-2.34,-2.3238,-2.23,-2.1188,-2.0234,-1.9481,0.0,0.0,0.0,0.0,0.0,0.0,0.0,0.0,0.0,0.0,0.0,0.0,0.0,0.0,0.0,0.0,0.0,0.0,0.0,0.0,0.0,0.0,0.0,0.0,0.0,0.0,0.0,0.0,0.0,0.0,0.0,0.0,0.0,0.0,0.0,0.0,0.0,0.0,0.0,-1.4761,-1.493,0.0,0.0,0.0,0.0,0.0,0.0,0.0,0.0,-1.6637,0.0,0.0,0.0,0.0,0.0,0.0,0.0,0.0,0.0,0.0,0.0,0.0,0.0,0.0,0.0,0.0,0.0,0.0,0.0,0.0,0.0,0.0,0.0,0.0,0.0,0.0,0.0,0.0,0.0,0.0,0.0,0.0,0.0,0.0,0.0,0.0,0.0,0.0,0.0,0.0,0.0,0.0,0.0,0.0,0.0,0.0,0.0,0.0,0.0,0.0,0.0,0.0,0.0,0.0,0.0,-2.0489,-1.9865,-2.061,-2.2905,-2.3235,-2.3012,-2.2296,-2.0578,-1.958,0.0,0.0,0.0,0.0,0.0,0.0,0.0,0.0,0.0,0.0,0.0,0.0,0.0,0.0,0.0,0.0,0.0,0.0,0.0,0.0,0.0,0.0,0.0,0.0,0.0,0.0,0.0,0.0,0.0,0.0,0.0,0.0,0.0,0.0,0.0,0.0,0.0,0.0,0.0,0.0,-1.4748,-1.4816,-1.3528,0.0,0.0,0.0,0.0,0.0,0.0,-1.7595,-1.7776,0.0,0.0,0.0,0.0,0.0,0.0,0.0,0.0,0.0,0.0,0.0,0.0,0.0,0.0,0.0,0.0,0.0,0.0,0.0,0.0,0.0,0.0,0.0,0.0,0.0,0.0,0.0,0.0,0.0,0.0,0.0,0.0,0.0,0.0,0.0,0.0,0.0,0.0,0.0,0.0,0.0,0.0,0.0,0.0,0.0,0.0,0.0,0.0,0.0,0.0,0.0,0.0,0.0,0.0,0.0,-2.0471,-2.0238,-2.0854,-2.2427,-2.2829,-2.2685,-2.2032,-1.974,-1.8823,0.0,0.0,0.0,0.0,0.0,0.0,0.0,0.0,0.0,0.0,0.0,0.0,0.0,0.0,0.0,0.0,0.0,0.0,0.0,0.0,0.0,0.0,0.0,0.0,0.0,0.0,0.0,0.0,0.0,0.0,0.0,0.0,0.0,0.0,0.0,0.0,0.0,0.0,0.0,0.0,0.0,-1.5203,-1.4404,-1.5309,0.0,0.0,0.0,0.0,-1.7778,-1.8461,0.0,0.0,0.0,0.0,0.0,0.0,0.0,0.0,0.0,0.0,0.0,0.0,0.0,0.0,0.0,0.0,0.0,0.0,0.0,0.0,0.0,0.0,0.0,0.0,0.0,0.0,0.0,0.0,0.0,0.0,0.0,0.0,0.0,0.0,0.0,0.0,0.0,0.0,0.0,0.0,0.0,0.0,0.0,0.0,0.0,0.0,0.0,0.0,0.0,0.0,0.0,0.0,0.0,0.0,0.0,0.0,-1.9782,-2.1049,-2.1405,-2.0884,-2.2221,-2.2189,-2.0517,-1.8802,-1.8126,0.0,0.0,0.0,0.0,0.0,0.0,0.0,0.0,0.0,0.0,0.0,0.0,0.0,0.0,0.0,0.0,0.0,0.0,0.0,0.0,0.0,0.0,0.0,0.0,0.0,0.0,0.0,0.0,0.0,0.0,0.0,0.0,0.0,0.0,0.0,0.0,0.0,0.0,0.0,0.0,0.0,-1.6018,-1.4351,-1.5401,-1.6108,0.0,0.0,-1.6936,-1.7762,-1.8608,0.0,0.0,0.0,0.0,0.0,0.0,0.0,0.0,0.0,0.0,0.0,0.0,0.0,0.0,0.0,0.0,0.0,0.0,0.0,0.0,0.0,0.0,0.0,0.0,0.0,0.0,0.0,0.0,0.0,0.0,0.0,0.0,0.0,0.0,0.0,0.0,0.0,0.0,0.0,0.0,0.0,0.0,0.0,0.0,0.0,0.0,0.0,0.0,0.0,0.0,0.0,0.0,0.0,0.0,0.0,-1.9757,-1.9707,-2.0752,-2.104,-2.0554,-2.1224,-2.1193,-2.0367,-1.8302,-1.7651,0.0,0.0,0.0,0.0,0.0,0.0,0.0,0.0,0.0,0.0,0.0,0.0,0.0,0.0,0.0,0.0,0.0,0.0,0.0,0.0,0.0,0.0,0.0,0.0,0.0,0.0,0.0,0.0,0.0,0.0,0.0,0.0,0.0,0.0,0.0,0.0,0.0,0.0,0.0,0.0,0.0,0.0,-1.5837,-1.6767,0.0,0.0,0.0,-1.803,-1.8489,0.0,0.0,0.0,0.0,0.0,0.0,0.0,0.0,0.0,0.0,0.0,0.0,0.0,0.0,0.0,0.0,0.0,0.0,0.0,0.0,0.0,0.0,0.0,0.0,0.0,0.0,0.0,0.0,0.0,0.0,0.0,0.0,0.0,0.0,0.0,0.0,0.0,0.0,0.0,0.0,0.0,0.0,0.0,0.0,0.0,0.0,0.0,0.0,0.0,0.0,0.0,0.0,0.0,0.0,0.0,0.0,0.0,-1.9793,-2.0486,-2.0665,-2.0302,-2.0409,-2.0394,-2.017,-1.8125,0.0,0.0,0.0,0.0,0.0,0.0,0.0,0.0,0.0,0.0,0.0,0.0,0.0,0.0,0.0,0.0,0.0,0.0,0.0,0.0,0.0,0.0,0.0,0.0,0.0,0.0,0.0,-1.9068,0.0,0.0,0.0,0.0,0.0,0.0,0.0,0.0,0.0,0.0,0.0,0.0,0.0,0.0,-1.8175,-1.7563,-1.8301,-1.8892,0.0,0.0,-1.9272,-1.9427,-2.0569,-2.0829,0.0,0.0,0.0,0.0,0.0,0.0,0.0,0.0,0.0,0.0,0.0,0.0,0.0,0.0,0.0,0.0,0.0,0.0,0.0,0.0,0.0,0.0,0.0,0.0,0.0,0.0,0.0,0.0,0.0,0.0,0.0,0.0,0.0,0.0,0.0,0.0,0.0,0.0,0.0,0.0,0.0,0.0,0.0,0.0,0.0,0.0,0.0,0.0,0.0,0.0,0.0,0.0,0.0,0.0,-2.0059,-2.0007,-2.0657,-2.0558,-1.9731,-2.0207,-2.0136,-1.9396,-1.8429,-1.8297,0.0,0.0,0.0,0.0,0.0,0.0,0.0,0.0,0.0,0.0,0.0,0.0,0.0,0.0,0.0,0.0,0.0,0.0,0.0,0.0,0.0,0.0,0.0,0.0,0.0,0.0,0.0,0.0,0.0,0.0,0.0,0.0,0.0,0.0,0.0,0.0,0.0,0.0,0.0,0.0,0.0,-1.9994,-1.9159,-1.9665,-1.9867,0.0,-1.9702,-2.0191,-2.0381,-2.1514,-2.1614,-1.9273,0.0,0.0,0.0,0.0,0.0,0.0,0.0,0.0,0.0,0.0,0.0,0.0,0.0,0.0,0.0,0.0,0.0,0.0,0.0,0.0,0.0,0.0,0.0,0.0,0.0,0.0,0.0,0.0,0.0,0.0,0.0,0.0,0.0,0.0,0.0,0.0,0.0,0.0,0.0,0.0,0.0,0.0,0.0,0.0,0.0,0.0,0.0,0.0,0.0,0.0,0.0,0.0,0.0,-1.9969,-1.9936,-2.0664,-2.0883,-2.0565,-2.109,-2.1274,-2.0975,-2.0034,-1.9618,0.0,0.0,0.0,0.0,0.0,0.0,0.0,0.0,0.0,0.0,0.0,0.0,0.0,0.0,0.0,0.0,0.0,0.0,0.0,0.0,0.0,0.0,0.0,0.0,0.0,0.0,0.0,0.0,-2.0436,-2.0238,-1.9264,0.0,0.0,0.0,0.0,0.0,0.0,0.0,0.0,0.0,0.0,-2.0735,-2.1133,-2.1151,0.0,0.0,-2.1222,-2.1023,-2.0779,-2.1583,-2.1636,-1.9747,-1.9356,0.0,0.0,0.0,0.0,0.0,0.0,0.0,0.0,0.0,0.0,0.0,0.0,0.0,0.0,0.0,0.0,0.0,0.0,0.0,0.0,0.0,0.0,0.0,0.0,0.0,0.0,0.0,0.0,0.0,0.0,0.0,0.0,0.0,0.0,0.0,0.0,0.0,0.0,0.0,0.0,0.0,0.0,0.0,0.0,0.0,0.0,0.0,0.0,0.0,0.0,0.0,0.0,-2.0576,-2.0348,-2.1096,-2.1486,-2.1547,-2.1805,-2.1969,-2.198,-2.1263,-2.0836,0.0,0.0,0.0,0.0,0.0,0.0,0.0,0.0,0.0,0.0,0.0,0.0,0.0,0.0,0.0,0.0,0.0,0.0,0.0,0.0,0.0,0.0,0.0,0.0,0.0,0.0,0.0,0.0,-2.0451,-2.0229,-1.9614,0.0,0.0,0.0,0.0,0.0,0.0,0.0,0.0,0.0,0.0,-2.1646,-2.1917,-2.1859,-2.1837,-2.2025,-2.1641,-2.133,-2.133,-2.1554,-2.1383,-2.0428,0.0,0.0,0.0,0.0,0.0,0.0,0.0,0.0,0.0,0.0,0.0,0.0,0.0,0.0,0.0,0.0,0.0,0.0,0.0,0.0,0.0,0.0,0.0,0.0,0.0,0.0,0.0,-2.2574,0.0,0.0,-2.2646,0.0,0.0,0.0,0.0,0.0,0.0,0.0,0.0,0.0,0.0,0.0,0.0,0.0,0.0,0.0,0.0,0.0,0.0,0.0,0.0,0.0,0.0,-2.2123,-2.1388,-2.1968,-2.2401,-2.2558,-2.209,-2.1919,-2.2043,-2.186,-2.1784,-2.1767,0.0,0.0,0.0,0.0,0.0,0.0,0.0,0.0,0.0,0.0,0.0,0.0,0.0,0.0,0.0,0.0,0.0,0.0,0.0,0.0,0.0,0.0,0.0,0.0,0.0,0.0,-1.9219,-1.8869,-1.9063,0.0,0.0,0.0,0.0,0.0,0.0,0.0,0.0,0.0,-2.0979,-2.2407,-2.2811,-2.1207,-2.1538,-2.1739,-2.104,-2.0677,-2.0878,-2.2117,-2.147,-2.096,0.0,0.0,0.0,0.0,0.0,0.0,0.0,0.0,0.0,0.0,0.0,0.0,0.0,0.0,0.0,0.0,0.0,0.0,0.0,0.0,0.0,0.0,0.0,0.0,0.0,0.0,0.0,-2.5114,-2.5133,0.0,0.0,0.0,0.0,0.0,0.0,0.0,0.0,0.0,0.0,0.0,-2.5339,-2.5562,0.0,0.0,0.0,0.0,0.0,0.0,0.0,0.0,0.0,0.0,0.0,0.0,-2.1674,-2.1474,-2.2799,-2.3529,-2.3602,-2.3721,-2.3814,-2.3866,-2.3547,-2.3144,-2.2611,0.0,0.0,0.0,0.0,0.0,0.0,0.0,0.0,0.0,0.0,0.0,0.0,0.0,0.0,0.0,0.0,0.0,0.0,0.0,0.0,0.0,0.0,0.0,0.0,0.0,-2.124,0.0,0.0,0.0,0.0,0.0,0.0,0.0,0.0,0.0,0.0,0.0,-2.1159,-2.1719,-2.1787,-2.1756,-2.1745,-2.1906,-2.2041,0.0,0.0,0.0,0.0,0.0,0.0,0.0,0.0,0.0,0.0,0.0,0.0,0.0,0.0,-2.1489,-1.9594,-1.9265,-1.9545,-2.0308,0.0,0.0,0.0,0.0,0.0,0.0,0.0,0.0,0.0,0.0,0.0,0.0,0.0,0.0,-2.6734,0.0,-2.6753,0.0,0.0,0.0,0.0,0.0,0.0,0.0,0.0,-2.5014,-2.5581,-2.5979,-2.6527,-2.7079,0.0,-2.7812,-2.711,0.0,0.0,0.0,0.0,0.0,0.0,0.0,0.0,-2.243,-2.1943,-2.3552,-2.4454,-2.4524,-2.471,-2.4818,-2.4793,-2.4414,-2.3989,-2.3546,-2.2683,-2.2354,0.0,0.0,0.0,0.0,0.0,0.0,0.0,0.0,0.0,0.0,0.0,0.0,0.0,0.0,0.0,0.0,0.0,0.0,0.0,0.0,0.0,0.0,0.0,-2.1577,0.0,0.0,0.0,0.0,0.0,0.0,0.0,0.0,0.0,-2.1656,-2.1545,-2.1638,-2.2243,-2.2047,-2.1889,-2.1886,0.0,0.0,0.0,0.0,0.0,0.0,0.0,-2.0083,-1.99,-1.9952,-2.0206,-2.0797,-2.0914,-2.097,-2.1237,0.0,0.0,-2.0682,-2.041,-2.065,-2.1077,-2.1084,-2.1066,-2.1187,-2.1171,-2.1068,0.0,0.0,0.0,0.0,0.0,0.0,0.0,0.0,-2.7841,-2.7355,0.0,-2.7412,0.0,0.0,0.0,0.0,0.0,-2.6405,0.0,0.0,-2.5874,-2.6214,-2.56,-2.7139,-2.7881,-2.7918,-2.8464,-2.8341,-2.7572,-2.6858,0.0,0.0,0.0,0.0,0.0,0.0,-2.4296,-2.2834,-2.4216,-2.5091,-2.5264,-2.4966,-2.481,-2.4801,-2.4431,-2.4303,-2.4476,-2.3546,-2.3437,-2.4172,-2.2739,0.0,0.0,0.0,0.0,0.0,0.0,0.0,0.0,0.0,0.0,0.0,0.0,0.0,0.0,0.0,0.0,0.0,0.0,0.0,0.0,-2.1067,0.0,0.0,0.0,0.0,0.0,0.0,0.0,0.0,0.0,0.0,-2.172,-2.1907,-2.2231,-2.241,0.0,0.0,0.0,0.0,-2.1354,-1.9721,-1.934,-1.933,-1.9386,-1.9758,-2.0493,-2.1655,0.0,0.0,-2.2923,-2.2373,-2.1877,-2.1894,-2.2575,-2.2685,-2.1563,-2.1596,-2.1771,-2.1694,-2.2079,-2.2263,-2.1826,-2.1771,-2.1589,-2.9696,0.0,0.0,0.0,0.0,-2.8086,-2.8813,-2.9646,-2.9574,-2.9413,-2.9171,-2.8833,0.0,0.0,0.0,0.0,0.0,0.0,-2.7056,-2.6606,-2.7758,-2.8126,-2.7818,-2.8866,-2.937,-2.9367,-2.9546,-2.9613,-2.9525,-2.8734,-2.7589,-2.6174,0.0,0.0,0.0,0.0,-2.4032,-2.3726,-2.4687,-2.5245,-2.5313,-2.5072,-2.4901,-2.4823,-2.4679,-2.4654,-2.4716,-2.4286,-2.4447,-2.5208,-2.4137,0.0,0.0,0.0,0.0,0.0,0.0,0.0,0.0,0.0,0.0,0.0,0.0,0.0,0.0,0.0,0.0,0.0,0.0,0.0,-2.1147,-2.1838,-2.2073,0.0,0.0,0.0,0.0,0.0,0.0,0.0,0.0,0.0,-2.3138,-2.2148,-2.1448,0.0,0.0,-2.0764,-2.0098,-2.069,-2.1194,-2.1083,-2.1053,0.0,-2.1825,-2.1551,-2.1406,-2.1771,-2.2429,-2.2923,-2.2997,-2.329,-2.3511,-2.3492,-2.3676,-2.3768,-2.362,-2.351,-2.3467,-2.3453,-2.3564,-2.3619,-2.351,-2.3436,-2.3381,-3.2846,-3.0298,-2.9302,-2.9083,-2.9445,-2.988,-3.0772,-3.1885,-3.1507,-3.1347,-3.1282,-3.0809,-2.987,-2.8676,-2.8996,0.0,0.0,0.0,-2.8876,-2.8238,-2.9503,-2.9857,-2.9513,-3.0288,-3.0693,-3.0677,-3.0677,-3.0579,-3.04,-2.9855,-2.8823,-2.735,0.0,0.0,-2.4884,-2.5256,-2.5318,-2.509,-2.589,-2.6343,-2.6323,-2.5803,-2.5499,-2.5495,-2.5064,-2.4965,-2.5375,-2.5126,-2.5536,-2.6742,-2.582,-2.5523,0.0,0.0,0.0,0.0,0.0,0.0,0.0,0.0,0.0,0.0,0.0,-2.2824,-2.1166,0.0,0.0,0.0,-2.2059,-2.2102,-2.2881,-2.3029,0.0,0.0,0.0,0.0,0.0,0.0,0.0,-2.2016,-2.3543,-2.4429,-2.3812,-2.3193,-2.277,-2.2585,-2.2205,-2.1512,-2.0325,0.0,-2.1924,-2.2094,-2.195,-2.1877,-2.2134,-2.2244,-2.2373,-2.2703,-2.3125,-2.3456,-2.3511,-2.3896,-2.4209,-2.4284,-2.4303,-2.4375,-2.4575,-2.4479,-2.4358,-2.4321,-2.4266,-2.419,-2.419,-2.419,-2.419,-3.6017,-3.4395,-3.2019,-3.1366,-3.1908,-3.2042,-3.2972,-3.4312,-3.3541,-3.3223,-3.3199,-3.3045,-3.1994,-3.0379,-3.1083,0.0,-3.1723,-3.1703,-3.0871,-2.9459,-3.1056,-3.1359,-3.0624,-3.1401,-3.1724,-3.1669,-3.1665,-3.1237,-3.0417,-3.0321,-2.9848,-2.8998,-2.8207,-2.7266,-2.632,-2.7101,-2.7217,-2.6512,-2.7267,-2.7759,-2.7875,-2.694,-2.6515,-2.6687,-2.5609,-2.5479,-2.6384,-2.6064,-2.6666,-2.8369,-2.7545,-2.7561,-2.8669,0.0,0.0,0.0,0.0,0.0,0.0,0.0,0.0,0.0,0.0,0.0,0.0,0.0,0.0,0.0,-2.4245,0.0,-2.5324,-2.4602,0.0,0.0,0.0,-2.4233,-2.5105,-2.5912,-2.5647,-2.3676,0.0,0.0,-2.411,-2.4812,-2.5485,-2.5428,-2.5192,-2.4169,-2.1821,-2.269,-2.338,-2.3046,-2.2571,-2.2073,-2.1963,-2.2628,-2.3511,-2.4135,-2.4281,-2.4282,-2.4263,-2.4208,-2.4284,-2.4444,-2.4495,-2.4559,-2.479,-2.47,-2.461,-2.4543,-2.4357,-2.419,-2.419,-2.419,-2.419,-3.8462,-3.7978,-3.6733,-3.5213,-3.3724,-3.4955,-3.5746,-3.6084,-3.5897,-3.5786,-3.5729,-3.4447,-3.3269,-3.2256,-3.243,-3.2557,-3.2595,-3.2576,-3.2384,-3.2026,-3.2403,-3.2423,-3.2095,-3.2286,-3.2038,-3.1423,-3.1413,-3.1057,-3.0417,-3.0379,-2.9586,-2.8176,-2.7896,-2.702,-2.5603,-2.5726,-2.5768,-2.5609,-2.5821,-2.6559,-2.7846,-2.7643,-2.755,-2.7582,-2.7316,-2.7275,-2.7508,-2.7268,-2.7647,-2.8646,-2.8326,-2.8544,-2.9477,-2.8178,0.0,0.0,0.0,0.0,0.0,0.0,0.0,0.0,0.0,-2.5576,-2.3138,0.0,-2.3303,0.0,-2.609,-2.6976,-2.716,-2.6898,0.0,0.0,-2.6469,-2.6138,-2.7609,-2.7483,-2.6638,-2.4946,-2.6359,-2.7166,-2.6285,-2.6785,-2.7445,-2.8011,-2.6453,-2.4927,-2.4157,-2.4915,-2.5513,-2.5326,-2.5584,-2.574,-2.501,-2.5022,-2.5114,-2.5109,-2.5111,-2.5094,-2.509,-2.4593,-2.4284,-2.4462,-2.4512,-2.462,-2.4904,-2.4836,-2.4799,-2.4818,-2.4524,-2.419,-2.419,-2.419,-2.419,-3.9973,-3.9285,-3.9157,-3.808,-3.6517,-3.7051,-3.7494,-3.7834,-3.7448,-3.749,-3.7766,-3.6488,-3.5617,-3.5149,-3.4762,-3.4595,-3.4576,-3.4236,-3.3857,-3.3517,-3.4231,-3.4139,-3.3353,-3.3705,-3.3446,-3.2588,-3.2201,-3.1667,-3.1025,-3.1338,-3.0833,-2.9567,-2.9539,-2.8884,-2.755,-2.6028,-2.5633,-2.6395,-2.7182,-2.823,-2.9505,-2.9198,-2.8645,-2.7879,-2.711,-2.6734,-2.6743,-2.6154,-2.6416,-2.7682,-2.759,-2.7911,-2.8836,-2.8025,-2.7525,0.0,0.0,0.0,0.0,0.0,0.0,0.0,0.0,0.0,0.0,0.0,-2.6136,-2.6312,-2.8241,-2.9173,-2.8411,-2.8581,-2.9104,-2.9945,-2.9153,-2.9082,-3.0437,-3.0209,-2.9525,-2.8394,-2.9017,-2.9475,-2.9278,-2.9074,-2.9129,-2.9617,-2.8464,-2.7198,-2.6346,-2.6587,-2.6828,-2.6687,-2.7002,-2.7179,-2.6744,-2.6561,-2.6432,-2.6246,-2.5912,-2.5671,-2.5651,-2.5,-2.4545,-2.4678,-2.4723,-2.4804,-2.5065,-2.5072,-2.5024,-2.4937,-2.4818,-2.4588,-2.4266,-2.419,-2.4228,-4.1101,-3.9838,-4.0412,-4.0277,-3.955,-3.8671,-3.8748,-3.94,-3.8654,-3.8693,-3.9246,-3.8498,-3.8122,-3.7968,-3.7209,-3.6881,-3.6804,-3.6136,-3.5416,-3.4793,-3.6194,-3.6098,-3.4735,-3.5474,-3.532,-3.4351,-3.3603,-3.2769,-3.1896,-3.2574,-3.2439,-3.1569,-3.1538,-3.1102,-3.014,-2.7135,-2.6346,-2.7781,-2.9605,-3.0936,-3.1635,-3.0725,-2.9483,-2.7992,-2.6436,-2.5638,-2.5587,-2.4674,-2.4929,-2.6535,-2.6499,-2.6982,-2.8183,-2.8032,-2.7675,0.0,-2.7766,0.0,0.0,0.0,0.0,0.0,0.0,0.0,0.0,-3.0439,-2.98,-2.8264,-3.0247,-3.1079,-2.9778,-3.0292,-3.1084,-3.1968,-3.2,-3.2244,-3.2968,-3.2968,-3.2699,-3.2167,-3.1872,-3.1744,-3.1667,-3.0994,-3.0379,-3.034,-3.0398,-2.9805,-2.8505,-2.8096,-2.7967,-2.7736,-2.7687,-2.7884,-2.7619,-2.7631,-2.7694,-2.745,-2.689,-2.6336,-2.6396,-2.5601,-2.5055,-2.5273,-2.531,-2.5256,-2.5437,-2.5399,-2.5203,-2.503,-2.5118,-2.5031,-2.4465,-2.4303,-2.4373,-4.2668,-4.2341,-4.1786,-4.1463,-4.1251,-4.0389,-4.0119,-4.0258,-4.0104,-3.9742,-3.9285,-3.9127,-3.8681,-3.8003,-3.7824,-3.7743,-3.7756,-3.7602,-3.7439,-3.7315,-3.7607,-3.7588,-3.7296,-3.745,-3.6704,-3.5301,-3.5089,-3.4205,-3.2673,-3.2813,-3.2127,-3.0676,-3.065,-3.0222,-2.9334,0.0,0.0,0.0,-3.017,-3.1469,-3.1559,-3.0074,-2.9102,-2.8751,-2.7831,0.0,-2.7328,-2.7102,-2.7179,-2.7539,-2.7505,0.0,0.0,0.0,0.0,0.0,0.0,0.0,0.0,0.0,0.0,0.0,-3.0983,-3.091,-3.1235,-3.1259,-3.0912,-3.0044,-3.095,-3.2052,-3.309,-3.334,-3.3788,-3.4614,-3.4128,-3.3795,-3.391,-3.3353,-3.2699,-3.2179,-3.1872,-3.1468,-3.0956,-3.0513,-3.0417,-3.0533,-3.1006,-3.1302,-3.095,-3.0247,-2.987,-2.9806,-2.9647,-2.943,-2.8654,-2.9197,-2.9275,-2.859,-2.8198,-2.8003,-2.7865,-2.6688,-2.6143,-2.6797,-2.6537,-2.6109,-2.6243,-2.5783,-2.5274,-2.5243,-2.5264,-2.518,-2.4762,-2.4673,-2.4738,-4.3448,-4.3066,-4.2624,-4.2217,0.0,-4.1328,-4.0889,-4.0489,-4.0489,-4.0492,-4.0495,-4.0088,-3.9892,-3.9831,-3.9016,-3.8631,-3.8618,-3.82,-3.7993,-3.8016,-3.843,-3.8426,-3.8007,-3.845,-3.7757,-3.6117,-3.6084,-3.5205,-3.3628,-3.3962,-3.3539,-3.2282,-3.2294,-3.2281,-3.225,-3.1827,-3.0975,-2.9682,-3.1366,-3.2443,-3.2814,-3.2026,-3.1149,-3.033,-2.9505,0.0,0.0,0.0,0.0,0.0,0.0,0.0,0.0,-3.0119,0.0,-3.136,-3.1507,-3.1864,-3.2508,-3.3091,-3.3954,-3.5151,-3.4908,-3.4175,-3.2891,-3.3207,-3.3325,-3.2955,-3.3288,-3.3884,-3.4737,-3.4834,-3.5026,-3.5416,-3.5103,-3.4834,-3.4795,-3.4449,-3.4103,-3.3782,-3.3276,-3.2756,-3.2346,-3.1864,-3.166,-3.166,-3.1994,-3.2282,-3.2218,-3.1583,-3.0929,-3.0506,-3.0398,-3.0201,-2.9768,-2.9985,-3.0239,-2.9563,-2.9098,-2.8835,-2.8796,-2.7548,-2.6657,-2.7017,-2.6837,-2.6546,-2.5994,-2.5572,-2.5313,-2.5313,-2.5313,-2.5261,-2.5069,-2.4907,-2.4835,-4.4128,-4.3534,-4.3363,-4.2879,-4.2233,-4.1921,-4.1386,-4.0735,0.0,0.0,0.0,-4.1204,-4.137,-4.1902,-4.0431,-3.9742,-3.9685,-3.8827,-3.8447,-3.8466,-3.9169,-3.9127,-3.8488,-3.9185,-3.8685,-3.7194,-3.7142,-3.6372,-3.493,-3.5603,-3.5482,-3.4706,-3.4628,-3.4922,-3.5468,-3.5507,-3.4449,-3.2429,-3.284,-3.3455,-3.4147,-3.3909,-3.305,-3.1629,-3.0816,-3.0035,-2.9351,-2.8783,-2.8802,-2.9505,-2.9678,-3.0215,-3.1124,-3.1194,-3.136,-3.1687,-3.2338,-3.3643,-3.5686,-3.5869,-3.6767,-3.8931,-3.8411,-3.7017,-3.4731,-3.5407,-3.5815,-3.5545,-3.5641,-3.5661,-3.5507,-3.5507,-3.5507,-3.5507,-3.5507,-3.5488,-3.5488,-3.5507,-3.5339,-3.5257,-3.4526,-3.4116,-3.384,-3.3231,-3.2891,-3.2897,-3.2981,-3.3134,-3.3006,-3.2275,-3.141,-3.0852,-3.0583,-3.0379,-3.0379,-3.0359,-3.0398,-3.029,-2.9763,-2.9352,-2.914,-2.8255,-2.7448,-2.7561,-2.7371,-2.7033,-2.6245,-2.611,-2.5822,-2.5572,-2.5649,-2.5687,-2.5543,-2.5187,-2.496,-4.5336,-4.5201,-4.4435,-4.4051,-4.3838,-4.2406,-4.1728,-4.1597,-4.1617,-4.1697,-4.1841,-4.2477,-4.2799,-4.2876,-4.1882,-4.1443,-4.1405,-4.0527,-4.0162,-4.0142,-4.0277,-4.0258,-4.0162,-4.0277,-3.9854,-3.8992,-3.8931,-3.8426,-3.7565,-3.7569,-3.7217,-3.6439,-3.6342,-3.6059,-3.5545,-3.5507,-3.5334,-3.4936,-3.4288,-3.3986,-3.4101,-3.2703,-3.1864,-3.1571,-3.0817,-3.0292,-3.0227,-3.0816,-3.1111,-3.1258,-3.1969,-3.3064,-3.4562,-3.4655,-3.5348,-3.676,-3.7021,-3.7262,-3.7589,-3.7627,-3.7796,-3.8123,-3.8065,-3.7526,-3.6493,-3.7127,-3.7065,-3.5718,-3.6108,-3.6238,-3.5608,-3.5507,-3.5507,-3.5507,-3.5507,-3.5507,-3.5507,-3.5488,-3.5257,-3.4603,-3.4295,-3.3949,-3.3423,-3.3103,-3.3071,-3.307,-3.3634,-3.4007,-3.3718,-3.2679,-3.1775,-3.1448,-3.0871,-3.0456,-3.0398,-3.0398,-3.0398,-3.0398,-3.0294,-3.0102,-3.0102,-2.9371,-2.8929,-2.964,-2.9044,-2.8621,-2.8352,-2.8371,-2.7591,-2.6717,-2.6851,-2.7178,-2.6544,-2.5791,-2.5301,-4.5586,-4.5547,-4.5163,-4.4722,-4.4205,-4.3002,-4.2521,-4.2549,-4.2989,-4.3145,-4.3167,-4.3113,-4.3359,-4.366,-4.2893,-4.2505,-4.2476,-4.1597,-4.1466,-4.1816,-4.0931,-4.0754,-4.1135,-4.0735,-4.0069,-3.9342,-3.9296,-3.8849,-3.8065,-3.7993,-3.7781,-3.7387,-3.6958,-3.6516,-3.6155,-3.5718,-3.5507,-3.5507,-3.5089,-3.4864,-3.4845,-3.4107,-3.3722,-3.3717,-3.3717,-3.3794,-3.3826,-3.4628,-3.507,-3.507,-3.5435,-3.6012,-3.6743,-3.681,-3.717,-3.7926,-3.7993,-3.8208,-3.8685,-3.9104,-3.9354,-3.9354,-3.9354,-3.9008,-3.818,-3.8027,-3.768,-3.693,-3.6796,-3.6546,-3.6175,-3.5757,-3.5507,-3.5507,-3.5507,-3.5507,-3.5507,-3.5507,-3.5334,-3.4968,-3.4911,-3.4757,-3.4353,-3.4314,-3.432,-3.4351,-3.4705,-3.4737,-3.4257,-3.316,-3.2179,-3.1737,-3.0987,-3.0456,-3.0398,-3.0398,-3.0398,-3.0398,-3.0398,-3.0398,-3.0379,-2.9987,-2.9833,-2.966,-2.9236,-2.8813,-2.8582,-2.8602,-2.8102,-2.7294,-2.7659,-2.7852,-2.7072,-2.6467,-2.6053,-4.5586,-4.5586,-4.5586,-4.5105,-4.4263,-4.3849,-4.3564,-4.3457,-4.4224,-4.4607,-4.4511,-4.3918,-4.4013,-4.4474,-4.3726,-4.3376,-4.325,-4.2483,-4.2447,-4.2893,-4.172,-4.1351,-4.1748,-4.1274,-4.0646,-3.9938,-3.9854,-3.9523,-3.8911,-3.8671,-3.846,-3.8219,-3.7411,-3.7002,-3.6978,-3.6372,-3.6065,-3.6065,-3.5872,-3.5699,-3.5507,-3.5507,-3.557,-3.5815,-3.6161,-3.6603,-3.6988,-3.7642,-3.8084,-3.8277,-3.8488,-3.8604,-3.8604,-3.8604,-3.8604,-3.8589,-3.8593,-3.8846,-3.9515,-4.0142,-4.0489,-4.0489,-4.0527,-4.0292,-3.9657,-3.9027,-3.8411,-3.8027,-3.7584,-3.7257,-3.6983,-3.6502,-3.6065,-3.6065,-3.5949,-3.6012,-3.6045,-3.5757,-3.5705,-3.5911,-3.5757,-3.5545,-3.568,-3.5603,-3.543,-3.5378,-3.5507,-3.5218,-3.4545,-3.3737,-3.2949,-3.2256,-3.1237,-3.0456,-3.0417,-3.0698,-3.0775,-3.0737,-3.091,-3.0987,-3.0891,-3.0737,-3.0352,-2.9737,-2.9333,-2.9121,-2.8659,-2.8832,-2.8679,-2.7928,-2.8467,-2.8841,-2.8148,-2.7467,-2.6879,-4.5586,-4.5586,-4.5586,-4.5105,-4.4435,-4.5028,-4.4874,-4.4339,-4.5105,-4.547,-4.5413,-4.5374,-4.5355,-4.5355,-4.4587,-4.4186,-4.4126,-4.3342,-4.3052,-4.3126,-4.2919,-4.2492,-4.1982,-4.2505,-4.2415,-4.161,-4.1524,-4.1405,-4.12,-4.0527,-3.9873,-3.915,-3.8308,-3.7882,-3.7868,-3.7757,-3.7757,-3.7738,-3.6983,-3.6232,-3.5545,-3.5507,-3.5853,-3.6551,-3.5968,-3.6334,-3.7815,-3.7969,-3.8392,-3.9142,-3.9965,-4.0427,-4.0408,-4.0427,-4.0446,-4.0408,-4.0296,-4.0315,-4.0373,-4.045,-4.0508,-4.0508,-4.062,-4.0654,-4.0539,-4.0519,-3.9792,-3.8604,-3.8681,-3.8623,-3.7988,-3.7738,-3.7584,-3.7392,-3.718,-3.7219,-3.7353,-3.643,-3.6065,-3.7642,-3.643,-3.5757,-3.6309,-3.593,-3.5507,-3.5507,-3.5507,-3.5411,-3.5084,-3.4468,-3.3872,-3.3449,-3.2006,-3.0648,-3.0602,-3.1318,-3.1549,-3.1564,-3.2134,-3.2076,-3.1641,-3.1448,-3.1295,-3.0506,-3.016,-3.0013,-3.0044,-3.0186,-2.984,-2.914,-2.9448,-3.011,-2.989,-2.8929,-2.7717,-4.5586,-4.5586,-4.5586,-4.5393,-4.5163,-4.547,-4.5393,-4.5124,-4.5432,-4.5586,-4.5586,-4.5586,-4.5586,-4.5566,-4.522,-4.5086,-4.4991,-4.4205,-4.409,-4.4432,-4.3573,-4.315,-4.3297,-4.3104,-4.2896,-4.2593,-4.2585,-4.2313,-4.1739,-4.1008,-4.0469,-4.0142,-3.9362,-3.89,-3.8781,-3.8392,-3.8176,-3.8118,-3.78,-3.7467,-3.7145,-3.6612,-3.6694,-3.7392,-3.7661,-3.806,-3.8719,-3.9219,-3.9681,-4.01,-4.0504,-4.0703,-4.0757,-4.0756,-4.0773,-4.0754,-4.0716,-4.0677,-4.0677,-4.0677,-4.0677,-4.0696,-4.0735,-4.0747,-4.0746,-4.0787,-4.0428,-3.9841,-3.9565,-3.9281,-3.8854,-3.843,-3.7911,-3.743,-3.7469,-3.7603,-3.7219,-3.7103,-3.7315,-3.7834,-3.6949,-3.6315,-3.6507,-3.6007,-3.5545,-3.5507,-3.5507,-3.5411,-3.4853,-3.441,-3.4007,-3.3449,-3.2468,-3.1756,-3.1371,-3.1641,-3.1737,-3.1352,-3.1621,-3.1948,-3.1929,-3.1872,-3.1725,-3.1218,-3.0717,-3.0417,-3.0321,-3.0398,-3.0244,-2.9929,-2.9967,-3.0398,-3.0398,-2.9871,-2.9063,-4.6142,-4.595,-4.5719,-4.5586,-4.5586,-4.5586,-4.5586,-4.5586,-4.5586,-4.5586,-4.5586,-4.5586,-4.5586,-4.5586,-4.5586,-4.5586,-4.5509,-4.4953,-4.4991,-4.5432,-4.432,-4.3974,-4.4243,-4.3991,-4.3665,-4.3457,-4.3472,-4.3047,-4.2255,-4.1732,-4.1354,-4.111,-4.0571,-4.0115,-3.9755,-3.9245,-3.8965,-3.8891,-3.8761,-3.8761,-3.8839,-3.8111,-3.7924,-3.8428,-3.883,-3.9253,-3.9696,-4.0023,-4.0369,-4.0716,-4.0754,-4.0795,-4.0839,-4.0846,-4.0846,-4.0797,-4.0803,-4.0803,-4.0803,-4.0816,-4.0816,-4.0803,-4.0829,-4.0853,-4.0848,-4.0885,-4.0927,-4.0829,-4.0386,-3.9998,-3.9735,-3.9237,-3.8584,-3.793,-3.8161,-3.8027,-3.795,-3.8161,-3.8315,-3.8527,-3.7796,-3.7065,-3.6974,-3.6622,-3.6257,-3.5949,-3.5853,-3.5526,-3.4776,-3.4584,-3.4353,-3.3737,-3.3622,-3.316,-3.2314,-3.2519,-3.2122,-3.1948,-3.2256,-3.2602,-3.2275,-3.2391,-3.2025,-3.1468,-3.0852,-3.0467,-3.0398,-3.0398,-3.0398,-3.0398,-3.0398,-3.0398,-3.0398,-3.0217,-2.991,-4.7561,-4.6718,-4.595,-4.5586,-4.5586,-4.5586,-4.5586,-4.5586,-4.5586,-4.5586,-4.5586,-4.5586,-4.5586,-4.5586,-4.5586,-4.5586,-4.5586,-4.5509,-4.549,-4.5566,-4.5432,-4.503,-4.4378,-4.5086,-4.5028,-4.432,-4.4395,-4.4058,-4.3346,-4.32,-4.2858,-4.2044,-4.1875,-4.1523,-4.0781,-4.0586,-4.0649,-4.0471,-3.9888,-3.9902,-4.0461,-3.9921,-3.9514,-3.9477,-3.876,-3.9167,-4.0369,-3.9903,-3.9884,-4.0754,-4.0947,-4.1016,-4.1026,-4.1019,-4.0984,-4.0894,-4.0843,-4.0863,-4.0921,-4.0921,-4.0882,-4.0857,-4.0974,-4.0988,-4.0991,-4.1082,-4.115,-4.1157,-4.1052,-4.0909,-4.0691,-4.0431,-4.0347,-4.0196,-3.9384,-3.9364,-4.0215,-3.9292,-3.9354,-3.9796,-3.8892,-3.7969,-3.7906,-3.7945,-3.7334,-3.681,-3.6603,-3.6276,-3.5526,-3.5353,-3.5276,-3.5238,-3.5084,-3.4776,-3.3353,-3.3269,-3.3763,-3.3462,-3.3141,-3.3872,-3.3583,-3.316,-3.2468,-3.1737,-3.1141,-3.0737,-3.0494,-3.0398,-3.0398,-3.0398,-3.0398,-3.0398,-3.0398,-2.9679,-2.9525,-4.6854,-4.6046,-4.5738,-4.5586,-4.5586,-4.5586,-4.5586,-4.5586,-4.5586,-4.5586,-4.5586,-4.5586,-4.5586,-4.5586,-4.5586,-4.5586,-4.5586,-4.5586,-4.5586,-4.5586,-4.5586,-4.5432,-4.522,-4.5547,-4.5586,-4.5316,-4.5336,-4.5028,-4.424,-4.3264,-4.2577,-4.2363,-4.2285,-4.1836,-4.1113,-4.1023,-4.1023,-4.0916,-4.0691,-4.0779,-4.0991,-4.0792,-4.0649,-4.0602,-4.022,-4.0235,-4.0789,-4.0474,-4.0517,-4.0924,-4.1501,-4.1841,-4.1896,-4.1884,-4.1873,-4.1839,-4.1836,-4.207,-4.25,-4.2129,-4.1816,-4.1794,-4.1378,-4.1152,-4.112,-4.1172,-4.1195,-4.1191,-4.1191,-4.1126,-4.1055,-4.0945,-4.0641,-4.0139,-4.0082,-4.0014,-4.0039,-4.0004,-4.0273,-4.0427,-3.9604,-3.8742,-3.8315,-3.8055,-3.7651,-3.6911,-3.6719,-3.6392,-3.5757,-3.5507,-3.5603,-3.5507,-3.5488,-3.5315,-3.4814,-3.4231,-3.4097,-3.375,-3.3603,-3.3968,-3.391,-3.4257,-3.3833,-3.2641,-3.1852,-3.1013,-3.0782,-3.0398,-3.0398,-3.0398,-3.0398,-3.0398,-3.0398,-2.9948,-2.9987,-4.695,-4.6371,-4.5815,-4.5586,-4.5586,-4.5586,-4.5586,-4.5586,-4.5586,-4.5586,-4.5586,-4.5586,-4.5586,-4.5586,-4.5586,-4.5586,-4.5586,-4.5586,-4.5586,-4.5586,-4.5661,-4.568,-4.5699,-4.5796,-4.5834,-4.5834,-4.593,-4.57,-4.5245,-4.4143,-4.3487,-4.3281,-4.3242,-4.2637,-4.168,-4.1543,-4.1445,-4.1182,-4.1163,-4.1201,-4.1217,-4.1457,-4.1595,-4.1636,-4.1769,-4.1557,-4.0974,-4.0897,-4.0937,-4.113,-4.1634,-4.1979,-4.2012,-4.2012,-4.2129,-4.2344,-4.2383,-4.2773,-4.3476,-4.3144,-4.2695,-4.2402,-4.1933,-4.1523,-4.1269,-4.1191,-4.1191,-4.1191,-4.1191,-4.1191,-4.1191,-4.1113,-4.0801,-4.0266,-4.0518,-4.0615,-4.0176,-4.0494,-4.0726,-4.0694,-4.0256,-3.9619,-3.9161,-3.8977,-3.8531,-3.7661,-3.7526,-3.7161,-3.6315,-3.6219,-3.6026,-3.568,-3.5782,-3.5724,-3.5391,-3.493,-3.4808,-3.4487,-3.391,-3.418,-3.4507,-3.4949,-3.4718,-3.3583,-3.2564,-3.1628,-3.0975,-3.0552,-3.0436,-3.0456,-3.0398,-3.0398,-3.0398,-3.0398,-3.0379,-4.8043,-4.7677,-4.6294,-4.5586,-4.5586,-4.5586,-4.5586,-4.5586,-4.5586,-4.5586,-4.5586,-4.5586,-4.5586,-4.5586,-4.5605,-4.5605,-4.5605,-4.5624,-4.5624,-4.5624,-4.5757,-4.5796,-4.5796,-4.5877,-4.5924,-4.5928,-4.6018,-4.6122,-4.6132,-4.584,-4.543,-4.5,-4.4766,-4.3887,-4.2422,-4.2383,-4.2051,-4.1582,-4.1465,-4.1387,-4.1328,-4.2051,-4.2422,-4.25,-4.3105,-4.2832,-4.1387,-4.1218,-4.1286,-4.1348,-4.1406,-4.1289,-4.1523,-4.1601,-4.1758,-4.2519,-4.2539,-4.293,-4.3691,-4.3789,-4.3359,-4.2851,-4.248,-4.209,-4.1504,-4.1348,-4.1289,-4.1211,-4.1191,-4.1191,-4.1191,-4.1191,-4.1152,-4.1151,-4.0964,-4.085,-4.0906,-4.0859,-4.0821,-4.0816,-4.0699,-4.0757,-4.0688,-4.0423,-3.9927,-3.92,-3.895,-3.8507,-3.7373,-3.7353,-3.7103,-3.643,-3.6372,-3.6565,-3.6045,-3.5532,-3.5532,-3.5411,-3.4757,-3.4526,-3.4814,-3.5147,-3.4757,-3.3776,-3.291,-3.2025,-3.1525,-3.1141,-3.0975,-3.0936,-3.0725,-3.0667,-3.0717,-3.0775,-3.0533,-4.7778,-4.7159,-4.6084,-4.5586,-4.5586,-4.5586,-4.5586,-4.5586,-4.5586,-4.5586,-4.5586,-4.5586,-4.5586,-4.5605,-4.568,-4.5738,-4.5757,-4.5776,-4.5776,-4.5755,-4.5815,-4.5892,-4.5896,-4.5978,-4.6084,-4.6045,-4.5596,-4.5703,-4.6113,-4.5742,-4.5234,-4.5058,-4.5039,-4.4414,-4.3359,-4.3301,-4.3125,-4.2949,-4.291,-4.291,-4.293,-4.3144,-4.3281,-4.332,-4.3574,-4.3418,-4.2969,-4.2884,-4.2884,-4.2871,-4.291,-4.293,-4.3008,-4.3496,-4.3926,-4.4141,-4.418,-4.457,-4.5254,-4.4922,-4.4473,-4.4121,-4.3652,-4.291,-4.2168,-4.2051,-4.1797,-4.1367,-4.1191,-4.1191,-4.1191,-4.1191,-4.125,-4.1211,-4.1126,-4.1074,-4.1113,-4.1094,-4.1077,-4.1058,-4.0996,-4.0959,-4.0968,-4.0878,-4.0371,-3.9623,-3.9392,-3.8911,-3.8142,-3.8046,-3.8546,-3.8738,-3.8334,-3.7469,-3.6988,-3.6507,-3.6276,-3.5968,-3.5353,-3.4872,-3.5122,-3.5185,-3.4757,-3.4122,-3.3237,-3.2602,-3.2102,-3.1737,-3.1545,-3.1737,-3.1833,-3.1679,-3.141,-3.1198,-3.1013,-4.8298,-4.7735,-4.6908,-4.6544,-4.6525,-4.6525,-4.6506,-4.6467,-4.62,-4.6084,-4.6065,-4.5757,-4.5624,-4.5661,-4.5719,-4.5738,-4.5757,-4.5853,-4.5862,-4.5854,-4.5938,-4.5986,-4.5989,-4.6103,-4.6211,-4.6191,-4.5762,-4.5762,-4.625,-4.5781,-4.5488,-4.5488,-4.5488,-4.5058,-4.4277,-4.416,-4.4082,-4.3769,-4.3672,-4.3711,-4.3769,-4.4023,-4.418,-4.4238,-4.4512,-4.4668,-4.4668,-4.4668,-4.4355,-4.3848,-4.3711,-4.3711,-4.375,-4.418,-4.4648,-4.4941,-4.5058,-4.5351,-4.6094,-4.5742,-4.5312,-4.498,-4.4492,-4.3808,-4.3105,-4.2891,-4.2598,-4.2246,-4.1855,-4.1777,-4.2051,-4.1816,-4.168,-4.1641,-4.1348,-4.123,-4.1191,-4.1191,-4.1191,-4.1172,-4.1113,-4.1133,-4.1113,-4.0964,-4.0587,-4.0014,-3.9854,-3.97,-3.9084,-3.8988,-3.9565,-3.9758,-3.8988,-3.8334,-3.7969,-3.7526,-3.7065,-3.6507,-3.5892,-3.5488,-3.5391,-3.5391,-3.5122,-3.443,-3.3622,-3.3179,-3.2699,-3.2199,-3.1936,-3.2372,-3.2814,-3.2429,-3.2045,-3.1795,-3.1494,-4.9471,-4.935,-4.8447,-4.7967,-4.7967,-4.7948,-4.789,-4.789,-4.7276,-4.7006,-4.6852,-4.6175,-4.5841,-4.5871,-4.5911,-4.5892,-4.5776,-4.6063,-4.6185,-4.6131,-4.6114,-4.6119,-4.6113,-4.6225,-4.6269,-4.6269,-4.623,-4.625,-4.6289,-4.6211,-4.6289,-4.6191,-4.6133,-4.5898,-4.5215,-4.5058,-4.4726,-4.4199,-4.4004,-4.4023,-4.4043,-4.4668,-4.5058,-4.5098,-4.5723,-4.6074,-4.6035,-4.5996,-4.5371,-4.4043,-4.3984,-4.4062,-4.3867,-4.3808,-4.4473,-4.5156,-4.5117,-4.5547,-4.6113,-4.6211,-4.5898,-4.5273,-4.5117,-4.4746,-4.4101,-4.3867,-4.3652,-4.3418,-4.2871,-4.2773,-4.3223,-4.293,-4.2519,-4.2363,-4.1719,-4.1289,-4.1269,-4.1328,-4.1348,-4.1269,-4.1211,-4.123,-4.125,-4.1074,-4.0905,-4.074,-4.0596,-4.04,-4.0292,-3.995,-3.9835,-3.9662,-3.9431,-3.9258,-3.8931,-3.8411,-3.7969,-3.7603,-3.6834,-3.6161,-3.5661,-3.5526,-3.5468,-3.4776,-3.4257,-3.3795,-3.3526,-3.3199,-3.3064,-3.341,-3.343,-3.3026,-3.2756,-3.2513,-3.1763,-5.0356,-5.0202,-4.8721,-4.8087,-4.8087,-4.8087,-4.8106,-4.8087,-4.7914,-4.7875,-4.7739,-4.6956,-4.6669,-4.6808,-4.6773,-4.6814,-4.6901,-4.7039,-4.7159,-4.7044,-4.6488,-4.626,-4.6245,-4.6269,-4.6289,-4.6289,-4.6289,-4.6289,-4.6289,-4.6289,-4.6289,-4.6289,-4.6289,-4.6211,-4.5976,-4.5918,-4.5859,-4.5644,-4.5586,-4.5547,-4.5566,-4.5742,-4.5937,-4.5996,-4.6172,-4.6289,-4.6289,-4.6289,-4.582,-4.4863,-4.5293,-4.5293,-4.4785,-4.5176,-4.5586,-4.5801,-4.5918,-4.5996,-4.6211,-4.6289,-4.6152,-4.6016,-4.5859,-4.5859,-4.5644,-4.5019,-4.4414,-4.3887,-4.3437,-4.3457,-4.3652,-4.3516,-4.3379,-4.3183,-4.2226,-4.1543,-4.1953,-4.207,-4.1894,-4.1406,-4.1777,-4.1777,-4.1328,-4.1172,-4.1035,-4.0957,-4.084,-4.071,-4.0636,-4.0566,-4.0292,-4.0296,-4.0162,-4.0085,-3.9835,-3.9315,-3.8931,-3.8719,-3.793,-3.6853,-3.6199,-3.5603,-3.5507,-3.5218,-3.4988,-3.4584,-3.4795,-3.4795,-3.4757,-3.441,-3.4507,-3.4295,-3.3737,-3.332,-3.2167,-5.1375,-5.126,-4.9856,-4.9279,-4.9279,-4.926,-4.9279,-4.9221,-4.8952,-4.8894,-4.8771,-4.7986,-4.7658,-4.7802,-4.7772,-4.7787,-4.7845,-4.7612,-4.7489,-4.7363,-4.666,-4.6308,-4.6289,-4.6289,-4.6289,-4.6289,-4.6289,-4.6289,-4.6289,-4.6289,-4.6289,-4.6289,-4.6289,-4.6289,-4.6269,-4.6289,-4.6289,-4.6269,-4.6289,-4.6289,-4.6289,-4.6289,-4.6289,-4.6289,-4.6289,-4.6289,-4.6289,-4.6289,-4.6035,-4.5742,-4.5996,-4.6055,-4.5664,-4.5996,-4.6289,-4.6289,-4.6289,-4.6289,-4.6289,-4.6289,-4.6289,-4.6289,-4.6289,-4.6289,-4.6191,-4.5801,-4.5234,-4.4941,-4.4512,-4.4453,-4.4648,-4.4492,-4.4473,-4.457,-4.3281,-4.25,-4.293,-4.293,-4.2734,-4.2519,-4.2578,-4.2461,-4.1445,-4.1426,-4.1387,-4.1172,-4.0976,-4.0861,-4.0782,-4.0718,-4.0677,-4.06,-4.0508,-4.0354,-4.0277,-3.9892,-3.945,-3.9277,-3.8777,-3.77,-3.6892,-3.6065,-3.5776,-3.5699,-3.5584,-3.5507,-3.5507,-3.5507,-3.5353,-3.5218,-3.5507,-3.5243,-3.4513,-3.4013,-3.2821,-5.2568,-5.2505,-5.158,-5.1181,-5.1145,-5.1087,-5.093,-5.0866,-5.022,-4.9972,-4.9852,-4.9074,-4.8708,-4.8836,-4.873,-4.8672,-4.8652,-4.8223,-4.7812,-4.7578,-4.7109,-4.6816,-4.6836,-4.6426,-4.6328,-4.6289,-4.6289,-4.6289,-4.6289,-4.6289,-4.6289,-4.6289,-4.6289,-4.6289,-4.6289,-4.6289,-4.6289,-4.6289,-4.6289,-4.6289,-4.6289,-4.6289,-4.6289,-4.6289,-4.6289,-4.6289,-4.6289,-4.6289,-4.625,-4.6269,-4.6289,-4.6269,-4.625,-4.6289,-4.6289,-4.6289,-4.6289,-4.6289,-4.6289,-4.6289,-4.6289,-4.6289,-4.6289,-4.6289,-4.6269,-4.6172,-4.6094,-4.5976,-4.5566,-4.5508,-4.582,-4.5527,-4.5469,-4.5664,-4.4687,-4.4082,-4.3945,-4.3906,-4.3828,-4.3808,-4.3808,-4.3047,-4.2305,-4.1992,-4.2305,-4.209,-4.1738,-4.1426,-4.1191,-4.0945,-4.0836,-4.0696,-4.06,-4.0489,-4.0469,-4.0412,-4.0008,-3.9662,-3.9238,-3.8469,-3.77,-3.6949,-3.6372,-3.6142,-3.6469,-3.6142,-3.5512,-3.5545,-3.5776,-3.5699,-3.5762,-3.5378,-3.4845,-3.4518,-3.3692,-5.424,-5.4264,-5.3405,-5.302,-5.2915,-5.23,-5.1987,-5.1914,-5.1152,-5.0859,-5.0703,-4.9922,-4.9707,-4.9863,-4.9726,-4.9726,-4.9785,-4.9512,-4.9277,-4.8574,-4.8457,-4.834,-4.7988,-4.709,-4.6367,-4.6367,-4.6308,-4.6308,-4.6308,-4.6289,-4.6289,-4.6289,-4.6289,-4.6289,-4.6289,-4.6289,-4.6289,-4.6289,-4.6289,-4.6289,-4.6289,-4.6289,-4.6289,-4.6289,-4.6289,-4.6289,-4.6289,-4.6289,-4.6289,-4.6289,-4.6289,-4.6289,-4.6289,-4.6289,-4.6289,-4.6289,-4.6289,-4.6289,-4.6289,-4.6289,-4.6289,-4.6289,-4.6289,-4.6289,-4.6289,-4.6289,-4.6289,-4.6269,-4.6113,-4.6074,-4.6211,-4.6152,-4.6094,-4.6094,-4.5898,-4.5605,-4.5605,-4.5117,-4.4687,-4.4551,-4.4609,-4.4492,-4.3867,-4.3359,-4.332,-4.3066,-4.2637,-4.2168,-4.1777,-4.1406,-4.1313,-4.1296,-4.0893,-4.0835,-4.0758,-4.0662,-4.0315,-4.0046,-3.97,-3.9392,-3.8623,-3.7969,-3.743,-3.7373,-3.7603,-3.7026,-3.618,-3.6507,-3.6949,-3.6493,-3.6021,-3.5701,-3.536,-3.504,-3.4863,-5.5019,-5.5,-5.4062,-5.3698,-5.3544,-5.2785,-5.2407,-5.2324,-5.2031,-5.1621,-5.1348,-5.1113,-5.1035,-5.0762,-5.0683,-5.0683,-5.0625,-5.0332,-4.9707,-4.9043,-4.8848,-4.8867,-4.8828,-4.8027,-4.7363,-4.7012,-4.6914,-4.6738,-4.6426,-4.6308,-4.6289,-4.6289,-4.6289,-4.6289,-4.6289,-4.6289,-4.6289,-4.6289,-4.6289,-4.6289,-4.6289,-4.6289,-4.6289,-4.6289,-4.6289,-4.6289,-4.6289,-4.6289,-4.6289,-4.6289,-4.6289,-4.6289,-4.6289,-4.6289,-4.6289,-4.6289,-4.6289,-4.6289,-4.6289,-4.6289,-4.6289,-4.6289,-4.6289,-4.6289,-4.6289,-4.6289,-4.6289,-4.6289,-4.6289,-4.6289,-4.6289,-4.6289,-4.6289,-4.6289,-4.6289,-4.6289,-4.6211,-4.5859,-4.5566,-4.5449,-4.5547,-4.5156,-4.4766,-4.4433,-4.4023,-4.3652,-4.3418,-4.2988,-4.293,-4.2582,-4.2371,-4.2145,-4.1536,-4.12,-4.1085,-4.0873,-4.0527,-4.0354,-4.0239,-4.0065,-3.9719,-3.9104,-3.8527,-3.8392,-3.8161,-3.7834,-3.7257,-3.768,-3.7623,-3.6877,-3.6356,-3.6134,-3.5882,-3.5592,-3.5515,-5.5469,-5.541,-5.4433,-5.4101,-5.4023,-5.3044,-5.2641,-5.2754,-5.2539,-5.1914,-5.168,-5.2305,-5.209,-5.1719,-5.1601,-5.1543,-5.1211,-5.0801,-5.0098,-4.9648,-4.957,-4.957,-4.9473,-4.9297,-4.8711,-4.7891,-4.7558,-4.7148,-4.6699,-4.6348,-4.6308,-4.6289,-4.6289,-4.6289,-4.6289,-4.6289,-4.6289,-4.6289,-4.6289,-4.6289,-4.6289,-4.6289,-4.6289,-4.6289,-4.6289,-4.6289,-4.6289,-4.6289,-4.6289,-4.6289,-4.6289,-4.6289,-4.6289,-4.6289,-4.6289,-4.6289,-4.6289,-4.6289,-4.6289,-4.6289,-4.6289,-4.6289,-4.6289,-4.6289,-4.6289,-4.6289,-4.6289,-4.6289,-4.6289,-4.6289,-4.6289,-4.6289,-4.6289,-4.6289,-4.6289,-4.6289,-4.6289,-4.6289,-4.6191,-4.6191,-4.6035,-4.5703,-4.541,-4.5098,-4.4668,-4.4277,-4.4062,-4.3906,-4.3848,-4.3573,-4.3237,-4.2932,-4.2329,-4.2047,-4.1931,-4.1546,-4.1123,-4.1004,-4.0908,-4.0777,-4.0777,-4.07,-4.0104,-3.8834,-3.8411,-3.8277,-3.8257,-3.8411,-3.8065,-3.7204,-3.6771,-3.6652,-3.6417,-3.6163,-3.6133,-5.6289,-5.6308,-5.543,-5.5469,-5.5703,-5.3691,-5.3144,-5.3418,-5.2383,-5.1582,-5.1582,-5.2305,-5.2676,-5.2383,-5.2461,-5.209,-5.1445,-5.1191,-5.1055,-5.082,-5.0781,-5.0762,-5.0703,-5.0625,-5.0019,-4.8828,-4.8144,-4.7656,-4.7109,-4.6699,-4.6328,-4.6289,-4.6289,-4.6289,-4.6289,-4.6289,-4.6289,-4.6289,-4.6289,-4.6289,-4.6289,-4.6289,-4.6289,-4.6289,-4.6289,-4.6289,-4.6289,-4.6289,-4.6289,-4.6289,-4.6289,-4.6289,-4.6289,-4.6289,-4.6289,-4.6289,-4.6289,-4.6289,-4.6289,-4.6289,-4.6289,-4.6289,-4.6289,-4.6289,-4.6289,-4.6289,-4.6289,-4.6289,-4.6289,-4.6289,-4.6289,-4.6289,-4.6289,-4.6289,-4.6289,-4.6289,-4.6289,-4.6289,-4.6289,-4.6289,-4.6269,-4.623,-4.5918,-4.5723,-4.5508,-4.5195,-4.498,-4.4844,-4.4766,-4.4253,-4.3635,-4.338,-4.3104,-4.2953,-4.2874,-4.2393,-4.1986,-4.1909,-4.1793,-4.1604,-4.1758,-4.2258,-4.1739,-4.0412,-3.9585,-3.9411,-3.9373,-3.9258,-3.8796,-3.8142,-3.7695,-3.728,-3.7046,-3.6875,-3.668,-5.6523,-5.6562,-5.6133,-5.6211,-5.625,-5.4805,-5.4277,-5.4512,-5.3769,-5.2891,-5.2519,-5.291,-5.2812,-5.2246,-5.2031,-5.1738,-5.1621,-5.1933,-5.1797,-5.1543,-5.1387,-5.1387,-5.1387,-5.1387,-5.0976,-5.0156,-4.9355,-4.8105,-4.7031,-4.6523,-4.6367,-4.6289,-4.6289,-4.6289,-4.6289,-4.6289,-4.6289,-4.6289,-4.6289,-4.6289,-4.6289,-4.6289,-4.6289,-4.6289,-4.6289,-4.6289,-4.6289,-4.6289,-4.6289,-4.6289,-4.6289,-4.6289,-4.6289,-4.6289,-4.6289,-4.6289,-4.6289,-4.6289,-4.6289,-4.6289,-4.6289,-4.6289,-4.6289,-4.6289,-4.6289,-4.6289,-4.6289,-4.6289,-4.6289,-4.6289,-4.6289,-4.6289,-4.6289,-4.6289,-4.6289,-4.6289,-4.6289,-4.6289,-4.6289,-4.6289,-4.6289,-4.6269,-4.6269,-4.6191,-4.625,-4.6133,-4.5879,-4.5723,-4.5586,-4.5064,-4.4374,-4.4216,-4.4011,-4.3605,-4.3566,-4.3355,-4.2835,-4.2736,-4.2755,-4.2566,-4.2492,-4.2915,-4.272,-4.1873,-4.1277,-4.0796,-4.0181,-3.9931,-3.9523,-3.9243,-3.9238,-3.8968,-3.8123,-3.7617,-3.7441,-5.6621,-5.6582,-5.6406,-5.6445,-5.6426,-5.5449,-5.5098,-5.5234,-5.5019,-5.4141,-5.3203,-5.3594,-5.332,-5.25,-5.2285,-5.2207,-5.1992,-5.2598,-5.2246,-5.1816,-5.1465,-5.1387,-5.1387,-5.1367,-5.1191,-5.0683,-5.0293,-4.9121,-4.7832,-4.7187,-4.6816,-4.6719,-4.6601,-4.6406,-4.6348,-4.6289,-4.6289,-4.6289,-4.6289,-4.6289,-4.6289,-4.6289,-4.6289,-4.6289,-4.6289,-4.6289,-4.6289,-4.6289,-4.6289,-4.6289,-4.6289,-4.6289,-4.6289,-4.6289,-4.6289,-4.6289,-4.6289,-4.6289,-4.6289,-4.6289,-4.6289,-4.6289,-4.6289,-4.6289,-4.6289,-4.6289,-4.6289,-4.6289,-4.6289,-4.6289,-4.6289,-4.6289,-4.6289,-4.6289,-4.6289,-4.6289,-4.6289,-4.6289,-4.6289,-4.6289,-4.6289,-4.6289,-4.6289,-4.6289,-4.6289,-4.6289,-4.6055,-4.6074,-4.5955,-4.5881,-4.5421,-4.5275,-4.4951,-4.4316,-4.4201,-4.4355,-4.3855,-4.3453,-4.3624,-4.3682,-4.3492,-4.3455,-4.3145,-4.2931,-4.2777,-4.222,-4.1431,-4.0592,-4.013,-4.0106,-4.0721,-4.0586,-3.9629,-3.875,-3.8281,-5.6621,-5.6543,-5.5781,-5.5879,-5.6308,-5.4961,-5.4668,-5.5215,-5.4668,-5.4082,-5.3848,-5.3945,-5.4238,-5.4316,-5.4512,-5.4238,-5.3594,-5.2891,-5.2539,-5.2148,-5.168,-5.1387,-5.1387,-5.1387,-5.1074,-5.0762,-5.043,-5.0137,-4.9316,-4.873,-4.8105,-4.7598,-4.7305,-4.7109,-4.6523,-4.6348,-4.6289,-4.6289,-4.6289,-4.6289,-4.6289,-4.6289,-4.6289,-4.6289,-4.6289,-4.6289,-4.6289,-4.6289,-4.6289,-4.6289,-4.6289,-4.6289,-4.6289,-4.6289,-4.6289,-4.6289,-4.6289,-4.6289,-4.6289,-4.6289,-4.6289,-4.6289,-4.6289,-4.6289,-4.6289,-4.6289,-4.6289,-4.6289,-4.6289,-4.6289,-4.6308,-4.6348,-4.6308,-4.6445,-4.6601,-4.6504,-4.6426,-4.6641,-4.6601,-4.6289,-4.6289,-4.6289,-4.6289,-4.6289,-4.6289,-4.6289,-4.6289,-4.6289,-4.6245,-4.6095,-4.594,-4.5651,-4.5526,-4.4951,-4.472,-4.4893,-4.4701,-4.4203,-4.4376,-4.4587,-4.4376,-4.4145,-4.4068,-4.3893,-4.3758,-4.3335,-4.2354,-4.1513,-4.0868,-4.0684,-4.0935,-4.1074,-4.1035,-4.0176,-3.9219,-5.6621,-5.6582,-5.6211,-5.625,-5.6484,-5.5762,-5.5683,-5.5898,-5.5644,-5.5176,-5.4668,-5.418,-5.3984,-5.4043,-5.4277,-5.4043,-5.332,-5.291,-5.2402,-5.2129,-5.168,-5.1445,-5.1387,-5.1387,-5.1113,-5.1074,-5.0879,-5.0937,-5.0508,-4.9629,-4.8633,-4.8359,-4.7851,-4.7461,-4.6973,-4.6543,-4.6348,-4.6289,-4.6289,-4.6289,-4.6289,-4.6289,-4.6289,-4.6289,-4.6289,-4.6289,-4.6289,-4.6289,-4.6289,-4.6289,-4.6289,-4.6289,-4.6289,-4.6289,-4.6289,-4.6289,-4.6289,-4.6289,-4.6289,-4.6308,-4.6289,-4.6308,-4.6308,-4.6289,-4.6289,-4.6367,-4.6367,-4.6289,-4.6289,-4.6328,-4.6504,-4.6758,-4.6973,-4.7109,-4.7246,-4.7187,-4.7109,-4.7012,-4.7012,-4.6641,-4.6308,-4.6348,-4.6348,-4.6289,-4.6289,-4.6289,-4.6289,-4.6289,-4.621,-4.6072,-4.5887,-4.5676,-4.5603,-4.5451,-4.5355,-4.5374,-4.5297,-4.4989,-4.4989,-4.5143,-4.5047,-4.4893,-4.4759,-4.4586,-4.4374,-4.3816,-4.3085,-4.1902,-4.0723,-4.0752,-4.0972,-4.1094,-4.1191,-4.1094,-4.0234,-5.6406,-5.6582,-5.6367,-5.6406,-5.6543,-5.6367,-5.6367,-5.6601,-5.6562,-5.6211,-5.5605,-5.4941,-5.4023,-5.3203,-5.3808,-5.4062,-5.3125,-5.3008,-5.2656,-5.2226,-5.2031,-5.2129,-5.2246,-5.2168,-5.2168,-5.2031,-5.2187,-5.1992,-5.1406,-5.0644,-4.9902,-4.9238,-4.8769,-4.8223,-4.7754,-4.7148,-4.666,-4.6289,-4.6289,-4.6289,-4.6289,-4.6289,-4.6289,-4.6289,-4.6289,-4.6289,-4.6289,-4.6289,-4.6289,-4.6289,-4.6289,-4.6289,-4.6289,-4.6289,-4.6289,-4.6387,-4.6504,-4.6738,-4.6641,-4.6523,-4.6348,-4.6367,-4.6543,-4.6641,-4.6387,-4.6523,-4.6758,-4.6777,-4.6719,-4.6797,-4.6973,-4.7461,-4.7578,-4.7891,-4.8183,-4.8144,-4.8066,-4.791,-4.7578,-4.7129,-4.6816,-4.6523,-4.6484,-4.6348,-4.6289,-4.6289,-4.6289,-4.6289,-4.6197,-4.6057,-4.5919,-4.5717,-4.5642,-4.5605,-4.5586,-4.5586,-4.5586,-4.5586,-4.5586,-4.5547,-4.5355,-4.5355,-4.5316,-4.5143,-4.4913,-4.4489,-4.3891,-4.2159,-4.0646,-4.1141,-4.1465,-4.123,-4.1191,-4.1191,-4.0937,-5.5859,-5.6543,-5.5703,-5.582,-5.6504,-5.5723,-5.582,-5.6367,-5.6523,-5.6465,-5.625,-5.625,-5.4883,-5.3691,-5.4277,-5.4648,-5.3926,-5.3906,-5.3672,-5.3652,-5.3789,-5.3535,-5.3457,-5.3457,-5.3594,-5.3594,-5.3281,-5.2891,-5.2617,-5.1914,-5.1113,-5.0273,-4.9726,-4.9375,-4.873,-4.7812,-4.6914,-4.6484,-4.6289,-4.6387,-4.6406,-4.6426,-4.6406,-4.6406,-4.6348,-4.6289,-4.6308,-4.6289,-4.6289,-4.6308,-4.6445,-4.6484,-4.6543,-4.668,-4.6738,-4.6855,-4.7226,-4.7461,-4.7422,-4.7031,-4.6484,-4.6582,-4.6933,-4.7266,-4.6894,-4.7988,-4.8183,-4.7617,-4.7539,-4.7812,-4.8047,-4.8262,-4.8379,-4.8672,-4.8984,-4.8965,-4.8867,-4.8691,-4.832,-4.7734,-4.7324,-4.7012,-4.666,-4.6543,-4.6308,-4.6289,-4.6289,-4.6289,-4.6191,-4.6073,-4.5958,-4.5828,-4.568,-4.5624,-4.5586,-4.5586,-4.5586,-4.5586,-4.5586,-4.5586,-4.5528,-4.5586,-4.5586,-4.5528,-4.5278,-4.4987,-4.4603,-4.3256,-4.2314,-4.2081,-4.1894,-4.1406,-4.1191,-4.1191,-4.084,-5.5176,-5.4902,-5.4082,-5.4531,-5.5742,-5.4883,-5.4687,-5.5058,-5.5547,-5.5781,-5.5801,-5.625,-5.5762,-5.4805,-5.4765,-5.5156,-5.4726,-5.418,-5.4082,-5.3984,-5.3984,-5.4004,-5.4004,-5.4082,-5.3965,-5.3945,-5.3574,-5.3125,-5.2695,-5.2344,-5.1738,-5.0957,-5.0488,-5.0078,-4.9375,-4.8418,-4.7285,-4.6562,-4.6387,-4.6504,-4.707,-4.7109,-4.7109,-4.7109,-4.709,-4.6777,-4.6426,-4.6308,-4.6289,-4.6465,-4.6855,-4.7031,-4.7168,-4.75,-4.7715,-4.7773,-4.8183,-4.834,-4.8379,-4.8066,-4.793,-4.793,-4.8183,-4.8203,-4.7754,-4.8613,-4.875,-4.8496,-4.8398,-4.8672,-4.8691,-4.9082,-4.9473,-4.9687,-4.9785,-4.9785,-4.9707,-4.957,-4.9238,-4.875,-4.8047,-4.748,-4.7109,-4.6758,-4.6504,-4.6289,-4.6289,-4.6269,-4.6191,-4.6094,-4.5988,-4.587,-4.5731,-4.5642,-4.5605,-4.5586,-4.5586,-4.5586,-4.5586,-4.5586,-4.5586,-4.5586,-4.5586,-4.5605,-4.568,-4.5449,-4.5045,-4.4449,-4.3689,-4.285,-4.2031,-4.1308,-4.1191,-4.1367,-4.1094,-5.4316,-5.3867,-5.2793,-5.332,-5.4707,-5.3984,-5.3769,-5.4082,-5.4648,-5.4746,-5.4629,-5.5605,-5.5371,-5.4609,-5.5078,-5.4785,-5.4531,-5.4355,-5.4414,-5.4551,-5.4726,-5.4726,-5.4785,-5.4844,-5.5,-5.4551,-5.3926,-5.3516,-5.3144,-5.2226,-5.1699,-5.1289,-5.0879,-5.0625,-5.0234,-4.918,-4.7832,-4.6933,-4.6738,-4.6914,-4.7539,-4.7558,-4.7832,-4.7891,-4.7988,-4.7793,-4.7422,-4.7324,-4.7285,-4.7422,-4.7676,-4.793,-4.8183,-4.8476,-4.8828,-4.8984,-4.9141,-4.9277,-4.9258,-4.9023,-4.8926,-4.8691,-4.9141,-4.9101,-4.9043,-4.9297,-4.9746,-4.9336,-4.9297,-4.9355,-4.9453,-4.9941,-5.0234,-5.0391,-5.0703,-5.0762,-5.0683,-5.0566,-5.0195,-4.9766,-4.8965,-4.8105,-4.7793,-4.7402,-4.6797,-4.6504,-4.6289,-4.6289,-4.623,-4.6133,-4.6006,-4.5886,-4.5758,-4.5673,-4.5624,-4.5605,-4.5586,-4.5586,-4.5586,-4.5586,-4.5586,-4.5586,-4.5642,-4.5699,-4.5757,-4.5815,-4.5565,-4.5139,-4.4179,-4.3153,-4.2637,-4.2363,-4.2246,-4.2441,-4.2031,-5.3262,-5.375,-5.2148,-5.2461,-5.3808,-5.3105,-5.3183,-5.3711,-5.3945,-5.3711,-5.3398,-5.4668,-5.4121,-5.293,-5.4375,-5.4492,-5.4023,-5.4668,-5.5195,-5.5371,-5.5781,-5.6269,-5.6308,-5.6211,-5.5898,-5.6191,-5.5215,-5.416,-5.3711,-5.2637,-5.2012,-5.1582,-5.123,-5.1133,-5.123,-5.0527,-4.9238,-4.7812,-4.7519,-4.7656,-4.7754,-4.791,-4.8379,-4.8711,-4.8887,-4.873,-4.8398,-4.832,-4.8301,-4.8398,-4.8652,-4.8848,-4.8945,-4.9101,-4.9238,-4.9238,-4.9844,-5.0137,-5.0137,-4.9394,-4.9219,-4.9336,-4.9902,-4.9922,-4.959,-5.0098,-5.082,-5.0195,-5.0156,-5.0488,-5.0683,-5.0742,-5.0879,-5.0996,-5.1289,-5.1367,-5.125,-5.1211,-5.0781,-5.0449,-4.9609,-4.8808,-4.8516,-4.8086,-4.7285,-4.6797,-4.6426,-4.6289,-4.6289,-4.6191,-4.6074,-4.5909,-4.5776,-4.5693,-4.5661,-4.5605,-4.5586,-4.5586,-4.5586,-4.5586,-4.5605,-4.5624,-4.5699,-4.5776,-4.5853,-4.593,-4.5948,-4.5907,-4.509,-4.4393,-4.4214,-4.3965,-4.3769,-4.334,-4.2812,-5.2539,-5.2226,-5.1621,-5.1738,-5.2305,-5.2617,-5.2598,-5.2402,-5.2851,-5.3262,-5.3613,-5.4297,-5.4141,-5.3691,-5.3789,-5.4375,-5.4551,-5.4707,-5.5449,-5.6113,-5.6406,-5.6543,-5.6582,-5.6445,-5.6289,-5.5625,-5.4844,-5.4004,-5.3047,-5.2363,-5.1855,-5.1445,-5.1484,-5.1094,-5.0703,-5.0156,-4.9336,-4.8047,-4.8086,-4.8496,-4.8535,-4.8965,-4.9414,-4.9746,-4.9766,-4.9551,-4.9141,-4.9121,-4.9121,-4.918,-4.9433,-4.9746,-4.9863,-5.0039,-5.043,-5.0488,-5.0937,-5.0976,-5.0976,-5.0683,-5.0605,-5.0664,-5.0644,-5.0762,-5.0723,-5.0976,-5.1152,-5.1094,-5.1016,-5.123,-5.1191,-5.1191,-5.125,-5.125,-5.1387,-5.1387,-5.1348,-5.1348,-5.1152,-5.0898,-5.0312,-4.9394,-4.8867,-4.8691,-4.8027,-4.75,-4.7187,-4.6601,-4.6445,-4.6308,-4.6158,-4.5982,-4.5841,-4.5742,-4.568,-4.5661,-4.5624,-4.5624,-4.5605,-4.5586,-4.5605,-4.568,-4.5757,-4.5834,-4.593,-4.6025,-4.6047,-4.6084,-4.6169,-4.5854,-4.5332,-4.4902,-4.4531,-4.3965,-4.332,-5.1914,-5.1406,-5.1387,-5.1387,-5.1484,-5.2012,-5.1894,-5.1543,-5.2012,-5.2598,-5.3027,-5.334,-5.3281,-5.3281,-5.3769,-5.3887,-5.4473,-5.4765,-5.4961,-5.5742,-5.6035,-5.6035,-5.6094,-5.6152,-5.582,-5.5058,-5.4101,-5.3183,-5.2754,-5.1855,-5.168,-5.1855,-5.1816,-5.1719,-5.1269,-5.0801,-5.0058,-4.9121,-4.918,-4.9336,-4.9492,-4.9824,-5.0273,-5.0508,-5.0547,-5.0371,-4.9941,-4.9746,-4.9746,-4.9902,-5.0195,-5.0605,-5.0801,-5.1035,-5.1387,-5.1387,-5.1387,-5.1367,-5.1328,-5.1308,-5.1308,-5.1777,-5.1621,-5.1406,-5.1387,-5.1367,-5.1641,-5.1719,-5.1816,-5.1875,-5.1875,-5.1836,-5.1699,-5.1699,-5.1406,-5.1406,-5.1387,-5.1387,-5.1367,-5.1152,-5.0762,-4.9902,-4.9258,-4.9082,-4.8769,-4.8359,-4.7969,-4.7363,-4.6758,-4.6523,-4.6308,-4.6059,-4.5941,-4.5862,-4.5772,-4.5699,-4.568,-4.5661,-4.5654,-4.5661,-4.5719,-4.5796,-4.5853,-4.5892,-4.5984,-4.6094,-4.6153,-4.6211,-4.625,-4.6133,-4.5801,-4.5449,-4.5215,-4.4746,-4.418,-5.1406,-5.1387,-5.1387,-5.1387,-5.1406,-5.1484,-5.1465,-5.1445,-5.1445,-5.1465,-5.1523,-5.2422,-5.2363,-5.1973,-5.3125,-5.3437,-5.3164,-5.3711,-5.418,-5.4551,-5.5293,-5.541,-5.5547,-5.5508,-5.5312,-5.4687,-5.3808,-5.293,-5.2598,-5.2324,-5.2305,-5.2422,-5.2461,-5.2226,-5.1914,-5.1387,-5.0625,-5.0,-4.998,-5.0039,-5.0058,-5.0254,-5.0703,-5.0996,-5.1133,-5.1113,-5.0957,-5.0996,-5.1074,-5.1172,-5.1269,-5.1328,-5.1367,-5.1387,-5.1387,-5.1387,-5.1387,-5.1387,-5.1426,-5.1426,-5.1894,-5.2305,-5.207,-5.166,-5.1641,-5.1855,-5.207,-5.25,-5.2734,-5.2734,-5.2754,-5.25,-5.2246,-5.1933,-5.1504,-5.1426,-5.1406,-5.1387,-5.1387,-5.1172,-5.0781,-5.0195,-4.9785,-4.9551,-4.9473,-4.9355,-4.8945,-4.8457,-4.7793,-4.6875,-4.6601,-4.6147,-4.6037,-4.5979,-4.5893,-4.5816,-4.5796,-4.5796,-4.5775,-4.5783,-4.5853,-4.5907,-4.595,-4.6005,-4.6073,-4.6145,-4.6203,-4.625,-4.6289,-4.6133,-4.5996,-4.5976,-4.5723,-4.584,-4.5449,-5.1387,-5.1387,-5.1387,-5.1387,-5.1387,-5.1387,-5.1719,-5.2226,-5.1719,-5.1387,-5.1426,-5.1641,-5.166,-5.1504,-5.1933,-5.2344,-5.2695,-5.3125,-5.4004,-5.4512,-5.4824,-5.5547,-5.5723,-5.543,-5.5,-5.4199,-5.3359,-5.2598,-5.2812,-5.2734,-5.2773,-5.2754,-5.2832,-5.2461,-5.191,-5.1386,-5.0852,-5.0547,-5.0644,-5.0566,-5.0547,-5.0703,-5.1094,-5.1308,-5.1387,-5.1387,-5.1387,-5.1387,-5.1387,-5.1387,-5.1387,-5.1387,-5.1387,-5.1387,-5.1387,-5.1387,-5.1387,-5.1406,-5.1484,-5.1973,-5.25,-5.291,-5.2949,-5.3301,-5.3125,-5.2871,-5.2851,-5.3281,-5.3594,-5.3633,-5.3516,-5.3281,-5.2949,-5.2539,-5.1992,-5.1484,-5.1465,-5.1465,-5.1445,-5.1308,-5.0918,-5.082,-5.0391,-5.0137,-5.0078,-5.0117,-4.9941,-4.9453,-4.8691,-4.7715,-4.7012,-4.6523,-4.6136,-4.6093,-4.6041,-4.5932,-4.5928,-4.5924,-4.5905,-4.59,-4.5938,-4.5996,-4.6047,-4.6113,-4.6154,-4.6208,-4.628,-4.6289,-4.6289,-4.6289,-4.6191,-4.625,-4.6289,-4.6289,-4.6133,-5.1016,-5.0547,-5.1152,-5.1387,-5.1289,-5.0683,-5.0918,-5.1562,-5.1465,-5.1387,-5.1387,-5.1406,-5.1387,-5.1406,-5.1484,-5.1719,-5.2129,-5.2187,-5.2695,-5.3183,-5.4277,-5.4687,-5.498,-5.4863,-5.4277,-5.3574,-5.291,-5.207,-5.2558,-5.3379,-5.3613,-5.332,-5.3198,-5.2547,-5.1921,-5.1408,-5.0952,-5.0819,-5.0859,-5.0898,-5.0996,-5.1113,-5.1289,-5.1387,-5.1387,-5.1387,-5.1387,-5.1387,-5.1387,-5.1387,-5.1387,-5.1387,-5.1387,-5.1387,-5.1387,-5.1387,-5.1387,-5.166,-5.1953,-5.2363,-5.2988,-5.3555,-5.3926,-5.4316,-5.4336,-5.4082,-5.4121,-5.4297,-5.4414,-5.4473,-5.4277,-5.4062,-5.3672,-5.3262,-5.2461,-5.1641,-5.1562,-5.1543,-5.1484,-5.1406,-5.1348,-5.1328,-5.1133,-5.084,-5.0703,-5.0801,-5.0664,-5.0273,-4.9355,-4.8242,-4.7558,-4.7051,-4.6562,-4.6234,-4.6172,-4.6211,-4.6181,-4.6162,-4.601,-4.602,-4.6035,-4.6094,-4.6172,-4.6211,-4.6255,-4.6289,-4.6289,-4.6289,-4.6289,-4.6289,-4.6289,-4.6289,-4.6289,-4.6289,-4.6074,-5.0293,-4.9082,-5.0547,-5.1133,-5.1094,-4.9785,-4.9668,-5.0332,-5.1133,-5.1348,-5.1289,-5.1367,-5.1387,-5.1387,-5.1406,-5.1406,-5.1601,-5.1641,-5.1855,-5.1621,-5.3008,-5.3887,-5.418,-5.3398,-5.375,-5.334,-5.2617,-5.1797,-5.2148,-5.3164,-5.418,-5.3945,-5.379,-5.3088,-5.1934,-5.1279,-5.0928,-5.0979,-5.1042,-5.1133,-5.125,-5.1348,-5.1386,-5.1367,-5.1387,-5.1387,-5.1387,-5.1387,-5.1387,-5.1387,-5.1387,-5.1387,-5.1387,-5.1387,-5.1387,-5.1621,-5.1699,-5.2148,-5.2676,-5.3164,-5.3906,-5.4414,-5.4687,-5.5195,-5.5293,-5.4844,-5.4726,-5.5176,-5.5371,-5.539,-5.5254,-5.4863,-5.4453,-5.3828,-5.3047,-5.2422,-5.2148,-5.1894,-5.1445,-5.1387,-5.1387,-5.1387,-5.1367,-5.1035,-5.1016,-5.1289,-5.123,-5.0859,-5.0215,-4.9004,-4.834,-4.7793,-4.7422,-4.7031,-4.6699,-4.6699,-4.6562,-4.645,-4.6445,-4.6426,-4.668,-4.6523,-4.6289,-4.6289,-4.6269,-4.6289,-4.6289,-4.6289,-4.6289,-4.6289,-4.6289,-4.6289,-4.6289,-4.6289,-4.6211,-4.9277,-4.8945,-4.9336,-4.9863,-5.041,-5.0078,-5.0293,-5.1094,-5.1289,-5.1016,-5.0683,-5.1074,-5.1387,-5.1387,-5.1387,-5.1387,-5.1387,-5.1426,-5.1836,-5.2305,-5.3047,-5.3672,-5.4512,-5.3711,-5.3769,-5.334,-5.2578,-5.1738,-5.248,-5.3672,-5.416,-5.3105,-5.3236,-5.2974,-5.1549,-5.0933,-5.0914,-5.0971,-5.1215,-5.1308,-5.1367,-5.1367,-5.1369,-5.133,-5.1308,-5.1387,-5.1406,-5.1406,-5.1406,-5.1387,-5.1387,-5.1387,-5.1387,-5.1426,-5.1777,-5.2226,-5.2402,-5.2891,-5.3535,-5.4101,-5.4765,-5.5254,-5.5605,-5.6094,-5.6094,-5.541,-5.5312,-5.5918,-5.623,-5.6211,-5.6094,-5.5644,-5.5215,-5.4473,-5.3711,-5.3262,-5.2793,-5.2148,-5.1523,-5.1387,-5.1387,-5.1387,-5.1387,-5.1387,-5.1387,-5.1387,-5.1387,-5.1191,-5.0957,-5.0137,-4.9453,-4.8926,-4.8594,-4.8183,-4.7656,-4.7402,-4.7383,-4.7519,-4.7617,-4.7519,-4.7285,-4.6758,-4.6289,-4.6289,-4.6289,-4.6289,-4.6289,-4.6289,-4.6289,-4.6289,-4.6289,-4.6289,-4.6289,-4.6289,-4.6289,-4.8457,-4.7793,-4.7754,-4.8476,-4.9414,-4.9219,-4.9316,-4.9726,-5.0117,-5.0039,-4.9883,-5.0781,-5.1387,-5.1387,-5.1387,-5.1367,-5.1367,-5.1387,-5.1582,-5.2187,-5.2832,-5.3516,-5.3769,-5.3633,-5.3652,-5.3242,-5.2226,-5.1855,-5.2734,-5.3242,-5.3301,-5.2637,-5.2892,-5.2454,-5.1029,-5.0856,-5.0856,-5.0856,-5.1318,-5.1624,-5.1644,-5.1558,-5.1362,-5.1268,-5.1315,-5.1486,-5.1836,-5.1894,-5.1953,-5.1992,-5.2031,-5.2402,-5.2539,-5.2734,-5.2871,-5.3125,-5.3379,-5.3652,-5.4433,-5.5019,-5.5508,-5.5898,-5.6172,-5.6523,-5.6523,-5.5937,-5.5937,-5.6426,-5.6445,-5.6445,-5.6426,-5.6094,-5.6035,-5.5566,-5.4726,-5.4062,-5.3281,-5.2441,-5.1836,-5.1387,-5.1387,-5.1387,-5.1387,-5.1387,-5.1387,-5.1406,-5.1406,-5.1445,-5.123,-5.1172,-5.0527,-4.9961,-4.9551,-4.9043,-4.8418,-4.8301,-4.8398,-4.8555,-4.8691,-4.791,-4.7266,-4.6699,-4.6289,-4.6406,-4.6426,-4.6289,-4.6289,-4.6289,-4.6289,-4.6289,-4.6289,-4.6289,-4.6289,-4.6289,-4.6289,-4.7656,-4.6367,-4.6328,-4.7226,-4.8496,-4.7969,-4.7773,-4.8008,-4.8613,-4.8965,-4.9121,-5.041,-5.1035,-5.123,-5.1387,-5.1308,-5.1289,-5.1348,-5.1445,-5.1523,-5.1758,-5.2773,-5.2988,-5.2637,-5.2871,-5.2754,-5.1953,-5.1973,-5.2402,-5.2793,-5.2851,-5.2441,-5.2124,-5.1799,-5.1126,-5.0952,-5.1049,-5.1376,-5.1856,-5.2382,-5.2221,-5.1921,-5.1776,-5.1645,-5.1603,-5.1955,-5.2441,-5.2734,-5.2812,-5.2851,-5.2891,-5.3281,-5.3555,-5.373,-5.3906,-5.4062,-5.416,-5.4648,-5.5273,-5.5547,-5.5996,-5.6348,-5.6543,-5.6601,-5.6582,-5.6582,-5.6582,-5.6601,-5.6601,-5.6601,-5.6601,-5.6582,-5.6543,-5.6387,-5.5527,-5.4687,-5.373,-5.2891,-5.2363,-5.1777,-5.166,-5.166,-5.1406,-5.1406,-5.1582,-5.1562,-5.1601,-5.1523,-5.1523,-5.1621,-5.1387,-5.0801,-5.0312,-4.9746,-4.918,-4.9316,-4.9492,-4.9375,-4.9336,-4.8223,-4.7383,-4.7207,-4.6973,-4.668,-4.6641,-4.6445,-4.6328,-4.6289,-4.6289,-4.6328,-4.6289,-4.6289,-4.6289,-4.6289,-4.6289,-4.6621,-4.6308,-4.6289,-4.6914,-4.7734,-4.7656,-4.7988,-4.8594,-4.875,-4.8887,-4.8926,-4.9121,-4.9707,-5.0449,-5.1152,-5.1152,-5.0723,-5.1035,-5.1328,-5.1445,-5.1855,-5.248,-5.2773,-5.2558,-5.2246,-5.1933,-5.166,-5.166,-5.2148,-5.2402,-5.2148,-5.1582,-5.213,-5.178,-5.1087,-5.1222,-5.1896,-5.2184,-5.2762,-5.3434,-5.3213,-5.3009,-5.2961,-5.2804,-5.2647,-5.2904,-5.3183,-5.3398,-5.3496,-5.3574,-5.373,-5.416,-5.4453,-5.457,-5.4648,-5.4941,-5.5039,-5.543,-5.5898,-5.6113,-5.6484,-5.6484,-5.6621,-5.6601,-5.6601,-5.6601,-5.6601,-5.6601,-5.6621,-5.6621,-5.6601,-5.6601,-5.6562,-5.6367,-5.5781,-5.498,-5.4121,-5.3769,-5.3418,-5.293,-5.2578,-5.2129,-5.1426,-5.1738,-5.2383,-5.2519,-5.293,-5.2793,-5.2129,-5.2148,-5.2168,-5.1641,-5.1074,-5.0586,-5.0117,-5.0449,-5.0605,-5.043,-5.0098,-4.9297,-4.8633,-4.8144,-4.7851,-4.7519,-4.6933,-4.6582,-4.6465,-4.6601,-4.6367,-4.6387,-4.6328,-4.6289,-4.6289,-4.6289,-4.6289]}]]